Date StartTime U_cm/s V_cm/s W_cm/s Ustd_cm/s Vstd_cm/s Wstd_cm/s Uvar_(cm/s)^2 Vvar_(cm/s)^2 Wvar_(cm/s)^2 KE_(m/s)^2 TurbulentKE_(m/s)^2 HorizWindSpeed_cm/s FrictionSpeec_cm/s DragCoef SpeedOfSound_m/s SonicTemperature_C Pressure_mb 
01/16/2014  00:00:00      -91.840      -15.572      -11.771       16.475       20.621       14.092      271.420      425.245      198.572        0.486        0.045       93.151        8.683        0.009      331.506       -0.436      874.141
01/16/2014  00:01:00      -97.042      -42.904      -16.363       16.836       16.852       11.783      283.443      283.977      138.841        0.612        0.035      106.103        6.775        0.004      331.459       -0.513      874.149
01/16/2014  00:02:00     -106.045      -34.657      -10.884       25.547       15.184       16.186      652.646      230.566      261.982        0.685        0.057      111.564       15.102        0.018      331.398       -0.613      874.159
01/16/2014  00:03:00     -115.848      -24.236      -17.814       22.091       12.602       13.007      488.011      158.821      169.189        0.757        0.041      118.357        8.886        0.006      331.420       -0.576      874.161
01/16/2014  00:04:00      -87.697      -32.443      -14.216       22.941       20.397       12.606      526.283      416.018      158.917        0.502        0.055       93.506       11.991        0.016      331.432       -0.558      874.156
01/16/2014  00:05:00     -107.621      -32.785      -16.673       16.593       17.162       15.231      275.319      294.551      231.975        0.687        0.040      112.504       11.226        0.010      331.301       -0.770      874.153
01/16/2014  00:06:00      -91.418      -41.749      -19.190       14.996       17.603       12.929      224.874      309.866      167.154        0.559        0.035      100.500        6.386        0.004      331.378       -0.646      874.157
01/16/2014  00:07:00      -79.001      -32.743      -14.236       33.206       24.586       17.525     1102.670      604.494      307.124        0.476        0.101       85.517       12.498        0.021      331.345       -0.698      874.177
01/16/2014  00:08:00      -81.997      -42.755      -21.708       20.796       23.535       13.293      432.468      553.889      176.697        0.509        0.058       92.474        2.386        0.001      331.311       -0.755      874.189
01/16/2014  00:09:00      -87.342      -30.490      -21.789       20.394       22.262       11.916      415.910      495.584      141.996        0.504        0.053       92.510        6.393        0.005      331.277       -0.812      874.194
01/16/2014  00:10:00      -98.147      -25.110      -14.781       23.704       22.381       20.825      561.885      500.920      433.699        0.599        0.075      101.308       17.047        0.028      331.249       -0.856      874.196
01/16/2014  00:11:00      -72.171      -29.684       -7.976       18.757       14.095       13.096      351.843      198.678      171.497        0.344        0.036       78.037        8.005        0.011      331.191       -0.953      874.191
01/16/2014  00:12:00      -87.291      -13.469      -12.910       18.003       15.753       11.024      324.115      248.169      121.532        0.433        0.035       88.324        7.096        0.006      331.165       -0.996      874.189
01/16/2014  00:13:00      -77.053      -12.668       -9.988       19.888       17.334       11.788      395.549      300.465      138.963        0.352        0.042       78.087       10.712        0.019      331.114       -1.079      874.177
01/16/2014  00:14:00      -68.055      -12.571      -14.149       12.722       13.130        9.223      161.838      172.393       85.056        0.270        0.021       69.206        5.969        0.007      331.183       -0.966      874.164
01/16/2014  00:15:00      -54.826       -5.151       -3.768       12.984       14.415        8.417      168.575      207.793       70.849        0.175        0.022       55.067        6.231        0.013      331.212       -0.918      874.156
01/16/2014  00:16:00      -35.316       -2.122       -2.496       11.593       11.011        8.355      134.392      121.239       69.807        0.079        0.016       35.380        6.166        0.030      331.282       -0.804      874.143
01/16/2014  00:17:00      -26.189       10.681       -4.856        7.070       10.169        5.821       49.984      103.412       33.889        0.051        0.009       28.283        6.683        0.056      331.399       -0.611      874.117
01/16/2014  00:18:00      -24.631        9.058       -1.409        9.012        7.939        5.177       81.212       63.025       26.800        0.043        0.009       26.244        4.327        0.027      331.468       -0.499      874.094
01/16/2014  00:19:00      -19.071       -3.944       -3.222        8.984        7.159        8.183       80.720       51.248       66.960        0.029        0.010       19.474        6.013        0.095      331.404       -0.602      874.083
01/16/2014  00:20:00      -21.639      -12.546       -7.573       11.890        8.973        6.127      141.379       80.516       37.544        0.047        0.013       25.013        3.371        0.018      331.368       -0.662      874.074
01/16/2014  00:21:00      -46.635       -6.480       -5.884       12.040        7.777        8.164      144.951       60.478       66.654        0.126        0.014       47.083        5.590        0.014      331.315       -0.749      874.057
01/16/2014  00:22:00      -61.685      -19.688       -3.441       22.893       11.387       10.461      524.111      129.672      109.429        0.248        0.038       64.751       10.751        0.028      331.149       -1.023      874.037
01/16/2014  00:23:00      -73.001      -17.453      -10.004        7.742        9.210        7.413       59.937       84.819       54.950        0.297        0.010       75.059        5.967        0.006      331.176       -0.977      874.023
01/16/2014  00:24:00      -82.013       -2.404       -9.915       17.486        9.555       11.752      305.771       91.302      138.107        0.368        0.027       82.048        9.707        0.014      331.167       -0.993      874.025
01/16/2014  00:25:00      -86.525       -9.077      -18.251       10.533        8.205        7.782      110.945       67.321       60.555        0.407        0.012       87.000        3.866        0.002      331.140       -1.038      874.030
01/16/2014  00:26:00      -95.894       -4.460      -19.989       15.435        9.098        9.728      238.249       82.780       94.631        0.502        0.021       95.997        4.759        0.002      331.147       -1.026      874.030
01/16/2014  00:27:00      -96.924       -1.693      -15.465       15.916        9.751        7.580      253.322       95.080       57.459        0.502        0.020       96.938        5.036        0.003      331.158       -1.009      874.030
01/16/2014  00:28:00      -71.454       -2.719      -15.089       13.438       10.109       11.028      180.574      102.201      121.610        0.287        0.020       71.506        9.396        0.017      331.188       -0.959      874.042
01/16/2014  00:29:00      -65.317       -4.614      -12.520        9.203       11.010        6.269       84.701      121.210       39.296        0.234        0.012       65.480        4.350        0.004      331.279       -0.807      874.052
01/16/2014  00:30:00      -51.993      -24.101       -9.214       15.219       14.145       10.750      231.623      200.068      115.570        0.196        0.027       57.308        8.754        0.023      331.332       -0.722      874.055
01/16/2014  00:31:00      -59.687      -18.308       -8.928        9.845       15.797        7.561       96.925      249.530       57.171        0.219        0.020       62.432        4.908        0.006      331.278       -0.810      874.068
01/16/2014  00:32:00      -64.594      -10.482       -6.558       12.536       11.323        8.519      157.143      128.208       72.575        0.234        0.018       65.439        2.818        0.002      331.451       -0.525      874.078
01/16/2014  00:33:00      -52.970        1.348       -5.503       12.276        8.455        6.223      150.711       71.482       38.729        0.155        0.013       52.987        5.415        0.010      331.360       -0.676      874.086
01/16/2014  00:34:00      -52.790       -7.657       -2.312       11.818        9.123        6.977      139.667       83.225       48.685        0.156        0.014       53.342        5.001        0.009      331.384       -0.636      874.090
01/16/2014  00:35:00      -52.029      -13.187       -8.755        8.178        9.817        7.060       66.879       96.379       49.837        0.159        0.011       53.674        4.904        0.008      331.322       -0.737      874.098
01/16/2014  00:36:00      -47.303      -31.958        2.617        8.030        7.703        8.868       64.486       59.335       78.636        0.173        0.010       57.087        3.956        0.005      331.381       -0.640      874.109
01/16/2014  00:37:00      -32.085      -22.068        4.172        9.278        8.962        5.743       86.090       80.325       32.987        0.087        0.010       38.941        3.254        0.007      331.505       -0.438      874.133
01/16/2014  00:38:00      -23.731       -7.911       -0.324        9.912        7.112        5.034       98.244       50.582       25.340        0.040        0.009       25.014        4.590        0.034      331.455       -0.518      874.154
01/16/2014  00:39:00       -3.734        1.387        0.742       14.099        6.215        8.066      198.789       38.632       65.055        0.016        0.015        3.984        4.403        1.222      331.674       -0.158      874.172
01/16/2014  00:40:00       -6.063        2.680        5.817       13.991        7.646        8.486      195.748       58.462       72.017        0.020        0.016        6.629        5.721        0.745      331.511       -0.426      874.187
01/16/2014  00:41:00      -22.394       -7.108        3.675       11.013       10.690        9.791      121.276      114.268       95.870        0.045        0.017       23.495        2.931        0.016      331.629       -0.233      874.186
01/16/2014  00:42:00      -47.535       -7.702       -9.525        7.121        8.255        6.066       50.713       68.138       36.794        0.128        0.008       48.155        3.515        0.005      331.438       -0.547      874.191
01/16/2014  00:43:00      -41.329      -28.683      -12.534       11.414       11.640        7.179      130.275      135.495       51.535        0.150        0.016       50.307        5.621        0.012      331.334       -0.718      874.203
01/16/2014  00:44:00      -62.237      -26.438      -11.739       13.254        9.206        7.759      175.666       84.751       60.200        0.252        0.016       67.620        2.380        0.001      331.227       -0.895      874.223
01/16/2014  00:45:00      -79.636      -19.564      -14.943       11.136        8.386        6.598      124.019       70.327       43.533        0.359        0.012       82.003        3.563        0.002      331.194       -0.948      874.237
01/16/2014  00:46:00      -86.448      -28.643      -15.079        7.401        9.340        7.641       54.781       87.243       58.388        0.436        0.010       91.069        3.901        0.002      331.138       -1.040      874.251
01/16/2014  00:47:00      -70.310      -28.307      -12.127        7.725        9.300        6.754       59.681       86.495       45.619        0.304        0.010       75.795        3.376        0.002      331.139       -1.041      874.264
01/16/2014  00:48:00      -67.851      -20.731      -11.045        7.160        7.238        5.999       51.265       52.392       35.991        0.265        0.007       70.948        1.735        0.001      331.191       -0.953      874.281
01/16/2014  00:49:00      -55.813      -20.976       -9.712        8.631        8.126        5.820       74.488       66.026       33.873        0.191        0.009       59.625        2.253        0.001      331.171       -0.987      874.294
01/16/2014  00:50:00      -72.390      -14.301       -6.245        8.857        9.486        5.701       78.449       89.985       32.499        0.284        0.010       73.789        3.755        0.003      331.058       -1.171      874.302
01/16/2014  00:51:00      -86.304      -36.406      -11.806        8.603        6.976        6.357       74.020       48.665       40.416        0.454        0.008       93.669        3.688        0.002      331.029       -1.219      874.298
01/16/2014  00:52:00      -91.912      -40.500      -12.948       10.581        9.175        8.847      111.956       84.183       78.270        0.527        0.014      100.439        3.045        0.001      331.084       -1.129      874.295
01/16/2014  00:53:00      -87.789      -31.403       -9.468       11.812       12.201        8.600      139.535      148.870       73.968        0.457        0.018       93.236        4.672        0.003      331.078       -1.139      874.302
01/16/2014  00:54:00      -88.579      -27.789      -13.193        9.899        9.990        8.865       97.982       99.793       78.590        0.453        0.014       92.836        6.290        0.005      331.165       -0.994      874.316
01/16/2014  00:55:00      -96.271      -19.604      -10.040       22.152       12.935       16.549      490.719      167.306      273.870        0.534        0.047       98.247        8.302        0.007      331.195       -0.946      874.321
01/16/2014  00:56:00      -98.293      -37.960       -7.036       16.149       16.321       10.861      260.787      266.366      117.964        0.590        0.032      105.368        4.379        0.002      331.171       -0.985      874.317
01/16/2014  00:57:00     -117.517      -36.367      -11.501       14.051       13.118       10.437      197.442      172.077      108.931        0.787        0.024      123.016        7.204        0.003      331.095       -1.109      874.306
01/16/2014  00:58:00     -120.745      -31.062       -4.969       31.898       20.113       12.797     1017.467      404.546      163.764        0.858        0.079      124.676       13.287        0.011      331.064       -1.161      874.297
01/16/2014  00:59:00     -130.775      -36.981       -8.717       21.938       19.013       17.183      481.293      361.486      295.254        0.984        0.057      135.904       12.596        0.009      331.010       -1.250      874.291
01/16/2014  01:00:00     -118.499      -41.303       -1.002       28.582       23.679       18.036      816.922      560.715      325.300        0.873        0.085      125.491       15.877        0.016      330.902       -1.427      874.293
01/16/2014  01:01:00      -92.781      -26.126        0.609       31.222       24.697       18.763      974.784      609.919      352.067        0.561        0.097       96.390       16.376        0.029      330.847       -1.517      874.290
01/16/2014  01:02:00     -102.463      -38.773        0.087       29.973       25.140       16.811      898.402      632.037      282.600        0.691        0.091      109.554       15.212        0.019      330.955       -1.340      874.291
01/16/2014  01:03:00     -124.859      -31.591       -1.129       30.403       28.661       19.941      924.345      821.479      397.629        0.937        0.107      128.794       19.915        0.024      330.965       -1.325      874.290
01/16/2014  01:04:00     -141.399      -35.351        0.104       37.279       27.504       19.154     1389.755      756.493      366.890        1.188        0.126      145.751       18.738        0.017      330.951       -1.348      874.266
01/16/2014  01:05:00     -133.001      -37.755       -0.173       50.352       31.630       21.367     2535.317     1000.473      456.544        1.155        0.200      138.256       22.396        0.026      330.897       -1.436      874.242
01/16/2014  01:06:00     -128.561      -37.640        4.054       32.241       31.047       19.618     1039.466      963.925      384.855        1.017        0.119      133.957       20.036        0.022      330.917       -1.403      874.222
01/16/2014  01:07:00     -130.468      -37.830        0.991       32.961       25.800       18.498     1086.421      665.639      342.175        1.027        0.105      135.841       17.355        0.016      330.977       -1.304      874.223
01/16/2014  01:08:00     -126.614      -40.336       -1.564       43.109       32.058       19.793     1858.362     1027.742      391.778        1.047        0.164      132.884       19.296        0.021      330.939       -1.366      874.237
01/16/2014  01:09:00     -143.900      -50.199        0.318       46.203       26.727       24.123     2134.708      714.327      581.937        1.333        0.172      152.405       23.913        0.025      330.957       -1.338      874.231
01/16/2014  01:10:00     -161.183      -41.251        0.370       39.965       27.015       20.413     1597.225      729.789      416.695        1.521        0.137      166.378       20.862        0.016      330.902       -1.427      874.216
01/16/2014  01:11:00     -185.839      -68.710       -1.003       35.044       26.307       19.397     1228.068      692.040      376.226        2.078        0.115      198.134       12.823        0.004      330.960       -1.334      874.192
01/16/2014  01:12:00     -160.635      -63.893        5.921       47.131       34.888       26.492     2221.370     1217.207      701.839        1.703        0.207      172.875       24.128        0.019      330.934       -1.376      874.184
01/16/2014  01:13:00     -169.280      -69.456       -8.139       37.014       35.958       22.141     1370.029     1292.987      490.230        1.835        0.158      182.975       18.167        0.010      330.947       -1.355      874.189
01/16/2014  01:14:00     -136.246      -39.374      -14.876       19.135       27.844       16.784      366.142      775.274      281.689        1.088        0.071      141.822       11.802        0.007      330.828       -1.550      874.208
01/16/2014  01:15:00     -123.072      -28.535       -9.087       29.942       23.424       16.592      896.538      548.674      275.298        0.888        0.086      126.337       16.707        0.017      330.748       -1.682      874.218
01/16/2014  01:16:00      -88.777      -36.238        3.591       40.057       29.367       19.435     1604.578      862.414      377.733        0.603        0.142       95.888       20.234        0.045      330.733       -1.707      874.216
01/16/2014  01:17:00     -124.435      -74.575       -7.368       33.764       28.284       22.465     1139.983      799.971      504.664        1.177        0.122      145.071       19.753        0.019      330.793       -1.607      874.204
01/16/2014  01:18:00     -114.434      -35.004       -8.621       20.825       22.814       15.290      433.685      520.492      233.792        0.779        0.059      119.668       10.921        0.008      330.778       -1.633      874.201
01/16/2014  01:19:00     -100.327      -34.128       -4.580       26.063       30.821       20.768      679.266      949.924      431.301        0.666        0.103      105.973       15.867        0.022      330.789       -1.615      874.198
01/16/2014  01:20:00      -96.571      -13.755       -3.490       39.219       35.520       19.413     1538.124     1261.686      376.856        0.635        0.159       97.545       18.486        0.036      330.799       -1.596      874.189
01/16/2014  01:21:00     -106.311       -3.474       -5.360       48.696       27.870       20.661     2371.320      776.722      426.874        0.746        0.179      106.368       21.152        0.040      330.947       -1.354      874.175
01/16/2014  01:22:00     -107.827       27.720       -9.339       45.733       34.626       24.582     2091.553     1198.961      604.252        0.819        0.195      111.333       22.280        0.040      331.072       -1.149      874.172
01/16/2014  01:23:00      -85.419       10.084       -8.517       35.562       27.557       20.486     1264.672      759.410      419.688        0.496        0.122       86.012       15.467        0.032      331.075       -1.144      874.173
01/16/2014  01:24:00     -110.978      -20.053       -9.445       36.181       26.124       17.376     1309.036      682.457      301.941        0.755        0.115      112.775       18.093        0.026      330.977       -1.306      874.156
01/16/2014  01:25:00     -124.937      -10.933      -12.437       25.608       29.603       14.383      655.787      876.350      206.878        0.881        0.087      125.415       10.485        0.007      330.866       -1.487      874.147
01/16/2014  01:26:00     -120.875        5.084       -9.217       45.164       39.539       24.921     2039.807     1563.301      621.049        0.947        0.211      120.982       18.261        0.023      330.815       -1.570      874.136
01/16/2014  01:27:00     -121.398       11.433       -9.209       47.070       45.188       24.070     2215.611     2041.955      579.384        0.989        0.242      121.936       16.223        0.018      330.839       -1.533      874.139
01/16/2014  01:28:00     -124.218       19.680       -6.625       65.523       42.654       28.193     4293.256     1819.327      794.834        1.138        0.345      125.767       29.602        0.055      330.893       -1.442      874.149
01/16/2014  01:29:00     -120.429       19.782      -14.503       49.779       37.152       21.868     2477.956     1380.290      478.218        0.972        0.217      122.043       16.616        0.019      330.943       -1.360      874.156
01/16/2014  01:30:00      -96.904       -2.281       -4.699       27.124       36.894       25.568      735.696     1361.190      653.718        0.608        0.138       96.930       12.738        0.017      331.027       -1.225      874.157
01/16/2014  01:31:00     -157.470       25.552      -11.895       42.339       35.279       22.458     1792.580     1244.619      504.341        1.457        0.177      159.529       22.745        0.020      331.030       -1.219      874.150
01/16/2014  01:32:00     -108.927      -38.922       -4.172       30.974       30.354       22.477      959.377      921.364      505.197        0.789        0.119      115.671       10.977        0.009      330.909       -1.416      874.140
01/16/2014  01:33:00     -138.444      -24.508       -9.387       56.135       41.565       26.209     3151.094     1727.636      686.891        1.271        0.278      140.597       24.833        0.031      330.913       -1.410      874.104
01/16/2014  01:34:00     -105.432        0.693       -6.934       41.834       30.704       19.059     1750.087      942.716      363.245        0.711        0.153      105.434       22.775        0.047      330.829       -1.549      874.081
01/16/2014  01:35:00     -132.207        7.928      -14.811       34.612       36.812       19.545     1198.023     1355.094      382.008        1.035        0.147      132.444       16.418        0.015      330.784       -1.623      874.080
01/16/2014  01:36:00     -101.529      -12.129       -8.343       34.504       35.063       21.848     1190.512     1229.380      477.348        0.671        0.145      102.251       14.733        0.021      330.800       -1.594      874.102
01/16/2014  01:37:00     -115.219       23.300      -13.141       39.036       32.339       24.251     1523.777     1045.834      588.121        0.857        0.158      117.551       16.649        0.020      330.971       -1.313      874.127
01/16/2014  01:38:00      -90.205        0.561       -6.862       47.687       32.413       21.509     2274.065     1050.622      462.621        0.599        0.189       90.207       21.228        0.055      330.977       -1.304      874.128
01/16/2014  01:39:00      -78.438        4.199       -6.796       45.008       37.786       25.781     2025.747     1427.778      664.666        0.517        0.206       78.550       27.604        0.123      330.974       -1.310      874.123
01/16/2014  01:40:00      -97.104      -36.854       -3.161       32.806       30.932       16.421     1076.243      956.759      269.662        0.655        0.115      103.863       15.296        0.022      330.858       -1.500      874.112
01/16/2014  01:41:00     -104.862      -57.074       -9.709       45.873       30.906       17.249     2104.377      955.192      297.513        0.885        0.168      119.388       20.699        0.030      330.851       -1.513      874.105
01/16/2014  01:42:00      -50.780      -45.087        0.683       33.505       28.469       22.539     1122.568      810.512      508.012        0.353        0.122       67.908       12.313        0.033      330.767       -1.650      874.107
01/16/2014  01:43:00      -69.689      -43.672        1.090       30.021       24.046       20.776      901.286      578.226      431.647        0.434        0.096       82.242       16.356        0.040      330.756       -1.667      874.118
01/16/2014  01:44:00     -100.805      -37.947       -8.017       31.913       23.389       15.916     1018.424      547.065      253.309        0.674        0.091      107.711       14.312        0.018      330.739       -1.696      874.133
01/16/2014  01:45:00      -76.186      -34.235       -9.599       27.756       31.392       17.676      770.400      985.473      312.440        0.457        0.103       83.524       15.786        0.036      330.680       -1.793      874.144
01/16/2014  01:46:00      -73.422      -31.864       -6.788       19.346       26.545       17.446      374.279      704.638      304.370        0.392        0.069       80.039       13.354        0.028      330.673       -1.804      874.145
01/16/2014  01:47:00      -70.191      -24.982       -7.567       16.075       18.858       12.115      258.399      355.633      146.774        0.318        0.038       74.505        6.132        0.007      330.699       -1.762      874.137
01/16/2014  01:48:00      -70.043      -12.225       -5.722       24.059       13.072       11.291      578.822      170.867      127.477        0.298        0.044       71.102       11.447        0.026      330.776       -1.634      874.126
01/16/2014  01:49:00      -95.506      -37.951       -7.115       13.625       15.072        9.277      185.639      227.170       86.072        0.556        0.025      102.770        4.232        0.002      330.733       -1.705      874.095
01/16/2014  01:50:00      -98.983      -57.793       -5.186       38.246       29.157       16.071     1462.739      850.130      258.287        0.787        0.129      114.619       13.617        0.014      330.755       -1.670      874.072
01/16/2014  01:51:00      -54.311      -54.269        6.921       33.490       24.218       19.763     1121.613      586.517      390.564        0.402        0.105       76.777       13.582        0.031      330.844       -1.524      874.068
01/16/2014  01:52:00      -39.775      -47.077       -2.817       36.711       29.306       14.826     1347.710      858.852      219.817        0.312        0.121       61.631       17.815        0.084      331.007       -1.255      874.090
01/16/2014  01:53:00      -57.094      -31.543        1.695       20.472       23.532       14.037      419.083      553.767      197.043        0.271        0.058       65.228       10.966        0.028      330.914       -1.408      874.106
01/16/2014  01:54:00      -12.449      -32.328        4.716       22.636       17.539       15.482      512.394      307.614      239.696        0.114        0.053       34.642        9.725        0.079      331.058       -1.171      874.101
01/16/2014  01:55:00      -52.524      -55.994       -2.492       28.559       26.092       12.815      815.594      680.800      164.236        0.378        0.083       76.773       10.897        0.020      330.888       -1.450      874.088
01/16/2014  01:56:00      -80.206      -38.850        6.602       43.158       22.220       17.863     1862.648      493.713      319.098        0.533        0.134       89.119       19.563        0.048      330.812       -1.574      874.091
01/16/2014  01:57:00      -86.903      -53.184       -4.313       31.143       25.081       19.935      969.862      629.033      397.397        0.620        0.100      101.885       12.454        0.015      330.824       -1.554      874.108
01/16/2014  01:58:00      -75.764      -32.213        0.617       28.087       20.239       17.363      788.882      409.615      301.482        0.414        0.075       82.327       16.204        0.039      330.821       -1.561      874.133
01/16/2014  01:59:00      -50.392      -37.171       -2.482       33.291       24.375       22.549     1108.290      594.152      508.452        0.307        0.111       62.618       20.103        0.103      330.868       -1.483      874.140
01/16/2014  02:00:00      -82.264      -57.582       -1.664       38.011       29.918       21.189     1444.819      895.069      448.954        0.644        0.139      100.414       15.665        0.024      330.798       -1.599      874.131
01/16/2014  02:01:00      -49.362      -47.859        0.027       25.739       25.942       16.981      662.474      673.013      288.356        0.318        0.081       68.754       12.541        0.033      330.777       -1.633      874.122
01/16/2014  02:02:00      -71.025      -57.545       -2.064       28.917       36.507       19.791      836.179     1332.732      391.690        0.546        0.128       91.411       15.754        0.030      330.721       -1.726      874.131
01/16/2014  02:03:00      -69.330      -52.586       -0.204       25.360       26.242       17.333      643.111      688.619      300.421        0.460        0.082       87.017       17.308        0.040      330.774       -1.638      874.163
01/16/2014  02:04:00      -63.345      -33.909       -3.138       32.430       15.952       14.795     1051.693      254.479      218.894        0.335        0.076       71.851        8.081        0.013      330.736       -1.701      874.186
01/16/2014  02:05:00      -81.851      -50.124       -5.995       27.759       24.126       13.518      770.588      582.074      182.728        0.539        0.077       95.979        9.050        0.009      330.781       -1.628      874.199
01/16/2014  02:06:00      -69.609      -47.475        1.065       30.501       21.646       16.334      930.320      468.568      266.791        0.438        0.083       84.257        9.790        0.014      330.737       -1.700      874.189
01/16/2014  02:07:00      -57.304      -31.160       -3.007       27.345       23.430       15.959      747.730      548.947      254.690        0.291        0.078       65.228       14.082        0.047      330.675       -1.799      874.184
01/16/2014  02:08:00      -36.119      -25.812        2.626       27.314       22.710       14.349      746.072      515.748      205.897        0.172        0.073       44.394       14.852        0.112      330.656       -1.831      874.191
01/16/2014  02:09:00      -42.371      -21.060        1.970       28.441       15.847       13.892      808.879      251.127      192.997        0.175        0.063       47.317       13.957        0.087      330.689       -1.777      874.210
01/16/2014  02:10:00      -50.929      -36.207        1.831       25.815       24.324       14.210      666.389      591.633      201.918        0.268        0.073       62.488       16.826        0.073      330.645       -1.849      874.218
01/16/2014  02:11:00      -35.687      -33.460       -0.738       27.540       15.762       11.751      758.456      248.428      138.074        0.177        0.057       48.920        8.821        0.033      330.638       -1.861      874.219
01/16/2014  02:12:00      -37.967      -26.209       -7.953       20.351       17.336        8.486      414.154      300.549       72.011        0.149        0.039       46.135        7.702        0.028      330.700       -1.759      874.214
01/16/2014  02:13:00       -5.965       -2.427        4.893       19.466       17.703       12.179      378.908      313.379      148.320        0.045        0.042        6.439       12.193        3.586      330.713       -1.738      874.197
01/16/2014  02:14:00      -22.367        2.451        5.001       28.424       18.650       15.174      807.943      347.819      230.240        0.096        0.069       22.501        7.726        0.118      330.691       -1.774      874.187
01/16/2014  02:15:00      -15.975       -6.214        9.218       19.463       15.038       12.748      378.808      226.151      162.518        0.057        0.038       17.141        6.305        0.135      330.679       -1.793      874.177
01/16/2014  02:16:00      -21.264      -13.333        5.776       30.658       14.433       11.783      939.902      208.301      138.846        0.097        0.064       25.098        9.272        0.136      330.669       -1.811      874.168
01/16/2014  02:17:00      -42.190      -24.598        9.855       26.317       18.412       12.971      692.570      338.992      168.239        0.184        0.060       48.837       14.150        0.084      330.626       -1.880      874.161
01/16/2014  02:18:00      -27.667      -16.490       11.038       27.051       24.153       14.490      731.765      583.389      209.961        0.134        0.076       32.208       16.042        0.248      330.739       -1.696      874.168
01/16/2014  02:19:00      -66.389      -23.702       -1.000       16.952       13.754        9.690      287.358      189.169       93.894        0.277        0.029       70.493        7.440        0.011      330.603       -1.919      874.182
01/16/2014  02:20:00      -52.049      -20.014       -4.221       18.820       15.806        9.187      354.210      249.825       84.406        0.191        0.034       55.764        6.396        0.013      330.598       -1.926      874.191
01/16/2014  02:21:00      -52.623      -11.604       -1.550       22.172       14.991       10.154      491.585      224.740      103.108        0.186        0.041       53.887        7.811        0.021      330.545       -2.013      874.192
01/16/2014  02:22:00      -64.968      -34.857       -4.397       19.978       19.341        9.990      399.116      374.078       99.804        0.316        0.044       73.729        8.371        0.013      330.458       -2.156      874.189
01/16/2014  02:23:00      -76.448       -8.349       -2.038       27.916       17.854       14.386      779.298      318.762      206.955        0.361        0.065       76.902       13.062        0.029      330.327       -2.372      874.202
01/16/2014  02:24:00      -74.364        3.607       -2.313       25.949       19.820       13.520      673.349      392.825      182.798        0.340        0.062       74.452       13.590        0.033      330.308       -2.402      874.220
01/16/2014  02:25:00      -85.135       15.723       -0.600       21.709       20.117       13.475      471.287      404.686      181.587        0.428        0.053       86.574        9.870        0.013      330.408       -2.239      874.236
01/16/2014  02:26:00      -54.884       -3.144       -2.747       17.661       10.996        8.774      311.906      120.911       76.991        0.177        0.025       54.973        5.476        0.010      330.407       -2.240      874.248
01/16/2014  02:27:00      -76.571        7.742       -9.019       15.026       12.250       10.422      225.780      150.057      108.624        0.324        0.024       76.961        4.362        0.003      330.417       -2.223      874.251
01/16/2014  02:28:00      -48.639       -7.602       -8.829       13.588       13.655        8.889      184.641      186.456       79.016        0.148        0.023       49.229        7.951        0.026      330.389       -2.269      874.260
01/16/2014  02:29:00      -61.864       -9.627      -10.222       12.021        9.092        9.775      144.511       82.667       95.551        0.217        0.016       62.608        5.262        0.007      330.399       -2.255      874.265
01/16/2014  02:30:00      -85.126       -0.163       -8.145       15.682       11.727       11.518      245.925      137.517      132.671        0.391        0.026       85.127        8.249        0.009      330.374       -2.293      874.265
01/16/2014  02:31:00      -74.650       -5.192       -8.342       21.681       12.906       10.296      470.086      166.555      106.011        0.321        0.037       74.830        9.810        0.017      330.349       -2.335      874.275
01/16/2014  02:32:00      -58.762       -6.987       -8.045       18.929       11.853       11.623      358.292      140.483      135.098        0.210        0.032       59.176       10.053        0.029      330.349       -2.336      874.297
01/16/2014  02:33:00      -44.710       -3.497       -7.374       12.996       15.047        9.555      168.896      226.399       91.293        0.128        0.024       44.847        7.957        0.031      330.312       -2.395      874.326
01/16/2014  02:34:00      -20.246       -0.656       -2.373       10.618        9.807        5.400      112.747       96.180       29.165        0.033        0.012       20.256        5.266        0.068      330.350       -2.334      874.344
01/16/2014  02:35:00      -34.503       -6.582      -10.501        6.612        6.983        6.465       43.717       48.756       41.798        0.074        0.007       35.126        3.356        0.009      330.399       -2.256      874.343
01/16/2014  02:36:00      -39.152      -22.327      -13.256       11.468       10.842        8.174      131.504      117.545       66.812        0.126        0.016       45.071        3.752        0.007      330.351       -2.332      874.339
01/16/2014  02:37:00      -48.648      -21.886       -6.050       20.275       11.287        9.143      411.061      127.393       83.587        0.175        0.031       53.345        4.792        0.008      330.237       -2.518      874.340
01/16/2014  02:38:00      -71.502       -4.227       -7.804       12.179        7.065        7.796      148.325       49.911       60.773        0.273        0.013       71.627        4.499        0.004      330.241       -2.512      874.345
01/16/2014  02:39:00      -77.057        4.065       -6.618       14.374        8.803        5.757      206.626       77.485       33.147        0.316        0.016       77.164        2.077        0.001      330.411       -2.233      874.354
01/16/2014  02:40:00      -59.115        3.330       -9.542       12.784        7.173        5.598      163.427       51.449       31.335        0.192        0.012       59.209        5.237        0.008      330.472       -2.133      874.353
01/16/2014  02:41:00      -50.512      -15.349       -6.277        5.941        8.673        5.344       35.290       75.215       28.555        0.148        0.007       52.793        1.744        0.001      330.482       -2.117      874.347
01/16/2014  02:42:00      -34.116      -22.154       -7.923       14.403        9.093       10.209      207.458       82.678      104.222        0.106        0.020       40.678        8.212        0.041      330.310       -2.398      874.340
01/16/2014  02:43:00      -62.340      -34.544       -1.823       23.549       15.310       10.682      554.563      234.411      114.104        0.299        0.045       71.271       10.253        0.021      330.234       -2.524      874.328
01/16/2014  02:44:00      -97.871      -22.370       -9.976       12.913       13.986        9.967      166.754      195.620       99.345        0.532        0.023      100.395        4.006        0.002      330.223       -2.540      874.326
01/16/2014  02:45:00      -93.312      -31.696       -6.313       14.490       12.385       11.663      209.947      153.397      136.026        0.513        0.025       98.548        9.449        0.009      330.172       -2.625      874.328
01/16/2014  02:46:00     -108.411      -13.060      -13.778       11.681       13.103        8.044      136.453      171.679       64.710        0.624        0.019      109.195        6.785        0.004      330.227       -2.534      874.325
01/16/2014  02:47:00     -114.896       -0.212      -15.343        7.317        7.613        7.426       53.544       57.954       55.150        0.680        0.008      114.896        3.725        0.001      330.249       -2.499      874.322
01/16/2014  02:48:00      -99.090       -4.481      -10.356       23.878       13.285       12.741      570.171      176.496      162.341        0.543        0.045       99.191       10.291        0.011      330.207       -2.568      874.328
01/16/2014  02:49:00      -90.325      -27.659      -10.581       22.981       19.184       11.764      528.104      368.016      138.387        0.503        0.052       94.465       11.700        0.015      330.200       -2.579      874.329
01/16/2014  02:50:00      -84.260      -37.483       -8.002       32.965       25.793       15.635     1086.714      665.293      244.465        0.528        0.100       92.221       16.298        0.031      330.154       -2.657      874.320
01/16/2014  02:51:00      -75.831      -12.756       -6.475       35.755       30.569       17.892     1278.433      934.448      320.110        0.424        0.127       76.897       17.624        0.053      330.066       -2.799      874.308
01/16/2014  02:52:00      -71.047        3.063       -0.800       32.071       29.531       16.316     1028.576      872.061      266.223        0.361        0.108       71.113       12.697        0.032      330.173       -2.623      874.307
01/16/2014  02:53:00      -76.797       14.141      -10.561       36.672       25.971       20.094     1344.859      674.499      403.778        0.432        0.121       78.088       20.476        0.069      330.165       -2.638      874.324
01/16/2014  02:54:00      -45.418       11.778       -6.434       18.669       18.622       13.456      348.550      346.795      181.071        0.156        0.044       46.920       11.387        0.059      330.184       -2.605      874.338
01/16/2014  02:55:00      -35.508      -25.037      -11.738       15.159       12.219        7.698      229.786      149.308       59.253        0.123        0.022       43.447        5.339        0.015      330.228       -2.532      874.328
01/16/2014  02:56:00      -61.928      -30.246      -12.993       17.760       17.232       13.072      315.435      296.959      170.887        0.285        0.039       68.920        7.499        0.012      330.221       -2.545      874.299
01/16/2014  02:57:00      -87.262      -24.239      -15.675       21.473       17.713       11.063      461.075      313.768      122.400        0.467        0.045       90.566        5.922        0.004      330.095       -2.752      874.280
01/16/2014  02:58:00      -93.122      -19.240      -18.342       25.061       19.003       16.076      628.044      361.111      258.449        0.531        0.062       95.089       12.112        0.016      330.021       -2.873      874.262
01/16/2014  02:59:00      -84.368      -19.164       -9.345       27.499       18.999       18.009      756.173      360.978      324.313        0.451        0.072       86.517       11.104        0.016      330.058       -2.812      874.258
01/16/2014  03:00:00     -110.396      -18.790      -16.799       17.891       17.064       12.723      320.074      291.196      161.864        0.680        0.039      111.983        8.790        0.006      330.004       -2.899      874.267
01/16/2014  03:01:00      -98.867      -10.769      -11.555       19.967       16.106       15.667      398.670      259.410      245.455        0.546        0.045       99.451       10.859        0.012      330.006       -2.897      874.288
01/16/2014  03:02:00     -113.459      -11.947      -18.771       12.602       12.408        8.560      158.811      153.964       73.265        0.688        0.019      114.087        5.871        0.003      330.061       -2.807      874.282
01/16/2014  03:03:00      -66.984       -3.437       -6.230       24.944       15.759       13.541      622.212      248.331      183.358        0.280        0.053       67.072       14.880        0.049      329.972       -2.954      874.290
01/16/2014  03:04:00      -77.469      -14.690       -9.505       24.910       17.647       16.039      620.487      311.429      257.240        0.375        0.059       78.850       15.249        0.037      330.126       -2.700      874.299
01/16/2014  03:05:00      -86.142      -15.972      -10.366       22.972       15.759       10.948      527.702      248.350      119.857        0.434        0.045       87.610        8.185        0.009      330.099       -2.747      874.300
01/16/2014  03:06:00     -137.084      -20.508      -16.861       16.726       16.227       12.552      279.746      263.326      157.541        1.010        0.035      138.609        9.080        0.004      330.062       -2.803      874.284
01/16/2014  03:07:00     -132.919      -29.314       -7.548       24.696       18.132       18.070      609.890      328.775      326.526        0.992        0.063      136.113       16.873        0.015      330.014       -2.885      874.269
01/16/2014  03:08:00     -119.075      -31.466      -11.797       15.573       18.050       12.069      242.520      325.793      145.652        0.801        0.036      123.162        8.052        0.004      330.017       -2.880      874.264
01/16/2014  03:09:00     -108.677      -15.006      -12.070       17.895       14.819       11.408      320.245      219.615      130.141        0.643        0.034      109.708       10.057        0.008      330.039       -2.845      874.281
01/16/2014  03:10:00     -130.957      -10.894      -20.299        8.865        8.915        6.368       78.591       79.469       40.557        0.894        0.010      131.409        1.448        0.000      330.158       -2.647      874.293
01/16/2014  03:11:00     -143.331       -7.525      -15.089       14.535       11.801        9.313      211.274      139.271       86.729        1.063        0.022      143.529        5.246        0.001      330.107       -2.731      874.287
01/16/2014  03:12:00     -131.440      -18.048      -12.386       20.822       16.850       16.180      433.551      283.931      261.788        0.937        0.049      132.673       14.290        0.012      330.085       -2.768      874.267
01/16/2014  03:13:00     -101.313      -32.376       -3.945       25.081       15.268       13.805      629.050      233.100      190.586        0.619        0.053      106.360       12.818        0.015      330.083       -2.772      874.258
01/16/2014  03:14:00      -85.566      -32.681       -2.100       32.198       18.615       11.228     1036.689      346.517      126.060        0.495        0.075       91.595       13.535        0.022      330.088       -2.764      874.257
01/16/2014  03:15:00      -85.413      -30.920       -4.640       22.686       17.226       11.428      514.673      296.735      130.597        0.461        0.047       90.837       11.384        0.016      330.077       -2.781      874.256
01/16/2014  03:16:00      -75.937      -39.399        1.377       20.576       20.416       13.494      423.374      416.815      182.077        0.417        0.051       85.550        9.223        0.012      330.133       -2.690      874.268
01/16/2014  03:17:00      -72.722      -30.409        1.649       27.758       21.353       15.427      770.488      455.954      237.985        0.384        0.073       78.823       13.646        0.030      330.082       -2.773      874.283
01/16/2014  03:18:00     -105.369      -16.069       -2.006       27.790       22.005       13.173      772.285      484.234      173.524        0.640        0.072      106.587       13.301        0.016      329.957       -2.976      874.281
01/16/2014  03:19:00     -123.981      -20.352       -4.262       26.407       19.418       17.138      697.353      377.062      293.725        0.859        0.068      125.640       12.801        0.010      329.869       -3.123      874.267
01/16/2014  03:20:00     -114.489      -43.797       -0.536       26.154       21.402       13.928      684.022      458.049      193.986        0.818        0.067      122.580       11.399        0.009      329.891       -3.087      874.252
01/16/2014  03:21:00     -117.568      -52.121        0.826       27.470       19.620       16.512      754.575      384.927      272.653        0.898        0.071      128.604       14.143        0.012      329.994       -2.917      874.258
01/16/2014  03:22:00      -94.801      -35.059       -5.458       21.268       18.463       17.187      452.345      340.896      295.398        0.567        0.054      101.076       14.774        0.021      330.004       -2.900      874.277
01/16/2014  03:23:00      -88.540      -25.833      -10.415       15.715       16.675       10.006      246.955      278.065      100.127        0.462        0.031       92.232        7.852        0.007      329.985       -2.932      874.290
01/16/2014  03:24:00      -99.524      -13.458      -10.642       19.701       15.149       13.654      388.123      229.489      186.430        0.550        0.040      100.430        8.359        0.007      330.037       -2.846      874.304
01/16/2014  03:25:00      -94.961      -16.457      -13.584       20.080       13.142       10.530      403.207      172.714      110.877        0.508        0.034       96.377        8.327        0.007      330.125       -2.704      874.326
01/16/2014  03:26:00      -98.357      -17.523       -8.076       14.184       13.815        8.990      201.174      190.848       80.829        0.526        0.024       99.906        6.602        0.004      330.169       -2.629      874.350
01/16/2014  03:27:00      -72.557      -27.965       -3.984       22.635       26.147       13.840      512.328      683.659      191.551        0.372        0.069       77.760       11.436        0.022      330.038       -2.845      874.368
01/16/2014  03:28:00     -112.771      -22.306      -12.271       18.112       12.389       10.819      328.047      153.490      117.046        0.698        0.030      114.956        9.569        0.007      330.072       -2.789      874.361
01/16/2014  03:29:00     -125.941      -34.914      -14.609       30.280       21.384       13.313      916.851      457.291      177.233        0.942        0.078      130.690       14.329        0.012      330.032       -2.856      874.354
01/16/2014  03:30:00     -161.088      -36.705      -13.647       19.947       22.267       16.377      397.895      495.832      268.217        1.432        0.058      165.217        8.356        0.003      329.923       -3.032      874.340
01/16/2014  03:31:00     -136.126      -43.499       -9.465       20.350       21.618       11.906      414.132      467.352      141.747        1.077        0.051      142.907       10.417        0.005      329.912       -3.052      874.333
01/16/2014  03:32:00     -114.396      -66.836      -14.190       16.796       13.258       13.562      282.106      175.767      183.915        0.920        0.032      132.490        7.591        0.003      329.845       -3.163      874.331
01/16/2014  03:33:00     -113.654      -60.623       -9.984       19.586       25.459       16.665      383.593      648.167      277.725        0.900        0.065      128.811       12.093        0.009      329.886       -3.094      874.326
01/16/2014  03:34:00     -126.815      -41.041      -11.305       28.777       26.693       15.731      828.113      712.542      247.462        0.984        0.089      133.291       11.746        0.008      329.817       -3.207      874.310
01/16/2014  03:35:00     -130.764      -25.627       -8.679       29.678       23.576       18.776      880.800      555.840      352.554        0.981        0.089      133.251       12.695        0.009      329.718       -3.369      874.297
01/16/2014  03:36:00     -106.922      -16.771       -2.229       35.212       28.775       19.202     1239.867      827.992      368.706        0.708        0.122      108.230       19.033        0.031      329.714       -3.374      874.286
01/16/2014  03:37:00      -91.338      -24.245       -0.421       50.613       43.426       28.494     2561.640     1885.808      811.917        0.709        0.263       94.501       28.413        0.090      329.834       -3.180      874.262
01/16/2014  03:38:00     -130.982       -6.026       -7.678       64.379       41.766       31.678     4144.658     1744.406     1003.522        1.207        0.345      131.120       34.762        0.070      329.896       -3.079      874.242
01/16/2014  03:39:00     -155.452       -1.542       -7.207       80.000       43.582       27.206     6400.058     1899.415      740.161        1.663        0.452      155.460       34.803        0.050      329.884       -3.100      874.233
01/16/2014  03:40:00      -54.974        0.722       -1.216       42.251       34.032       25.894     1785.128     1158.175      670.505        0.332        0.181       54.979       22.641        0.170      329.817       -3.206      874.240
01/16/2014  03:41:00      -99.299        4.717      -13.032       50.915       37.293       26.049     2592.364     1390.752      678.551        0.736        0.233       99.411       19.657        0.039      329.881       -3.103      874.243
01/16/2014  03:42:00     -144.359       -6.504      -16.994       30.671       47.583       20.375      940.725     2264.143      415.130        1.239        0.181      144.505        9.340        0.004      329.948       -2.991      874.236
01/16/2014  03:43:00      -99.781      -26.739       -0.904       49.205       55.413       29.062     2421.181     3070.560      844.601        0.850        0.317      103.302       26.082        0.064      329.887       -3.091      874.212
01/16/2014  03:44:00     -151.643        2.941      -10.587       72.598       42.755       32.071     5270.449     1827.968     1028.537        1.562        0.406      151.672       39.022        0.066      329.837       -3.175      874.197
01/16/2014  03:45:00     -145.975      -21.175       -8.236       53.363       41.457       27.804     2847.662     1718.696      773.053        1.358        0.267      147.503       28.412        0.037      329.807       -3.223      874.196
01/16/2014  03:46:00     -115.497        7.639      -13.084       44.878       38.465       27.821     2014.034     1479.531      773.988        0.892        0.213      115.749       26.185        0.051      329.918       -3.041      874.200
01/16/2014  03:47:00      -60.453      -11.599       -0.815       38.642       27.589       20.619     1493.204      761.145      425.145        0.323        0.134       61.556       18.562        0.091      329.931       -3.020      874.201
01/16/2014  03:48:00      -87.244      -33.879        3.400       33.265       39.824       20.428     1106.542     1585.990      417.321        0.594        0.155       93.591       11.556        0.015      329.985       -2.932      874.210
01/16/2014  03:49:00      -93.947      -35.729        6.575       48.566       45.334       26.813     2358.621     2055.199      718.915        0.764        0.257      100.511       18.998        0.036      329.985       -2.931      874.214
01/16/2014  03:50:00      -83.312      -20.698       -0.889       43.516       27.090       22.457     1893.681      733.842      504.335        0.525        0.157       85.844       23.922        0.078      329.980       -2.940      874.211
01/16/2014  03:51:00      -81.288      -54.967       -0.692       39.132       44.374       20.064     1531.322     1969.033      402.551        0.677        0.195       98.128       14.534        0.022      329.936       -3.014      874.216
01/16/2014  03:52:00      -47.292      -19.368        4.889       29.274       35.890       19.949      856.964     1288.076      397.957        0.259        0.127       51.104       14.095        0.076      329.938       -3.009      874.219
01/16/2014  03:53:00      -80.330      -21.671       -4.632       27.548       28.139       14.606      758.901      791.794      213.325        0.435        0.088       83.202       12.876        0.024      329.976       -2.947      874.213
01/16/2014  03:54:00      -45.690      -38.898        5.610       42.600       35.673       15.345     1814.756     1272.542      235.462        0.348        0.166       60.005       22.401        0.139      330.056       -2.815      874.202
01/16/2014  03:55:00      -98.533      -40.433      -10.323       18.072       10.618       10.344      326.585      112.736      106.992        0.600        0.027      106.507        8.993        0.007      329.892       -3.084      874.193
01/16/2014  03:56:00     -122.612      -30.924      -13.022       18.788       14.081        9.556      352.979      198.286       91.317        0.840        0.032      126.452        2.070        0.000      329.897       -3.076      874.182
01/16/2014  03:57:00      -92.862      -40.460       -8.548       13.097       17.657       13.763      171.519      311.771      189.424        0.550        0.034      101.293        8.061        0.006      329.900       -3.073      874.171
01/16/2014  03:58:00      -84.724      -44.543      -13.435       16.478       22.625        9.528      271.536      511.879       90.784        0.511        0.044       95.720        8.595        0.008      329.914       -3.050      874.159
01/16/2014  03:59:00      -68.278      -38.181      -10.065       18.489       19.515       12.225      341.832      380.850      149.449        0.355        0.044       78.228        5.911        0.006      329.999       -2.910      874.160
01/16/2014  04:00:00      -60.195      -12.090       -9.971        9.408       11.084        8.101       88.504      122.859       65.624        0.207        0.014       61.397        5.343        0.008      330.211       -2.561      874.174
01/16/2014  04:01:00      -58.273       -8.647      -12.562       12.596       12.682        6.271      158.653      160.842       39.331        0.199        0.018       58.911        4.366        0.005      330.521       -2.053      874.170
01/16/2014  04:02:00      -28.428      -19.336       -8.154       12.667       16.716       11.292      160.459      279.414      127.516        0.091        0.028       34.381        8.877        0.067      330.365       -2.309      874.153
01/16/2014  04:03:00      -56.726      -15.749      -11.213       13.779        9.289        6.700      189.859       86.282       44.884        0.196        0.016       58.872        2.767        0.002      330.078       -2.779      874.136
01/16/2014  04:04:00      -53.865      -26.302      -12.788       13.779       11.645       10.931      189.852      135.601      119.496        0.210        0.022       59.944        6.424        0.011      330.002       -2.904      874.113
01/16/2014  04:05:00      -62.245      -26.273      -19.987       11.353       11.143        8.736      128.885      124.175       76.313        0.265        0.016       67.563        2.032        0.001      329.972       -2.954      874.120
01/16/2014  04:06:00      -58.619      -20.063      -16.804       13.654       14.389       10.403      186.420      207.039      108.220        0.231        0.025       61.958        5.252        0.007      329.918       -3.042      874.141
01/16/2014  04:07:00      -87.700       -1.001      -11.777       11.813        8.408        8.906      139.552       70.700       79.325        0.406        0.014       87.706        5.969        0.005      329.787       -3.255      874.149
01/16/2014  04:08:00      -67.098       -6.296       -9.175       12.350        9.594        8.427      152.534       92.051       71.021        0.247        0.016       67.393        6.538        0.009      329.849       -3.156      874.144
01/16/2014  04:09:00      -36.723       -8.167       -2.480       11.893        7.562        7.433      141.448       57.189       55.248        0.084        0.013       37.620        6.369        0.029      329.813       -3.212      874.150
01/16/2014  04:10:00       -4.712      -10.319        4.214       12.200       14.352        7.200      148.847      205.978       51.840        0.028        0.020       11.344        7.524        0.440      330.003       -2.903      874.159
01/16/2014  04:11:00       -0.823       -0.179       13.610        5.948       11.612        7.465       35.376      134.845       55.734        0.021        0.011        0.842        6.889       66.981      330.034       -2.853      874.154
01/16/2014  04:12:00       25.562       20.178       16.486       13.616       11.199       12.716      185.393      125.420      161.704        0.090        0.024       32.566        9.283        0.081      330.065       -2.800      874.149
01/16/2014  04:13:00       46.942       34.713        9.257       19.308       15.481       14.937      372.800      239.667      223.116        0.216        0.042       58.383       12.522        0.046      330.014       -2.883      874.164
01/16/2014  04:14:00       54.091       33.158       -2.190        8.771        8.832        7.127       76.928       78.013       50.790        0.212        0.010       63.445        4.695        0.005      329.949       -2.991      874.171
01/16/2014  04:15:00       35.860       17.888        3.478       14.039       10.142        9.916      197.095      102.867       98.330        0.101        0.020       40.074        8.061        0.040      329.996       -2.913      874.180
01/16/2014  04:16:00       28.340       16.252        6.844        9.198        6.600        9.129       84.597       43.558       83.341        0.066        0.011       32.670        4.785        0.021      330.080       -2.778      874.180
01/16/2014  04:17:00       14.252        8.019        9.896       12.833        6.405        6.823      164.685       41.025       46.556        0.031        0.013       16.353        4.478        0.075      330.075       -2.784      874.181
01/16/2014  04:18:00        3.284        2.508        8.901       14.366        8.618        6.684      206.376       74.273       44.682        0.021        0.016        4.132        4.225        1.045      330.070       -2.792      874.192
01/16/2014  04:19:00        0.341       12.314       26.819        7.781       13.207        8.253       60.551      174.436       68.120        0.059        0.015       12.318        6.213        0.254      330.010       -2.890      874.205
01/16/2014  04:20:00       20.126       25.480       28.648       23.726       16.252       14.528      562.912      264.133      211.053        0.146        0.052       32.470       14.359        0.196      330.014       -2.884      874.235
01/16/2014  04:21:00       40.196       24.479       27.016       27.605       17.978       18.266      762.058      323.198      333.649        0.218        0.071       47.063       12.389        0.069      330.004       -2.900      874.256
01/16/2014  04:22:00       49.015       26.054       25.214       26.556       17.647       20.208      705.223      311.403      408.348        0.257        0.071       55.510       15.989        0.083      329.978       -2.943      874.264
01/16/2014  04:23:00        7.514       19.213       27.793       14.634       12.489        9.805      214.164      155.971       96.140        0.083        0.023       20.630        2.694        0.017      329.953       -2.985      874.270
01/16/2014  04:24:00        3.771       18.952       29.341       10.748       14.619        8.483      115.526      213.726       71.955        0.082        0.020       19.324        6.964        0.130      329.909       -3.056      874.275
01/16/2014  04:25:00       -5.911        3.664       13.053        6.062        8.583        6.422       36.750       73.670       41.243        0.019        0.008        6.954        5.205        0.560      329.840       -3.170      874.265
01/16/2014  04:26:00      -17.296      -12.839        9.431       16.277       12.112       11.410      264.942      146.697      130.198        0.055        0.027       21.540        9.445        0.192      329.824       -3.195      874.264
01/16/2014  04:27:00      -15.405       -2.240        2.909        9.290        4.399        5.148       86.296       19.353       26.499        0.019        0.007       15.567        5.495        0.125      329.650       -3.480      874.275
01/16/2014  04:28:00      -23.880       -6.265       -1.457        8.227        5.699        5.806       67.687       32.483       33.714        0.037        0.007       24.688        5.560        0.051      329.769       -3.285      874.284
01/16/2014  04:29:00      -45.015       -0.388       -2.925       11.606        7.269        6.335      134.707       52.845       40.130        0.113        0.011       45.016        5.526        0.015      329.696       -3.405      874.295
01/16/2014  04:30:00      -47.483       -3.018       -9.613        6.092        4.994        5.181       37.113       24.943       26.846        0.122        0.004       47.579        1.499        0.001      329.677       -3.436      874.297
01/16/2014  04:31:00      -56.315       -9.880       -7.548        9.871       10.992        7.245       97.428      120.818       52.497        0.180        0.014       57.175        3.383        0.004      329.701       -3.397      874.291
01/16/2014  04:32:00      -78.800      -27.588       -7.920       14.872       19.610       11.738      221.186      384.545      137.770        0.389        0.037       83.490        7.026        0.007      329.605       -3.553      874.280
01/16/2014  04:33:00      -74.273      -25.035        1.902       24.774       17.675       13.350      613.732      312.389      178.229        0.363        0.055       78.379       13.620        0.030      329.563       -3.621      874.269
01/16/2014  04:34:00      -70.745      -10.796        1.744       33.447       25.303       18.220     1118.689      640.223      331.969        0.361        0.105       71.564       16.948        0.056      329.489       -3.743      874.271
01/16/2014  04:35:00     -107.812      -15.254       -2.257       26.350       16.624       13.652      694.348      276.346      186.381        0.651        0.058      108.886       10.798        0.010      329.516       -3.698      874.274
01/16/2014  04:36:00      -96.496      -29.843        4.259       29.091       21.175       17.771      846.259      448.383      315.819        0.591        0.081      101.005       14.799        0.021      329.564       -3.622      874.259
01/16/2014  04:37:00     -119.225      -24.988        0.821       35.667       21.760       17.429     1272.122      473.476      303.755        0.844        0.102      121.815       17.134        0.020      329.532       -3.672      874.234
01/16/2014  04:38:00      -93.825      -34.315        3.963       39.315       31.910       16.969     1545.666     1018.241      287.949        0.642        0.143       99.904       13.516        0.018      329.559       -3.630      874.225
01/16/2014  04:39:00      -92.698      -19.495        4.579       36.737       24.506       16.065     1349.573      600.534      258.071        0.560        0.110       94.726       18.489        0.038      329.590       -3.579      874.232
01/16/2014  04:40:00      -66.605       -8.773        1.736       35.283       22.893       21.389     1244.888      524.069      457.483        0.337        0.111       67.180       21.445        0.102      329.592       -3.574      874.255
01/16/2014  04:41:00      -62.233      -24.327        7.533       31.264       26.045       18.641      977.407      678.360      347.500        0.326        0.100       66.818       17.226        0.066      329.614       -3.539      874.265
01/16/2014  04:42:00      -94.669      -34.454        1.967       31.864       18.854       16.358     1015.309      355.476      267.589        0.590        0.082      100.744       16.026        0.025      329.690       -3.416      874.268
01/16/2014  04:43:00      -89.369      -23.860        1.956       27.234       22.670       15.138      741.705      513.944      229.170        0.502        0.074       92.499       15.854        0.029      329.643       -3.492      874.253
01/16/2014  04:44:00      -89.230      -43.486        6.390       33.802       18.107       15.721     1142.590      327.868      247.137        0.581        0.086       99.262       15.971        0.026      329.684       -3.424      874.239
01/16/2014  04:45:00      -91.975      -40.119        1.859       34.365       18.859       16.023     1180.971      355.676      256.734        0.593        0.090      100.344       18.754        0.035      329.674       -3.441      874.222
01/16/2014  04:46:00     -110.560      -48.557       -4.872       21.389       18.419       13.713      457.506      339.241      188.051        0.779        0.049      120.753       10.224        0.007      329.705       -3.391      874.202
01/16/2014  04:47:00     -111.208      -42.963       -3.973       23.605       28.726       14.678      557.197      825.164      215.435        0.791        0.080      119.218        8.391        0.005      329.731       -3.348      874.186
01/16/2014  04:48:00     -104.916      -32.285       -7.401       34.123       22.581       18.375     1164.387      509.884      337.629        0.706        0.101      109.771       19.146        0.030      329.695       -3.407      874.192
01/16/2014  04:49:00      -80.032       -8.123        0.136       32.578       22.322       15.626     1061.356      498.257      244.175        0.414        0.090       80.443       16.371        0.041      329.563       -3.623      874.200
01/16/2014  04:50:00      -96.245       -7.742       -5.687       24.955       16.519       16.382      622.742      272.865      268.381        0.526        0.058       96.555       16.084        0.028      329.481       -3.756      874.206
01/16/2014  04:51:00      -83.160       -5.446       -8.016       18.279       19.006       17.249      334.134      361.235      297.513        0.400        0.050       83.338       10.654        0.016      329.484       -3.750      874.217
01/16/2014  04:52:00      -49.681      -13.016       -4.879       21.305       19.281       10.618      453.904      371.776      112.751        0.180        0.047       51.358        4.934        0.009      329.431       -3.839      874.226
01/16/2014  04:53:00      -36.273      -12.779       -5.813       29.499       18.008       14.235      870.181      324.282      202.625        0.145        0.070       38.458       12.146        0.100      329.449       -3.809      874.241
01/16/2014  04:54:00      -43.705       -6.733       -0.956       23.369       26.233       11.400      546.130      688.181      129.958        0.166        0.068       44.220        7.655        0.030      329.477       -3.762      874.243
01/16/2014  04:55:00      -33.544      -42.893       -4.010       24.539       17.496       16.192      602.143      306.098      262.167        0.208        0.059       54.452       15.188        0.078      329.602       -3.559      874.235
01/16/2014  04:56:00      -65.449      -40.268       -7.598       18.140       14.520       10.402      329.046      210.821      108.201        0.331        0.032       76.844        8.352        0.012      329.559       -3.629      874.213
01/16/2014  04:57:00      -87.326      -24.784      -10.144        9.188       14.509        9.898       84.415      210.505       97.967        0.437        0.020       90.775        6.513        0.005      329.449       -3.808      874.200
01/16/2014  04:58:00      -92.742      -31.361      -12.800       10.428       10.682        8.741      108.747      114.104       76.403        0.502        0.015       97.901        6.271        0.004      329.361       -3.952      874.188
01/16/2014  04:59:00     -112.150      -35.801      -12.960        9.388        8.868        7.505       88.131       78.644       56.322        0.713        0.011      117.725        3.828        0.001      329.314       -4.031      874.183
01/16/2014  05:00:00     -106.381      -41.489      -13.173       19.542       14.323       13.884      381.904      205.148      192.752        0.700        0.039      114.185       12.649        0.012      329.251       -4.134      874.192
01/16/2014  05:01:00     -102.350      -39.397       -8.779       18.563       21.560       12.756      344.599      464.850      162.703        0.654        0.049      109.671       10.181        0.009      329.210       -4.200      874.203
01/16/2014  05:02:00      -87.387      -27.960      -12.954       22.469       19.866       11.920      504.847      394.655      142.084        0.481        0.052       91.751        9.501        0.011      329.165       -4.272      874.203
01/16/2014  05:03:00      -82.127      -40.323       -4.830       18.136       22.480       14.909      328.912      505.351      222.275        0.473        0.053       91.492        9.173        0.010      329.237       -4.156      874.203
01/16/2014  05:04:00     -106.365      -34.530       -5.904       21.951       22.212       14.448      481.831      493.383      208.759        0.686        0.059      111.829        9.342        0.007      329.260       -4.118      874.204
01/16/2014  05:05:00     -112.452      -44.119       -7.350       17.613       25.326       13.075      310.223      641.411      170.950        0.788        0.056      120.797        9.528        0.006      329.225       -4.174      874.197
01/16/2014  05:06:00     -113.813      -46.273      -12.594       23.461       21.250       17.480      550.403      451.578      305.554        0.828        0.065      122.860        7.221        0.003      329.160       -4.283      874.189
01/16/2014  05:07:00     -145.560      -55.171      -16.273       22.770       28.366       16.448      518.456      804.658      270.530        1.304        0.080      155.665        9.738        0.004      329.174       -4.258      874.171
01/16/2014  05:08:00      -97.372      -39.926       -4.996       29.988       45.603       20.132      899.307     2079.598      405.301        0.724        0.169      105.240       10.633        0.010      329.198       -4.219      874.158
01/16/2014  05:09:00      -79.112      -15.058       -1.020       51.738       38.752       21.570     2676.865     1501.719      465.259        0.556        0.232       80.532       22.693        0.079      329.157       -4.287      874.144
01/16/2014  05:10:00      -71.396      -33.321       -6.900       43.767       35.275       18.392     1915.584     1244.342      338.283        0.488        0.175       78.789       13.654        0.030      329.183       -4.243      874.138
01/16/2014  05:11:00      -90.367      -45.490       -0.186       36.161       25.694       19.712     1307.610      660.188      388.581        0.630        0.118      101.171       11.816        0.014      329.197       -4.220      874.123
01/16/2014  05:12:00      -95.621      -48.208       -6.766       37.914       31.212       19.478     1437.437      974.191      379.406        0.715        0.140      107.086       20.808        0.038      329.195       -4.223      874.107
01/16/2014  05:13:00     -128.526      -44.043      -14.115       34.605       30.645       14.718     1197.494      939.101      216.606        1.051        0.118      135.863       10.657        0.006      329.188       -4.237      874.078
01/16/2014  05:14:00     -153.265      -33.581      -18.794       39.126       39.522       18.842     1530.842     1561.954      355.008        1.421        0.172      156.901       14.670        0.009      329.200       -4.216      874.059
01/16/2014  05:15:00     -105.543      -13.942        0.131       33.113       28.387       24.959     1096.490      805.801      622.928        0.693        0.126      106.460       22.371        0.044      329.130       -4.332      874.049
01/16/2014  05:16:00      -83.210      -18.051        1.528       28.768       28.351       17.031      827.623      803.769      290.052        0.459        0.096       85.145       14.261        0.028      329.200       -4.215      874.039
01/16/2014  05:17:00      -54.070      -28.360        3.572       30.463       25.027       13.434      928.014      626.347      180.484        0.274        0.087       61.056       12.773        0.044      329.281       -4.084      874.042
01/16/2014  05:18:00      -37.829      -23.945       -5.316       15.938       17.271        9.582      254.005      298.272       91.807        0.134        0.032       44.771        5.645        0.016      329.356       -3.962      874.054
01/16/2014  05:19:00      -31.977      -31.923       -5.912       23.762       14.542        7.538      564.615      211.459       56.816        0.145        0.042       45.184       11.381        0.063      329.398       -3.892      874.075
01/16/2014  05:20:00        1.164      -17.971       -1.555       11.980       11.189       11.755      143.509      125.199      138.183        0.037        0.020       18.009        8.529        0.224      329.556       -3.635      874.092
01/16/2014  05:21:00      -15.321      -12.989        5.694       12.294       11.533        6.636      151.140      133.020       44.037        0.038        0.016       20.086        3.527        0.031      329.600       -3.561      874.095
01/16/2014  05:22:00      -20.482      -22.481        1.895       10.349        9.220        7.593      107.102       85.002       57.647        0.059        0.012       30.412        6.693        0.048      329.653       -3.475      874.103
01/16/2014  05:23:00       -5.268      -41.470       -2.521       10.424       11.409       12.185      108.656      130.164      148.467        0.107        0.019       41.804        6.792        0.026      329.775       -3.275      874.092
01/16/2014  05:24:00      -32.860      -16.570       -1.726       15.935       11.647        8.255      253.917      135.658       68.150        0.091        0.023       36.801        5.115        0.019      329.650       -3.478      874.083
01/16/2014  05:25:00      -29.648      -13.774        4.699       12.025        6.063        5.347      144.597       36.760       28.596        0.065        0.010       32.691        4.994        0.023      329.500       -3.726      874.088
01/16/2014  05:26:00      -27.997      -11.793        3.416        9.609        7.616        9.572       92.330       58.008       91.623        0.059        0.012       30.379        5.891        0.038      329.648       -3.485      874.083
01/16/2014  05:27:00      -41.974      -17.448       -3.617        8.824        8.115        4.571       77.867       65.861       20.898        0.112        0.008       45.456        3.908        0.007      329.706       -3.388      874.071
01/16/2014  05:28:00      -40.393       -9.903       -4.406        4.483        9.743        4.171       20.102       94.924       17.400        0.094        0.007       41.589        2.045        0.002      329.686       -3.420      874.067
01/16/2014  05:29:00      -47.216      -10.052       -6.227       10.032        6.795        5.793      100.639       46.175       33.560        0.127        0.009       48.275        4.246        0.008      329.702       -3.395      874.058
01/16/2014  05:30:00      -49.001      -15.538       -5.795        7.563        7.422        7.258       57.203       55.081       52.685        0.142        0.008       51.406        4.714        0.008      329.626       -3.519      874.066
01/16/2014  05:31:00      -65.061      -20.730       -6.785        9.550        9.363        7.712       91.199       87.665       59.475        0.247        0.012       68.284        6.108        0.008      329.609       -3.549      874.049
01/16/2014  05:32:00      -83.493      -17.809       -9.510       12.287        9.127        8.092      150.968       83.307       65.487        0.384        0.015       85.371        6.519        0.006      329.430       -3.840      874.023
01/16/2014  05:33:00      -91.304      -32.188       -9.095       12.552       10.304        8.410      157.561      106.166       70.735        0.489        0.017       96.811        3.973        0.002      329.408       -3.877      873.998
01/16/2014  05:34:00     -100.348      -31.359       -8.145       18.102       13.715        9.986      327.674      188.104       99.728        0.587        0.031      105.134        8.050        0.006      329.466       -3.782      874.000
01/16/2014  05:35:00     -103.489      -30.139       -9.688       19.833       16.401       12.245      393.341      268.991      149.936        0.626        0.041      107.789       11.082        0.011      329.415       -3.865      874.004
01/16/2014  05:36:00      -94.839      -25.184        1.621       31.095       17.529       15.058      966.915      307.276      226.744        0.557        0.075       98.126       15.467        0.025      329.281       -4.083      874.007
01/16/2014  05:37:00     -111.691      -13.798       -8.234       33.788       16.071       13.869     1141.603      258.270      192.348        0.716        0.080      112.540       14.501        0.017      329.204       -4.208      874.005
01/16/2014  05:38:00     -140.828      -18.491      -14.142       23.354       17.810       16.332      545.414      317.206      266.742        1.075        0.056      142.036       13.688        0.009      329.131       -4.330      873.987
01/16/2014  05:39:00     -125.423      -15.468       -8.775       40.746       22.461       22.257     1660.215      504.504      495.369        0.935        0.133      126.373       22.068        0.030      329.125       -4.339      873.963
01/16/2014  05:40:00     -133.021      -16.215       -4.347       37.124       24.837       20.525     1378.200      616.862      421.261        1.020        0.121      134.006       22.357        0.028      329.056       -4.451      873.939
01/16/2014  05:41:00     -119.490      -10.031       -1.979       39.721       30.044       22.701     1577.723      902.663      515.350        0.869        0.150      119.911       23.323        0.038      328.990       -4.558      873.930
01/16/2014  05:42:00     -121.730      -30.170       -7.580       25.614       23.403       17.512      656.084      547.720      306.683        0.865        0.076      125.413       13.484        0.012      328.996       -4.549      873.933
01/16/2014  05:43:00     -110.986      -23.020       -3.906       36.197       25.199       15.045     1310.246      634.969      226.365        0.752        0.109      113.348       16.966        0.022      329.043       -4.471      873.937
01/16/2014  05:44:00      -91.550      -35.903       -5.962       25.156       23.264       17.489      632.799      541.228      305.882        0.559        0.074       98.339       12.073        0.015      329.185       -4.241      873.941
01/16/2014  05:45:00      -89.803      -29.490       -5.392       15.712       18.480       11.539      246.851      341.528      133.150        0.484        0.036       94.521        8.073        0.007      329.304       -4.045      873.942
01/16/2014  05:46:00      -95.977      -33.778       -3.772       15.737       15.258       11.607      247.664      232.798      134.716        0.549        0.031      101.747        8.959        0.008      329.384       -3.916      873.932
01/16/2014  05:47:00      -92.876      -40.504       -4.877       13.940       15.323        8.239      194.336      234.804       67.883        0.539        0.025      101.324        5.302        0.003      329.321       -4.020      873.934
01/16/2014  05:48:00      -80.360      -31.353       -5.464       12.883       15.483        6.748      165.980      239.724       45.542        0.396        0.023       86.259        3.887        0.002      329.269       -4.103      873.928
01/16/2014  05:49:00      -82.909      -32.944      -14.565        8.211       10.709        7.113       67.419      114.682       50.592        0.420        0.012       89.215        4.560        0.003      329.295       -4.060      873.910
01/16/2014  05:50:00      -99.661       -7.443       -8.940       13.126       11.365        7.682      172.283      129.158       59.007        0.521        0.018       99.938        2.595        0.001      329.348       -3.976      873.892
01/16/2014  05:51:00      -65.167      -22.277       -1.875       22.168       10.474       10.401      491.424      109.710      108.171        0.273        0.035       68.869       10.840        0.025      329.330       -4.004      873.886
01/16/2014  05:52:00      -63.255      -15.478       -4.122       11.807       13.437       12.348      139.395      180.559      152.469        0.237        0.024       65.122        9.986        0.024      329.410       -3.872      873.899
01/16/2014  05:53:00      -75.346      -16.538      -10.390       13.542       12.285        8.445      183.379      150.931       71.322        0.323        0.020       77.139        6.785        0.008      329.440       -3.822      873.906
01/16/2014  05:54:00      -96.386       -2.828       -7.445       15.029       11.642       12.605      225.871      135.546      158.881        0.494        0.026       96.428        9.225        0.009      329.413       -3.868      873.917
01/16/2014  05:55:00      -59.952       -4.717       -7.291       17.420       11.049       10.311      303.440      122.074      106.326        0.210        0.027       60.137        7.886        0.017      329.368       -3.942      873.944
01/16/2014  05:56:00      -42.185      -12.177       -7.354       13.639       11.551        8.785      186.025      133.424       77.179        0.119        0.020       43.908        5.940        0.018      329.417       -3.863      873.956
01/16/2014  05:57:00      -59.190      -13.019       -8.725        8.334        9.171        7.541       69.450       84.101       56.862        0.198        0.011       60.605        2.576        0.002      329.448       -3.809      873.958
01/16/2014  05:58:00      -43.219      -12.724       -8.249       15.512       10.681        7.006      240.634      114.077       49.083        0.125        0.020       45.053        6.147        0.019      329.397       -3.895      873.952
01/16/2014  05:59:00      -48.962      -23.347       -6.404        9.243        8.548        7.734       85.424       73.075       59.818        0.160        0.011       54.244        4.642        0.007      329.374       -3.932      873.947
01/16/2014  06:00:00      -49.070      -22.501       -3.323       11.861       11.059        7.974      140.678      122.308       63.585        0.163        0.016       53.983        6.779        0.016      329.337       -3.992      873.930
01/16/2014  06:01:00      -57.839      -13.355      -11.130       10.842        8.450        6.843      117.548       71.407       46.833        0.194        0.012       59.361        4.433        0.006      329.302       -4.049      873.913
01/16/2014  06:02:00      -45.599      -20.104      -10.216       16.658       10.589       11.609      277.485      112.121      134.770        0.156        0.026       49.834        5.788        0.013      329.261       -4.116      873.908
01/16/2014  06:03:00      -33.314      -16.352       -7.986       25.301        9.003        8.235      640.122       81.047       67.810        0.111        0.039       37.111        5.339        0.021      329.216       -4.189      873.919
01/16/2014  06:04:00      -46.524       -9.963       -1.279       13.201        9.421        9.153      174.258       88.747       83.779        0.131        0.017       47.579        8.011        0.028      329.211       -4.200      873.928
01/16/2014  06:05:00      -27.185      -14.949       -6.886       21.814       12.651        6.827      475.861      160.060       46.603        0.085        0.034       31.024        5.933        0.037      329.238       -4.152      873.926
01/16/2014  06:06:00      -48.304      -16.231      -10.850       13.660       15.678       11.743      186.584      245.790      137.897        0.164        0.029       50.958        7.356        0.021      329.110       -4.364      873.912
01/16/2014  06:07:00      -75.457      -11.800       -9.845       19.833       14.673       13.312      393.331      215.300      177.205        0.336        0.039       76.374        3.651        0.002      329.012       -4.523      873.905
01/16/2014  06:08:00      -57.296      -11.449       -6.647       13.141       10.436        7.145      172.683      108.913       51.045        0.190        0.017       58.429        6.571        0.013      329.070       -4.427      873.916
01/16/2014  06:09:00      -21.547       -5.192       -2.569       14.630        9.768        4.935      214.024       95.417       24.356        0.042        0.017       22.164        6.452        0.085      329.151       -4.298      873.940
01/16/2014  06:10:00       23.035       26.651       -3.960        7.071        8.310        4.771       49.994       69.052       22.766        0.070        0.007       35.227        2.258        0.004      329.459       -3.792      873.957
01/16/2014  06:11:00       22.111       19.707       -1.205        9.203       10.503        8.070       84.701      110.319       65.119        0.057        0.013       29.618        6.944        0.055      329.445       -3.816      873.953
01/16/2014  06:12:00       12.726        8.689       -2.107        4.801        7.135        6.648       23.054       50.914       44.197        0.018        0.006       15.410        2.289        0.022      329.507       -3.715      873.950
01/16/2014  06:13:00       17.440        1.475       11.150       11.537       10.158       11.937      133.107      103.182      142.491        0.040        0.019       17.502        7.358        0.177      329.525       -3.683      873.959
01/16/2014  06:14:00        5.589       11.992        9.255        8.941       15.943        7.496       79.941      254.194       56.191        0.033        0.020       13.231        9.382        0.503      329.453       -3.802      873.977
01/16/2014  06:15:00       15.711       41.618       -6.957        9.084       16.652        7.461       82.525      277.292       55.661        0.122        0.021       44.485        5.767        0.017      329.521       -3.692      873.982
01/16/2014  06:16:00        7.084       65.389       -6.866       10.097       10.963        5.423      101.956      120.196       29.405        0.231        0.013       65.771        4.687        0.005      329.503       -3.720      873.982
01/16/2014  06:17:00       -0.687       81.219       -7.452        6.693       10.017        7.656       44.790      100.332       58.614        0.343        0.010       81.222        2.996        0.001      329.580       -3.595      873.983
01/16/2014  06:18:00        7.896       77.868      -10.078        7.703        8.989        5.137       59.343       80.800       26.386        0.320        0.008       78.267        3.416        0.002      329.590       -3.579      873.978
01/16/2014  06:19:00       -1.256       63.501       -9.089        6.815       11.165        5.516       46.445      124.649       30.424        0.216        0.010       63.514        3.470        0.003      329.606       -3.552      873.974
01/16/2014  06:20:00      -18.034        6.414       -0.118       16.526       24.012        5.270      273.113      576.566       27.778        0.062        0.044       19.141        7.056        0.136      329.499       -3.725      873.981
01/16/2014  06:21:00      -34.070       -0.733       -7.027       10.749       10.359        7.425      115.540      107.304       55.135        0.074        0.014       34.078        4.714        0.019      329.368       -3.940      873.991
01/16/2014  06:22:00      -46.379       -4.842      -11.504        7.309       10.177        7.600       53.427      103.569       57.767        0.126        0.011       46.631        5.328        0.013      329.229       -4.170      873.979
01/16/2014  06:23:00      -82.621      -16.715      -11.926       13.540        9.834        7.595      183.318       96.700       57.687        0.379        0.017       84.295        3.236        0.001      329.194       -4.227      873.956
01/16/2014  06:24:00     -106.213      -13.396      -16.284       19.181       16.974       10.781      367.920      288.114      116.220        0.625        0.039      107.055        5.188        0.002      329.070       -4.429      873.921
01/16/2014  06:25:00     -105.080      -12.273      -12.599       12.152       11.746        8.447      147.667      137.970       71.355        0.585        0.018      105.794        3.626        0.001      329.042       -4.474      873.912
01/16/2014  06:26:00      -73.187      -27.458      -11.950       16.554       14.104       10.575      274.035      198.920      111.825        0.342        0.029       78.168        7.664        0.010      329.122       -4.343      873.912
01/16/2014  06:27:00      -52.028      -10.657       -6.159       14.159       11.885       13.220      200.469      141.244      174.757        0.169        0.026       53.108        8.065        0.023      329.152       -4.295      873.934
01/16/2014  06:28:00      -51.903      -32.555       -0.975       16.463       12.112       12.104      271.021      146.706      146.496        0.216        0.028       61.267        7.527        0.015      329.212       -4.196      873.958
01/16/2014  06:29:00      -75.684      -24.026       -4.491       19.127       10.988        7.351      365.845      120.745       54.038        0.343        0.027       79.406        6.912        0.008      329.295       -4.062      873.975
01/16/2014  06:30:00      -62.676      -18.087       -2.331       11.665       10.164       10.077      136.078      103.298      101.552        0.230        0.017       65.234        7.031        0.012      329.293       -4.065      873.985
01/16/2014  06:31:00      -39.742       -7.317       -5.518       13.970        7.698        5.808      195.169       59.252       33.734        0.098        0.014       40.410        5.993        0.022      329.303       -4.050      873.992
01/16/2014  06:32:00      -46.259       -4.117       -5.034       12.321        9.802        8.074      151.812       96.088       65.193        0.125        0.016       46.442        4.415        0.009      329.301       -4.053      874.001
01/16/2014  06:33:00      -34.915       -4.596       -6.418        7.645        5.516        7.324       58.447       30.430       53.634        0.071        0.007       35.216        4.638        0.017      329.375       -3.930      873.997
01/16/2014  06:34:00      -41.973       -7.678       -9.199        8.350        8.670        6.638       69.714       75.168       44.057        0.105        0.009       42.669        5.944        0.019      329.411       -3.871      873.988
01/16/2014  06:35:00      -60.881       -5.647       -8.472        8.638        6.819        8.443       74.613       46.494       71.287        0.200        0.010       61.142        5.993        0.010      329.285       -4.079      873.997
01/16/2014  06:36:00      -69.422      -10.389       -9.048       11.684       13.713        8.610      136.505      188.055       74.129        0.270        0.020       70.195        5.080        0.005      329.242       -4.147      874.005
01/16/2014  06:37:00      -76.855      -21.422       -3.618       19.899       15.518        8.298      395.984      240.803       68.857        0.354        0.035       79.784        7.486        0.009      329.297       -4.059      874.021
01/16/2014  06:38:00      -88.509      -25.287       -2.263       14.748       15.105        8.698      217.499      228.155       75.662        0.450        0.026       92.051        4.944        0.003      329.350       -3.971      874.022
01/16/2014  06:39:00      -96.300      -32.248       -5.857       18.840       18.216       10.675      354.948      331.819      113.955        0.557        0.040      101.556       10.044        0.010      329.353       -3.966      873.998
01/16/2014  06:40:00     -108.989      -44.311       -5.088       17.487       16.775       10.582      305.791      281.414      111.987        0.728        0.035      117.652        7.159        0.004      329.314       -4.030      873.976
01/16/2014  06:41:00      -66.822      -31.711       -0.347       25.811       23.931       13.907      666.214      572.673      193.404        0.345        0.072       73.964       12.642        0.029      329.244       -4.144      873.969
01/16/2014  06:42:00      -59.304      -33.064       -5.013       26.557       14.907       10.942      705.263      222.216      119.723        0.284        0.052       67.899       10.768        0.025      329.356       -3.961      873.980
01/16/2014  06:43:00      -48.202      -39.034       -2.675       11.347       10.180        9.989      128.744      103.631       99.786        0.209        0.017       62.025        3.503        0.003      329.409       -3.875      873.997
01/16/2014  06:44:00      -46.851      -28.655       -2.288       10.778        9.609        7.741      116.161       92.340       59.930        0.164        0.013       54.919        4.068        0.005      329.399       -3.890      874.006
01/16/2014  06:45:00      -48.191      -15.589       -1.612        7.341        9.666        6.691       53.887       93.428       44.771        0.138        0.010       50.650        2.434        0.002      329.343       -3.983      874.006
01/16/2014  06:46:00      -59.313      -22.539       -4.195        9.254        9.444        6.353       85.646       89.187       40.364        0.213        0.011       63.451        5.215        0.007      329.346       -3.977      873.998
01/16/2014  06:47:00      -81.730      -22.563       -9.152       10.423        7.166        6.138      108.647       51.357       37.681        0.374        0.010       84.787        5.058        0.004      329.267       -4.105      873.988
01/16/2014  06:48:00      -96.265      -34.547       -4.704       15.911       12.745        8.770      253.156      162.430       76.912        0.549        0.025      102.277        6.464        0.004      329.266       -4.107      874.007
01/16/2014  06:49:00      -60.552      -38.227       -9.658       15.833       12.506       13.409      250.697      156.404      179.791        0.290        0.029       71.609        8.690        0.015      329.218       -4.185      874.028
01/16/2014  06:50:00      -70.425      -19.085       -7.224       19.449       13.796       11.122      378.273      190.333      123.690        0.303        0.035       72.965        8.644        0.014      329.247       -4.138      874.048
01/16/2014  06:51:00      -64.427      -20.112       -1.042       16.937       13.610       12.244      286.848      185.229      149.913        0.259        0.031       67.493        9.180        0.019      329.188       -4.236      874.049
01/16/2014  06:52:00      -68.892      -11.362       -2.786       24.016       13.838       13.231      576.749      191.498      175.055        0.291        0.047       69.823       13.295        0.036      329.150       -4.296      874.042
01/16/2014  06:53:00      -73.208      -14.685       -0.120       16.061       14.828        9.429      257.959      219.878       88.905        0.307        0.028       74.666        4.242        0.003      329.168       -4.268      874.041
01/16/2014  06:54:00      -71.471       -8.458       -0.179       20.762       20.890       15.820      431.068      436.399      250.282        0.315        0.056       71.969       13.876        0.037      329.117       -4.352      874.044
01/16/2014  06:55:00     -104.917       -4.760       -7.250       23.248       16.338       11.260      540.484      266.942      126.781        0.601        0.047      105.025       10.245        0.010      329.107       -4.369      874.041
01/16/2014  06:56:00      -96.037      -10.055       -6.761       21.051       15.055       11.365      443.159      226.647      129.160        0.508        0.040       96.562       10.758        0.012      329.094       -4.388      874.052
01/16/2014  06:57:00      -96.810      -15.113       -2.137       29.742       18.111       17.110      884.578      327.998      292.735        0.555        0.075       97.982       16.591        0.029      329.032       -4.491      874.047
01/16/2014  06:58:00     -100.726      -26.442       -3.221       16.570       16.114       14.892      274.568      259.667      221.762        0.581        0.038      104.138        9.272        0.008      329.061       -4.443      874.042
01/16/2014  06:59:00      -70.673      -21.662       -1.643       21.270       16.460       12.146      452.431      270.928      147.517        0.317        0.044       73.918        9.195        0.015      329.046       -4.466      874.052
01/16/2014  07:00:00      -48.970        0.115       -2.459       20.126       20.325        9.768      405.069      413.123       95.420        0.166        0.046       48.970        6.145        0.016      329.082       -4.411      874.075
01/16/2014  07:01:00      -27.589       -7.389       -2.507       14.184        9.825        7.482      201.199       96.538       55.978        0.059        0.018       28.561        6.359        0.050      329.183       -4.244      874.112
01/16/2014  07:02:00      -30.232       -4.956       -4.755       16.763        6.155        7.070      280.986       37.879       49.979        0.066        0.018       30.636        5.399        0.031      329.283       -4.080      874.131
01/16/2014  07:03:00      -73.955       -2.094       -7.693       13.077       11.061        9.188      171.019      122.355       84.424        0.296        0.019       73.985        6.015        0.007      329.309       -4.037      874.133
01/16/2014  07:04:00      -55.415      -16.262       -6.325       21.141       11.484        8.252      446.921      131.889       68.097        0.201        0.032       57.752        9.923        0.030      329.188       -4.235      874.125
01/16/2014  07:05:00      -50.496       -6.246        1.738       28.329       13.167       11.014      802.516      173.378      121.318        0.184        0.055       50.880        9.905        0.038      329.133       -4.326      874.129
01/16/2014  07:06:00      -86.964        4.892       -6.646       16.477       13.433        8.836      271.477      180.446       78.076        0.408        0.026       87.102        6.955        0.006      329.201       -4.214      874.131
01/16/2014  07:07:00      -55.411       -6.143       -5.213       29.155       14.847       14.575      850.023      220.427      212.433        0.221        0.064       55.750       17.696        0.101      329.126       -4.339      874.131
01/16/2014  07:08:00      -64.603       -5.922       -4.052       25.092       18.811       13.857      629.588      353.861      192.010        0.270        0.059       64.874       12.906        0.040      329.130       -4.330      874.140
01/16/2014  07:09:00      -55.542       -6.852       -0.748       31.635       21.227       16.680     1000.796      450.577      278.213        0.243        0.086       55.963       14.389        0.066      329.093       -4.390      874.140
01/16/2014  07:10:00      -44.054       -8.517       -0.457       23.529       25.472       15.157      553.593      648.840      229.730        0.172        0.072       44.870       12.719        0.080      329.023       -4.505      874.137
01/16/2014  07:11:00      -66.270       -9.849       -3.797       25.590       18.918       11.795      654.841      357.896      139.125        0.283        0.058       66.998       10.314        0.024      329.017       -4.515      874.153
01/16/2014  07:12:00      -56.509       -8.074        3.193       18.275       17.896       12.854      333.966      320.268      165.220        0.204        0.041       57.083       12.299        0.046      329.051       -4.458      874.182
01/16/2014  07:13:00      -56.295       -9.774       -2.124       11.387       10.147        8.222      129.656      102.952       67.609        0.178        0.015       57.137        5.348        0.009      329.046       -4.467      874.212
01/16/2014  07:14:00      -44.190      -24.999       -8.448        9.124        7.317        7.475       83.247       53.532       55.880        0.142        0.010       50.771        4.988        0.010      329.192       -4.228      874.241
01/16/2014  07:15:00      -52.651      -21.369      -11.437        9.163        8.405        5.139       83.968       70.648       26.408        0.177        0.009       56.823        4.097        0.005      329.265       -4.108      874.263
01/16/2014  07:16:00      -31.215      -22.122       -2.239       20.787        9.104       11.415      432.099       82.882      130.304        0.106        0.032       38.259        9.948        0.068      329.311       -4.036      874.278
01/16/2014  07:17:00       -6.069      -14.690        8.246       11.706       11.566       12.841      137.021      133.778      164.902        0.038        0.022       15.894        9.798        0.380      329.263       -4.113      874.287
01/16/2014  07:18:00      -28.424      -12.806       -0.252        8.548        6.010       11.754       73.073       36.116      138.148        0.061        0.012       31.176        5.789        0.034      329.187       -4.238      874.315
01/16/2014  07:19:00      -30.479       -8.960       -8.051        4.767        7.704        7.170       22.720       59.350       51.405        0.060        0.007       31.768        2.295        0.005      329.255       -4.124      874.332
01/16/2014  07:20:00      -43.551       -9.540       -9.638       13.100        6.990        6.603      171.623       48.854       43.597        0.117        0.013       44.584        5.746        0.017      329.229       -4.167      874.344
01/16/2014  07:21:00      -70.739       -6.940      -10.336       11.344        8.202        7.064      128.691       67.265       49.904        0.270        0.012       71.079        5.234        0.005      329.232       -4.162      874.361
01/16/2014  07:22:00      -71.387       -9.194      -12.269       11.753        8.786        7.395      138.128       77.190       54.685        0.280        0.014       71.976        4.617        0.004      329.204       -4.208      874.362
01/16/2014  07:23:00      -74.347      -20.396       -7.415       19.303       12.524       12.276      372.621      156.848      150.709        0.334        0.034       77.094       10.851        0.020      329.139       -4.316      874.348
01/16/2014  07:24:00     -113.160      -16.811       -8.379       17.135       14.271       11.818      293.613      203.666      139.654        0.690        0.032      114.402        9.304        0.007      328.997       -4.548      874.330
01/16/2014  07:25:00     -129.482       -9.956      -12.774       19.286       14.192       11.968      371.936      201.427      143.242        0.887        0.036      129.865        2.852        0.000      328.943       -4.635      874.328
01/16/2014  07:26:00      -97.069       -2.028       -4.809       30.772       22.859       17.824      946.891      522.548      317.701        0.562        0.089       97.090       17.559        0.033      328.888       -4.726      874.340
01/16/2014  07:27:00      -74.969       -4.833       -0.807       35.194       22.620       18.809     1238.627      511.659      353.783        0.387        0.105       75.124       14.307        0.036      328.822       -4.832      874.361
01/16/2014  07:28:00      -87.944      -10.969       -4.098       39.956       29.313       18.504     1596.493      859.281      342.388        0.533        0.140       88.625       18.354        0.043      328.826       -4.826      874.369
01/16/2014  07:29:00     -101.659      -25.127       -4.712       36.145       30.538       23.369     1306.425      932.555      546.130        0.689        0.139      104.718       18.799        0.032      328.848       -4.790      874.368
01/16/2014  07:30:00     -100.550      -11.039       -6.385       29.631       24.950       18.661      878.014      622.524      348.243        0.606        0.092      101.154       17.044        0.028      328.878       -4.742      874.374
01/16/2014  07:31:00      -94.241      -12.948      -10.300       24.970       21.516       16.794      623.500      462.946      282.050        0.526        0.068       95.126       13.335        0.020      328.913       -4.685      874.379
01/16/2014  07:32:00      -90.716      -12.958       -6.381       21.333       19.174       16.890      455.078      367.650      285.262        0.477        0.055       91.637       13.883        0.023      328.926       -4.663      874.381
01/16/2014  07:33:00      -96.793      -15.222       -8.012       31.269       17.391       16.573      977.722      302.454      274.677        0.561        0.078       97.983       16.769        0.029      328.984       -4.570      874.376
01/16/2014  07:34:00     -112.152      -18.740       -7.979       32.234       24.784       20.998     1039.059      614.235      440.926        0.754        0.105      113.707       19.005        0.028      328.965       -4.599      874.361
01/16/2014  07:35:00     -103.528      -21.787      -15.133       19.323       15.635       15.737      373.394      244.459      247.655        0.614        0.043      105.796       11.327        0.011      328.935       -4.650      874.355
01/16/2014  07:36:00     -104.068      -12.439      -11.484       28.092       15.948       17.462      789.155      254.328      304.920        0.623        0.067      104.809       14.910        0.020      328.981       -4.575      874.366
01/16/2014  07:37:00     -110.663       -9.703       -7.867       28.382       19.290       16.177      805.559      372.116      261.688        0.692        0.072      111.088       14.003        0.016      329.071       -4.428      874.383
01/16/2014  07:38:00      -96.391      -12.406       -5.840       28.277       17.805       14.772      799.597      317.028      218.198        0.541        0.067       97.186       12.863        0.018      329.084       -4.404      874.409
01/16/2014  07:39:00      -90.833       -7.879       -9.550       23.385       16.722       10.910      546.852      279.633      119.035        0.467        0.047       91.174        5.972        0.004      329.201       -4.214      874.437
01/16/2014  07:40:00      -77.477      -10.759       -3.842       25.592       16.883       12.132      654.976      285.021      147.185        0.361        0.054       78.221       11.540        0.022      329.213       -4.192      874.448
01/16/2014  07:41:00      -88.892       -3.941       -2.931       31.228       17.495       15.703      975.163      306.073      246.578        0.473        0.076       88.980       16.023        0.032      329.201       -4.213      874.443
01/16/2014  07:42:00      -95.516      -18.248      -11.419       21.122       19.571       14.678      446.134      383.014      215.457        0.532        0.052       97.243        8.017        0.007      329.254       -4.125      874.435
01/16/2014  07:43:00      -69.065      -17.966      -10.789       14.629       19.988       12.329      214.011      399.534      152.004        0.299        0.038       71.363        7.484        0.011      329.227       -4.172      874.428
01/16/2014  07:44:00      -81.745      -14.560       -9.405       19.900       12.482       10.860      396.010      155.791      117.935        0.383        0.033       83.031        5.289        0.004      329.227       -4.172      874.435
01/16/2014  07:45:00      -86.008      -17.958       -1.638       26.492       16.285       13.641      701.820      265.203      186.071        0.444        0.058       87.863       12.309        0.020      329.278       -4.088      874.439
01/16/2014  07:46:00      -98.463       -6.444      -11.582       19.051       15.414       15.732      362.944      237.602      247.484        0.536        0.042       98.673       10.220        0.011      329.263       -4.112      874.447
01/16/2014  07:47:00      -98.527       -6.363      -11.670       14.930       15.167       12.053      222.892      230.049      145.279        0.524        0.030       98.733        9.172        0.009      329.260       -4.116      874.459
01/16/2014  07:48:00      -99.785      -14.955      -13.034       11.369       12.517        8.537      129.257      156.682       72.872        0.535        0.018      100.900        5.109        0.003      329.334       -3.997      874.470
01/16/2014  07:49:00      -98.020      -16.098       -9.329       19.822       12.231       11.651      392.922      149.604      135.740        0.532        0.034       99.333       10.508        0.011      329.438       -3.827      874.485
01/16/2014  07:50:00      -85.091      -19.003       -2.592       26.308       16.384       15.906      692.120      268.441      253.008        0.441        0.061       87.187       16.870        0.037      329.452       -3.805      874.494
01/16/2014  07:51:00      -62.963       -0.780       -1.622       23.620       18.286       15.076      557.925      334.360      227.277        0.254        0.056       62.968       14.888        0.056      329.492       -3.738      874.523
01/16/2014  07:52:00      -56.616       -2.883       -1.981       16.985       16.676       10.639      288.492      278.091      113.195        0.195        0.034       56.690        8.119        0.021      329.599       -3.564      874.549
01/16/2014  07:53:00      -13.185       -6.898       -2.423       10.693        7.965        6.803      114.338       63.439       46.286        0.023        0.011       14.880        5.652        0.144      329.692       -3.412      874.574
01/16/2014  07:54:00      -40.619      -10.755       -4.067       12.468        7.136        5.942      155.446       50.922       35.312        0.101        0.012       42.019        5.409        0.017      329.735       -3.338      874.602
01/16/2014  07:55:00      -45.099       -8.011       -3.460        8.335        7.663        5.498       69.477       58.715       30.229        0.113        0.008       45.805        3.847        0.007      329.772       -3.278      874.619
01/16/2014  07:56:00      -42.794      -13.450       -5.362       12.159       10.290        8.067      147.835      105.883       65.078        0.118        0.016       44.858        6.008        0.018      329.772       -3.279      874.645
01/16/2014  07:57:00      -27.523      -12.414       -3.988       17.551        9.593        5.579      308.034       92.025       31.130        0.068        0.022       30.193        3.890        0.017      329.755       -3.309      874.656
01/16/2014  07:58:00      -19.948       -9.695       -3.589       13.788        6.782        6.916      190.121       46.001       47.832        0.039        0.014       22.179        4.696        0.045      329.805       -3.228      874.666
01/16/2014  07:59:00      -55.238      -25.885       -6.507       21.033       12.905       13.852      442.373      166.551      191.888        0.228        0.040       61.002       14.984        0.060      329.740       -3.333      874.659
01/16/2014  08:00:00      -66.722      -25.872       -5.348        7.898        9.881        6.472       62.376       97.636       41.884        0.268        0.010       71.563        4.522        0.004      329.751       -3.317      874.643
01/16/2014  08:01:00      -58.506       -7.323       -2.892       11.779       13.959        6.462      138.753      194.858       41.754        0.193        0.019       58.962        5.041        0.007      329.792       -3.246      874.649
01/16/2014  08:02:00      -41.140        6.376       -2.938       25.047       20.646       10.937      627.369      426.268      119.623        0.146        0.059       41.631       12.615        0.092      329.819       -3.204      874.671
01/16/2014  08:03:00      -62.425       16.854       -6.168        8.949        9.656        6.557       80.090       93.235       42.989        0.222        0.011       64.660        4.355        0.005      329.810       -3.217      874.682
01/16/2014  08:04:00      -53.044        7.215      -10.230       12.293        9.112        9.263      151.106       83.033       85.810        0.165        0.016       53.533        8.027        0.022      329.907       -3.060      874.698
01/16/2014  08:05:00      -49.461        5.000       -5.160       13.058       10.304        8.682      170.518      106.167       75.384        0.142        0.018       49.713        5.494        0.012      329.944       -2.999      874.704
01/16/2014  08:06:00      -65.629        4.262       -9.448       18.830       11.195        8.448      354.576      125.320       71.360        0.248        0.028       65.767        5.863        0.008      329.867       -3.125      874.690
01/16/2014  08:07:00      -64.956       -6.404       -2.937       24.041       18.242       13.263      577.953      332.777      175.899        0.268        0.054       65.271       13.300        0.042      329.865       -3.128      874.686
01/16/2014  08:08:00      -82.578        7.950       -4.760       33.147       25.901       15.877     1098.735      670.862      252.066        0.446        0.101       82.960       14.516        0.031      329.878       -3.108      874.699
01/16/2014  08:09:00      -86.606       -0.489       -3.895       26.498       19.417       15.861      702.126      377.034      251.579        0.442        0.067       86.608       15.769        0.033      329.926       -3.028      874.731
01/16/2014  08:10:00     -120.763       -3.487       -5.249       24.393       18.432       18.353      595.009      339.747      336.835        0.795        0.064      120.814       15.219        0.016      329.971       -2.955      874.754
01/16/2014  08:11:00      -84.640      -14.729       -5.330       23.805       30.655       16.743      566.668      939.739      280.321        0.460        0.089       85.911       13.725        0.026      329.986       -2.930      874.770
01/16/2014  08:12:00     -113.005      -41.715       -1.602       24.084       26.392       13.982      580.047      696.560      195.506        0.799        0.074      120.459       11.996        0.010      330.048       -2.829      874.770
01/16/2014  08:13:00      -99.717      -60.004       -1.669       39.829       23.237       21.917     1586.322      539.939      480.376        0.808        0.130      116.379       21.878        0.035      330.034       -2.852      874.765
01/16/2014  08:14:00     -115.291      -44.812      -13.333       14.102       21.318       11.115      198.871      454.478      123.547        0.813        0.039      123.694        9.018        0.005      330.092       -2.756      874.766
01/16/2014  08:15:00      -74.227      -15.590       -5.324       18.624       24.361        9.872      346.840      593.437       97.455        0.341        0.052       75.846        7.304        0.009      330.157       -2.652      874.787
01/16/2014  08:16:00      -46.696       -2.840        4.627       17.412       15.745       11.140      303.171      247.901      124.107        0.144        0.034       46.783       10.429        0.050      330.201       -2.578      874.824
01/16/2014  08:17:00      -29.289      -22.270       -1.302       14.369       12.123        8.746      206.457      146.955       76.495        0.089        0.021       36.794        7.311        0.039      330.305       -2.406      874.845
01/16/2014  08:18:00      -49.818       -0.193       -4.804       10.729        8.080        7.914      115.117       65.279       62.634        0.137        0.012       49.818        4.852        0.009      330.304       -2.408      874.856
01/16/2014  08:19:00      -57.889       -3.959       -6.935       13.297       10.833       10.955      176.807      117.352      120.013        0.191        0.021       58.024        9.433        0.026      330.381       -2.282      874.855
01/16/2014  08:20:00      -53.510        0.838       -5.006       11.879        8.022        6.194      141.110       64.356       38.371        0.157        0.012       53.517        4.145        0.006      330.417       -2.225      874.855
01/16/2014  08:21:00      -59.548       -0.830       -6.081        9.659       13.694        7.162       93.305      187.539       51.293        0.196        0.017       59.554        6.294        0.011      330.455       -2.161      874.865
01/16/2014  08:22:00      -57.367       -0.221       -9.184       17.944       14.641        7.956      321.989      214.350       63.306        0.199        0.030       57.368        7.146        0.016      330.494       -2.097      874.867
01/16/2014  08:23:00      -36.143       -6.804       -2.491       11.030        8.190        8.306      121.664       67.083       68.986        0.081        0.013       36.778        6.381        0.030      330.599       -1.925      874.880
01/16/2014  08:24:00      -41.670      -25.977       -2.732        8.710        8.064        5.889       75.872       65.021       34.683        0.130        0.009       49.104        3.791        0.006      330.637       -1.863      874.884
01/16/2014  08:25:00      -47.296      -11.524       -4.742        8.021        9.647        5.221       64.338       93.057       27.264        0.129        0.009       48.680        4.071        0.007      330.677       -1.798      874.874
01/16/2014  08:26:00      -59.082      -13.038       -6.869       11.349       10.247        9.118      128.803      105.000       83.138        0.201        0.016       60.504        2.627        0.002      330.701       -1.758      874.867
01/16/2014  08:27:00      -52.597       -7.433       -4.134       11.378       10.461        6.083      129.463      109.433       36.997        0.156        0.014       53.120        3.497        0.004      330.715       -1.735      874.870
01/16/2014  08:28:00      -23.114       -4.762       -5.172       15.035        6.544        4.701      226.041       42.820       22.100        0.044        0.015       23.599        3.288        0.019      330.885       -1.455      874.883
01/16/2014  08:29:00      -10.888       -3.221       -4.776        7.860        5.471        6.014       61.776       29.934       36.174        0.014        0.006       11.355        2.740        0.058      331.077       -1.141      874.917
01/16/2014  08:30:00       -8.258        5.308       24.689        8.821       13.601       21.575       77.814      184.978      465.493        0.072        0.036        9.817       14.796        2.272      331.519       -0.414      874.925
01/16/2014  08:31:00       13.076       29.426       37.163       17.043       13.375       10.991      290.465      178.893      120.811        0.150        0.030       32.201        7.242        0.051      331.352       -0.688      874.919
01/16/2014  08:32:00       35.022       15.410       18.718       17.163       17.347       22.943      294.553      300.909      526.366        0.147        0.056       38.262       17.810        0.217      331.189       -0.956      874.907
01/16/2014  08:33:00       44.647       28.366       20.457       31.085       18.561       21.483      966.268      344.518      461.526        0.249        0.089       52.895       17.131        0.105      331.337       -0.712      874.912
01/16/2014  08:34:00       56.637       42.630       15.075       39.239       23.436       26.721     1539.679      549.264      714.005        0.403        0.140       70.888       27.781        0.154      331.241       -0.871      874.941
01/16/2014  08:35:00       45.777       53.024       49.783       45.416       32.749       28.824     2062.609     1072.471      830.837        0.567        0.198       70.050       27.637        0.156      331.295       -0.782      874.980
01/16/2014  08:36:00       62.873       76.469       52.075       47.383       40.399       37.109     2245.167     1632.085     1377.096        0.888        0.263       98.997       32.287        0.106      331.189       -0.955      875.000
01/16/2014  08:37:00       82.996       62.945       40.686       39.888       35.716       38.162     1591.063     1275.652     1456.375        0.841        0.216      104.165       33.049        0.101      331.090       -1.119      875.010
01/16/2014  08:38:00       66.433       66.228       37.244       35.554       22.325       27.516     1264.103      498.407      757.129        0.635        0.126       93.806       18.258        0.038      331.070       -1.152      875.006
01/16/2014  08:39:00       67.687       73.043       53.737       35.439       23.685       31.358     1255.945      560.958      983.316        0.780        0.140       99.583       26.004        0.068      331.066       -1.159      875.002
01/16/2014  08:40:00       65.475       64.266       38.208       25.580       34.250       30.767      654.362     1173.094      946.593        0.632        0.139       91.745       24.847        0.073      331.049       -1.186      874.999
01/16/2014  08:41:00       81.614       59.490       36.155       20.492       19.698       22.071      419.910      388.001      487.119        0.640        0.065      100.994       11.174        0.012      331.105       -1.094      875.014
01/16/2014  08:42:00       97.589       83.674       38.346       22.536       19.334       25.331      507.867      373.794      641.654        0.976        0.076      128.549       14.278        0.012      330.995       -1.275      875.028
01/16/2014  08:43:00       58.181       52.294       28.693       38.787       24.458       34.404     1504.432      598.202     1183.667        0.511        0.164       78.229       28.120        0.129      331.245       -0.865      875.039
01/16/2014  08:44:00       59.577       66.923       49.063       42.539       24.849       31.543     1809.542      617.469      994.959        0.693        0.171       89.600       26.856        0.090      331.298       -0.777      875.055
01/16/2014  08:45:00       50.155       53.773       46.321       48.165       30.182       27.274     2319.822      910.957      743.854        0.576        0.199       73.533       21.030        0.082      331.372       -0.655      875.067
01/16/2014  08:46:00       -1.825       -6.710       40.502       15.556       28.808       18.717      242.003      829.922      350.314        0.156        0.071        6.953       18.415        7.013      331.652       -0.194      875.065
01/16/2014  08:47:00        5.173        5.047       39.259       18.511       41.659       16.436      342.671     1735.448      270.126        0.197        0.117        7.227       16.009        4.907      331.709       -0.100      875.049
01/16/2014  08:48:00       13.844       39.464       60.831       21.380       28.785       12.134      457.097      828.560      147.232        0.344        0.072       41.822       11.940        0.082      331.677       -0.154      875.048
01/16/2014  08:49:00       25.711       76.824       64.433       41.305       33.709       29.171     1706.069     1136.297      850.925        0.720        0.185       81.012       23.164        0.082      331.531       -0.393      875.056
01/16/2014  08:50:00       11.656       33.322       60.939       23.482       42.630       21.663      551.425     1817.331      469.266        0.390        0.142       35.302       20.146        0.326      331.789        0.030      875.063
01/16/2014  08:51:00       25.238       86.122       71.600       33.037       31.840       30.662     1091.470     1013.807      940.158        0.811        0.152       89.744       17.177        0.037      331.619       -0.249      875.064
01/16/2014  08:52:00       24.276       81.490       73.509       46.436       42.442       27.660     2156.293     1801.319      765.048        0.868        0.236       85.029       21.839        0.066      331.574       -0.323      875.062
01/16/2014  08:53:00       62.849       73.403       46.200       28.838       22.622       30.898      831.647      511.739      954.696        0.688        0.115       96.633       16.805        0.030      331.462       -0.507      875.056
01/16/2014  08:54:00       51.739       75.298       59.168       30.880       25.398       26.220      953.566      645.062      687.470        0.707        0.114       91.360       14.378        0.025      331.498       -0.449      875.061
01/16/2014  08:55:00       35.393       54.516       59.504       31.727       29.438       21.407     1006.588      866.606      458.276        0.505        0.117       64.998       17.331        0.071      331.666       -0.170      875.065
01/16/2014  08:56:00       68.674       36.564       46.328       28.237       48.899       41.419      797.312     2391.129     1715.561        0.655        0.245       77.802       42.908        0.304      331.567       -0.334      875.076
01/16/2014  08:57:00       36.248       47.440       42.846       37.530       38.406       24.684     1408.522     1475.042      609.287        0.445        0.175       59.703       19.351        0.105      331.667       -0.170      875.088
01/16/2014  08:58:00       24.644       55.431       52.717       45.097       36.366       33.767     2033.728     1322.509     1140.180        0.548        0.225       60.662       29.083        0.230      332.023        0.416      875.103
01/16/2014  08:59:00      111.588       78.509       38.478       28.920       30.078       38.309      836.386      904.712     1467.581        1.165        0.160      136.439       23.093        0.029      331.451       -0.524      875.123
01/16/2014  09:00:00      109.908       86.516       23.943       48.615       33.300       39.755     2363.423     1108.867     1580.477        1.259        0.253      139.874       37.809        0.073      331.485       -0.469      875.115
01/16/2014  09:01:00      126.479       95.520       26.287       29.730       22.362       30.627      883.865      500.066      938.002        1.407        0.116      158.496       21.057        0.018      331.422       -0.573      875.093
01/16/2014  09:02:00       80.838       38.418       16.265       43.200       36.361       26.682     1866.199     1322.099      711.938        0.609        0.195       89.503       12.113        0.018      331.726       -0.072      875.084
01/16/2014  09:03:00       51.662       87.057       65.518       42.989       47.914       43.816     1848.022     2295.712     1919.843        1.030        0.303      101.232       32.658        0.104      331.847        0.126      875.086
01/16/2014  09:04:00      138.758       96.150       41.048       20.286       20.704       25.740      411.530      428.669      662.536        1.584        0.075      168.815       14.734        0.008      331.427       -0.565      875.106
01/16/2014  09:05:00       91.312       68.692       54.799       43.753       42.168       33.270     1914.341     1778.179     1106.913        1.043        0.240      114.265       25.445        0.050      331.666       -0.171      875.128
01/16/2014  09:06:00      115.355       83.802       29.507       19.602       17.115       19.437      384.240      292.927      377.781        1.113        0.053      142.582       11.748        0.007      331.421       -0.575      875.151
01/16/2014  09:07:00       78.605       59.816       10.654       18.348       16.318       21.920      336.655      266.262      480.466        0.548        0.054       98.776       10.803        0.012      331.574       -0.324      875.170
01/16/2014  09:08:00       28.047       70.540       56.889       44.716       49.417       41.123     1999.526     2442.038     1691.105        0.756        0.307       75.912       29.491        0.151      331.918        0.243      875.174
01/16/2014  09:09:00       23.464       32.301       26.180       41.433       33.639       31.075     1716.706     1131.551      965.685        0.305        0.191       39.924       18.480        0.214      332.211        0.726      875.191
01/16/2014  09:10:00      100.415       61.811       15.375       49.616       31.712       30.153     2461.733     1005.629      909.176        0.926        0.219      117.914        9.239        0.006      331.881        0.183      875.191
01/16/2014  09:11:00       66.936       53.594       18.571       33.456       27.857       31.981     1119.306      775.987     1022.769        0.531        0.146       85.748        6.793        0.006      331.878        0.177      875.195
01/16/2014  09:12:00      102.933       77.079        1.731       49.401       32.252       31.685     2440.423     1040.203     1003.941        1.051        0.224      128.594       26.385        0.042      331.802        0.052      875.206
01/16/2014  09:13:00        1.193       79.392       93.637       35.364       49.722       36.836     1250.614     2472.287     1356.861        1.008        0.254       79.401       32.825        0.171      332.218        0.739      875.218
01/16/2014  09:14:00       -0.121       31.530       82.924       21.331       55.783       27.451      455.008     3111.760      753.563        0.609        0.216       31.530       27.527        0.762      332.141        0.611      875.234
01/16/2014  09:15:00        9.180      104.713      119.306       36.507       48.058       25.955     1332.764     2309.579      673.654        1.480        0.216      105.115       21.598        0.042      331.865        0.157      875.236
01/16/2014  09:16:00       66.693       92.072      100.994       30.542       37.562       18.818      932.820     1410.928      354.121        1.291        0.135      113.689       16.935        0.022      331.813        0.070      875.236
01/16/2014  09:17:00       22.050       59.829       74.824       49.074       46.870       32.761     2408.212     2196.824     1073.280        0.767        0.284       63.763       32.106        0.254      331.935        0.271      875.241
01/16/2014  09:18:00       35.024      -24.949       40.717       35.555       57.003       36.921     1264.162     3249.323     1363.193        0.469        0.294       43.001       37.650        0.767      332.098        0.540      875.240
01/16/2014  09:19:00       45.812        0.040       57.520       47.236       99.385       52.923     2231.229     9877.469     2800.835        1.016        0.745       45.813       68.735        2.251      332.075        0.502      875.229
01/16/2014  09:20:00       55.106       80.984       73.707       46.290       44.824       42.917     2142.763     2009.211     1841.845        1.051        0.300       97.954       33.769        0.119      331.948        0.293      875.226
01/16/2014  09:21:00       73.005       87.840       69.584       26.235       30.480       30.624      688.286      929.002      937.836        1.022        0.128      114.218       12.297        0.012      331.834        0.105      875.226
01/16/2014  09:22:00       29.324       59.308       72.502       35.131       43.692       26.711     1234.205     1909.015      713.497        0.674        0.193       66.161       30.408        0.211      332.002        0.381      875.217
01/16/2014  09:23:00       48.778       46.760       41.211       36.105       56.699       40.610     1303.584     3214.830     1649.202        0.621        0.308       67.571       40.169        0.353      332.136        0.603      875.203
01/16/2014  09:24:00       -9.982       14.421       57.246       26.076       45.531       24.519      679.979     2073.058      601.160        0.347        0.168       17.539       13.895        0.628      332.448        1.116      875.206
01/16/2014  09:25:00        6.364       64.956       83.130       26.013       51.657       28.960      676.673     2668.452      838.684        0.768        0.209       65.267       34.278        0.276      332.329        0.921      875.217
01/16/2014  09:26:00       25.660       56.000       67.369       44.372       60.400       31.094     1968.901     3648.144      966.832        0.746        0.329       61.599       30.472        0.245      332.337        0.935      875.221
01/16/2014  09:27:00       32.908       45.770       74.176       44.212       43.443       22.702     1954.682     1887.299      515.360        0.652        0.218       56.373       19.865        0.124      332.214        0.731      875.231
01/16/2014  09:28:00        4.202       35.792       50.349       27.655       22.442       12.788      764.819      503.632      163.535        0.263        0.072       36.038        9.055        0.063      332.442        1.107      875.228
01/16/2014  09:29:00       31.898       78.058       73.652       37.733       42.584       27.828     1423.780     1813.431      774.395        0.827        0.201       84.324       19.358        0.053      332.357        0.968      875.220
01/16/2014  09:30:00       51.113       61.439       81.514       58.096       39.859       31.835     3375.198     1588.771     1013.488        0.950        0.299       79.921       25.639        0.103      332.394        1.029      875.224
01/16/2014  09:31:00       64.787       73.576       76.693       32.396       25.180       29.475     1049.505      634.057      868.789        0.902        0.128       98.034       16.567        0.029      332.005        0.387      875.237
01/16/2014  09:32:00       70.065        4.636       32.458       29.472       34.284       32.161      868.625     1175.371     1034.340        0.453        0.154       70.218       27.965        0.159      332.150        0.626      875.246
01/16/2014  09:33:00       57.807       55.349       39.377       51.200       44.306       44.075     2621.435     1962.980     1942.562        0.724        0.326       80.032       42.347        0.280      332.327        0.917      875.257
01/16/2014  09:34:00       39.421       86.817       81.413       43.121       44.607       30.194     1859.426     1989.816      911.702        1.024        0.238       95.348       23.121        0.059      332.263        0.813      875.263
01/16/2014  09:35:00       78.955       87.875       77.820       55.678       35.903       34.397     3100.021     1289.048     1183.143        1.279        0.279      118.135       26.543        0.050      332.237        0.770      875.263
01/16/2014  09:36:00       43.109       84.262       97.448       29.847       42.786       24.685      890.841     1830.635      609.352        1.089        0.167       94.650       28.161        0.089      332.260        0.808      875.254
01/16/2014  09:37:00       18.320       46.324       33.748       30.850       34.944       35.346      951.713     1221.085     1249.320        0.352        0.171       49.815       19.279        0.150      332.395        1.029      875.254
01/16/2014  09:38:00       41.314       96.383       87.137       52.916       50.795       32.150     2800.067     2580.142     1033.651        1.250        0.321      104.864       31.086        0.088      332.423        1.076      875.251
01/16/2014  09:39:00       76.077      111.374       81.765       65.008       42.178       32.761     4226.069     1778.959     1073.298        1.598        0.354      134.877       26.879        0.040      332.422        1.075      875.254
01/16/2014  09:40:00       93.773       88.065       37.034       34.135       25.918       31.933     1165.192      671.719     1019.700        1.039        0.143      128.642       13.629        0.011      332.087        0.521      875.261
01/16/2014  09:41:00       54.404       60.710       56.135       41.102       33.613       42.701     1689.345     1129.843     1823.385        0.722        0.232       81.520       23.627        0.084      332.606        1.379      875.259
01/16/2014  09:42:00       85.351       70.258       35.593       32.702       37.259       37.724     1069.410     1388.261     1423.100        0.868        0.194      110.549       21.773        0.039      332.381        1.006      875.262
01/16/2014  09:43:00      116.567       75.301       23.591       38.491       25.397       34.308     1481.592      645.028     1177.013        1.156        0.165      138.773       26.493        0.036      332.264        0.814      875.278
01/16/2014  09:44:00      116.023       67.410       24.851       54.320       39.058       40.096     2950.656     1525.518     1607.671        1.235        0.304      134.184       27.151        0.041      332.558        1.297      875.296
01/16/2014  09:45:00       37.033       94.894      100.316       54.156       46.517       35.415     2932.893     2163.863     1254.256        1.339        0.318      101.864       31.237        0.094      332.562        1.306      875.303
01/16/2014  09:46:00       95.350      102.463       75.032       47.049       37.645       44.898     2213.600     1417.136     2015.858        1.543        0.282      139.965       35.566        0.065      332.316        0.900      875.301
01/16/2014  09:47:00       47.574       76.748       73.985       49.562       35.301       28.821     2456.362     1246.152      830.650        0.908        0.227       90.297       23.691        0.069      332.550        1.285      875.298
01/16/2014  09:48:00      105.644       72.438       26.021       31.955       31.670       31.284     1021.113     1002.977      978.674        1.004        0.150      128.094       18.960        0.022      332.296        0.866      875.299
01/16/2014  09:49:00       47.055      107.209      102.926       39.593       45.481       29.808     1567.643     2068.476      888.494        1.441        0.226      117.080       23.374        0.040      332.476        1.162      875.285
01/16/2014  09:50:00      113.457       91.997       47.775       31.765       26.222       39.573     1009.017      687.586     1565.999        1.344        0.163      146.068       26.656        0.033      332.294        0.863      875.279
01/16/2014  09:51:00       35.527       62.503       56.597       50.961       39.642       47.421     2597.017     1571.479     2248.755        0.739        0.321       71.894       40.811        0.322      332.670        1.484      875.277
01/16/2014  09:52:00       98.134       88.476       27.351       59.651       33.368       44.121     3558.288     1113.440     1946.693        1.241        0.331      132.130       37.719        0.081      332.577        1.331      875.274
01/16/2014  09:53:00       86.564       84.514       46.202       38.234       22.111       35.430     1461.804      488.917     1255.307        0.999        0.160      120.979       26.764        0.049      332.515        1.228      875.268
01/16/2014  09:54:00       88.921       59.417       43.584       55.880       40.029       36.128     3122.550     1602.345     1305.206        0.968        0.302      106.945       29.779        0.078      332.629        1.416      875.255
01/16/2014  09:55:00       96.949       73.153       36.039       40.335       27.799       42.793     1626.944      772.760     1831.206        1.014        0.212      121.452       28.141        0.054      332.441        1.106      875.254
01/16/2014  09:56:00       35.454       69.636       51.962       40.952       32.541       48.688     1677.093     1058.920     2370.477        0.696        0.255       78.142       26.486        0.115      332.595        1.360      875.250
01/16/2014  09:57:00       70.447       69.107       54.866       21.930       26.039       22.775      480.915      678.015      518.715        0.721        0.084       98.685        8.279        0.007      332.482        1.173      875.244
01/16/2014  09:58:00       82.660       52.308       10.530       27.144       28.252       31.558      736.813      798.176      995.894        0.610        0.127       97.820       19.010        0.038      332.417        1.066      875.240
01/16/2014  09:59:00       30.155       51.667       42.717       29.757       28.401       23.393      885.485      806.632      547.236        0.382        0.112       59.823       16.986        0.081      332.905        1.871      875.223
01/16/2014  10:00:00       43.334       72.724       46.089       32.832       27.524       30.108     1077.953      757.591      906.511        0.602        0.137       84.656       22.202        0.069      332.752        1.618      875.217
01/16/2014  10:01:00       80.413       74.263       63.773       39.767       37.038       39.186     1581.393     1371.777     1535.580        1.027        0.224      109.459       27.440        0.063      332.870        1.814      875.229
01/16/2014  10:02:00      105.072       66.424        1.293       37.669       37.871       35.032     1418.984     1434.178     1227.228        0.977        0.204      124.308       22.709        0.033      332.733        1.588      875.238
01/16/2014  10:03:00      121.678       97.076        9.804       37.686       22.236       25.639     1420.212      494.422      657.365        1.345        0.129      155.657       14.464        0.009      332.490        1.186      875.235
01/16/2014  10:04:00       92.024       65.838        3.634       52.714       35.122       30.453     2778.765     1233.573      927.358        0.888        0.247      113.151       11.379        0.010      332.710        1.549      875.235
01/16/2014  10:05:00       46.046       69.193       44.349       58.232       39.412       48.960     3390.909     1553.308     2397.053        0.811        0.367       83.114       27.465        0.109      333.147        2.270      875.210
01/16/2014  10:06:00       18.587       54.970       75.733       36.289       42.141       29.525     1316.861     1775.872      871.714        0.653        0.198       58.028       22.767        0.154      333.209        2.374      875.200
01/16/2014  10:07:00       24.293       68.810       69.592       35.165       49.915       32.623     1236.591     2491.458     1064.285        0.748        0.240       72.973       34.470        0.223      332.941        1.932      875.207
01/16/2014  10:08:00      108.697       72.363        0.298       33.852       24.503       26.061     1145.952      600.382      679.194        0.974        0.121      130.581        8.284        0.004      332.598        1.364      875.204
01/16/2014  10:09:00       29.381       41.863        5.892       22.326       27.414       25.602      498.459      751.523      655.476        0.228        0.095       51.144        7.417        0.021      332.890        1.848      875.207
01/16/2014  10:10:00       38.048       47.589        0.837       44.688       43.214       25.912     1997.039     1867.428      671.417        0.412        0.227       60.929       15.940        0.068      333.193        2.347      875.194
01/16/2014  10:11:00       59.464       51.200       59.924       54.379       42.501       34.212     2957.120     1806.370     1170.435        0.784        0.297       78.469       26.644        0.115      333.211        2.376      875.185
01/16/2014  10:12:00       77.618       40.868       44.810       45.845       41.560       36.217     2101.744     1727.234     1311.643        0.742        0.257       87.720       24.157        0.076      333.253        2.447      875.183
01/16/2014  10:13:00       33.547       58.666       27.210       53.824       46.618       30.787     2897.051     2173.242      947.861        0.566        0.301       67.580       17.986        0.071      333.228        2.405      875.178
01/16/2014  10:14:00       87.059       85.143        7.301       19.410       27.688       29.679      376.736      766.634      880.832        0.845        0.101      121.773       16.176        0.018      332.817        1.727      875.156
01/16/2014  10:15:00       56.825       45.305       -0.755       50.334       26.689       18.399     2533.478      712.325      338.537        0.443        0.179       72.675       17.938        0.061      332.738        1.595      875.140
01/16/2014  10:16:00       53.801       42.055       23.525       37.712       26.223       31.153     1422.164      687.624      970.510        0.415        0.154       68.287       14.480        0.045      333.057        2.124      875.118
01/16/2014  10:17:00       -6.947       51.232       58.978       28.655       40.473       32.705      821.109     1638.048     1069.618        0.484        0.176       51.701       16.010        0.096      333.598        3.017      875.104
01/16/2014  10:18:00       72.046       85.087       42.620       64.248       42.986       37.562     4127.839     1847.771     1410.902        1.082        0.369      111.492       25.737        0.053      333.262        2.463      875.099
01/16/2014  10:19:00       35.908       32.835       21.626       56.770       56.699       37.264     3222.823     3214.803     1388.576        0.533        0.391       48.657       24.051        0.244      333.341        2.592      875.094
01/16/2014  10:20:00       13.467      -42.240       36.458       32.965       65.567       44.190     1086.709     4299.081     1952.798        0.532        0.367       44.335       44.728        1.018      333.457        2.785      875.083
01/16/2014  10:21:00        7.430       49.473       66.567       20.660       35.937       18.162      426.850     1291.462      329.846        0.449        0.102       50.028       18.601        0.138      333.440        2.756      875.065
01/16/2014  10:22:00       11.139       32.882       45.060       23.666       28.260       21.907      560.057      798.631      479.900        0.254        0.092       34.717       18.401        0.281      333.669        3.137      875.051
01/16/2014  10:23:00       31.235       60.758       73.987       36.252       27.007       11.503     1314.191      729.383      132.327        0.616        0.109       68.317        5.374        0.006      333.296        2.518      875.038
01/16/2014  10:24:00       68.207       26.147       31.938       32.461       38.950       37.885     1053.705     1517.104     1435.279        0.518        0.200       73.047       27.302        0.140      333.211        2.376      875.030
01/16/2014  10:25:00       11.467       15.234       16.965       18.799       36.014       18.019      353.406     1296.983      324.695        0.131        0.099       19.067       12.892        0.457      333.710        3.205      875.017
01/16/2014  10:26:00       -3.474       14.744       57.941       18.195       33.816       21.591      331.059     1143.553      466.166        0.276        0.097       15.147       18.175        1.440      334.106        3.859      875.005
01/16/2014  10:27:00       35.165       50.833       66.303       44.028       40.692       30.152     1938.437     1655.815      909.127        0.636        0.225       61.811       30.242        0.239      333.537        2.917      874.989
01/16/2014  10:28:00       48.602       84.859       38.703       33.575       29.282       28.875     1127.271      857.451      833.761        0.694        0.141       97.791       16.895        0.030      333.377        2.653      874.991
01/16/2014  10:29:00       21.206       46.594        2.647       27.885       32.118       22.769      777.578     1031.550      518.437        0.248        0.116       51.193       19.342        0.143      333.500        2.855      874.989
01/16/2014  10:30:00       -1.898       33.288        2.740       26.546       20.008       24.546      704.688      400.302      602.488        0.141        0.085       33.342       11.881        0.127      333.818        3.384      874.983
01/16/2014  10:31:00       45.428       42.861       35.707       45.459       37.618       28.537     2066.488     1415.141      814.333        0.474        0.215       62.456       18.819        0.091      333.807        3.363      874.971
01/16/2014  10:32:00       81.408       62.088       27.168       67.245       53.045       24.472     4521.892     2813.733      598.879        0.958        0.397      102.382       10.845        0.011      333.840        3.418      874.956
01/16/2014  10:33:00       65.089       69.298       46.258       38.109       37.463       40.246     1452.320     1403.456     1619.751        0.783        0.224       95.073       23.304        0.060      333.775        3.312      874.941
01/16/2014  10:34:00       73.701       59.121       11.611       20.219       20.790       24.604      408.814      432.223      605.353        0.525        0.072       94.483        6.907        0.005      333.301        2.524      874.933
01/16/2014  10:35:00       -9.464      -26.653       -1.776       22.652       38.935       24.700      513.108     1515.901      610.067        0.172        0.132       28.283       12.280        0.189      333.527        2.901      874.917
01/16/2014  10:36:00       32.530       35.030       52.435       56.294       51.686       32.417     3169.042     2671.416     1050.863        0.596        0.345       47.805       29.395        0.378      333.926        3.562      874.917
01/16/2014  10:37:00       79.962       69.310       41.118       39.224       24.392       40.477     1538.554      594.955     1638.369        0.833        0.189      105.820       28.735        0.074      333.625        3.064      874.923
01/16/2014  10:38:00       -5.089       58.801       72.991       30.206       51.161       35.402      912.412     2617.431     1253.295        0.680        0.239       59.020       30.948        0.275      334.026        3.728      874.919
01/16/2014  10:39:00      129.364       92.522       37.901       52.390       42.458       38.447     2744.693     1802.643     1478.159        1.638        0.301      159.045       18.893        0.014      333.732        3.238      874.905
01/16/2014  10:40:00      102.752       81.953       44.277       48.628       38.390       39.422     2364.725     1473.761     1554.129        1.231        0.270      131.432       14.576        0.012      333.798        3.348      874.902
01/16/2014  10:41:00       53.919       48.099        1.248       30.761       31.308       27.144      946.214      980.187      736.774        0.394        0.133       72.255       17.861        0.061      333.665        3.129      874.884
01/16/2014  10:42:00      131.504       97.099        8.966       34.710       26.762       28.685     1204.762      716.195      822.850        1.477        0.137      163.467       11.067        0.005      333.568        2.968      874.871
01/16/2014  10:43:00      127.000       83.768       15.743       23.889       18.494       24.126      570.685      342.026      582.062        1.244        0.075      152.138        8.747        0.003      333.542        2.923      874.861
01/16/2014  10:44:00       52.438       68.166       37.124       57.128       48.661       47.889     3263.590     2367.860     2293.398        0.835        0.396       86.003       36.293        0.178      333.932        3.571      874.844
01/16/2014  10:45:00       -3.998       58.178       31.829       30.681       38.038       45.034      941.305     1446.900     2028.020        0.441        0.221       58.315       32.374        0.308      334.152        3.937      874.841
01/16/2014  10:46:00       16.846       23.038       19.253       39.211       38.396       23.742     1537.541     1474.226      563.681        0.238        0.179       28.540       16.566        0.337      334.214        4.039      874.825
01/16/2014  10:47:00       22.736      -13.239       38.992       38.947       39.127       31.569     1516.836     1530.917      996.599        0.313        0.202       26.309       30.418        1.337      334.388        4.327      874.817
01/16/2014  10:48:00       51.897       25.959       56.982       49.322       50.556       42.070     2432.642     2555.930     1769.873        0.668        0.338       58.027       40.687        0.492      334.328        4.228      874.810
01/16/2014  10:49:00      125.017       99.792       48.511       48.733       42.270       49.509     2374.943     1786.726     2451.098        1.728        0.331      159.962       22.924        0.021      333.991        3.668      874.803
01/16/2014  10:50:00      101.931       83.777       38.884       47.028       33.080       32.978     2211.604     1094.273     1087.566        1.166        0.220      131.941       11.343        0.007      333.971        3.636      874.797
01/16/2014  10:51:00       48.092       91.693       84.927       52.924       47.261       28.646     2800.948     2233.636      820.596        1.189        0.293      103.540       22.160        0.046      334.207        4.026      874.775
01/16/2014  10:52:00        0.998        7.968       54.525       25.851       25.396       25.495      668.284      644.943      649.982        0.250        0.098        8.030       17.495        4.747      334.508        4.527      874.753
01/16/2014  10:53:00       11.372       -6.317       40.854       26.770       33.549       22.029      716.641     1125.544      485.292        0.208        0.116       13.008       17.526        1.815      334.651        4.764      874.737
01/16/2014  10:54:00       31.679       65.313       66.522       41.466       43.140       39.717     1719.430     1861.058     1577.423        0.743        0.258       72.590       30.090        0.172      334.497        4.508      874.719
01/16/2014  10:55:00       50.651       77.966       73.619       77.688       45.273       52.766     6035.475     2049.679     2784.224        1.246        0.543       92.975       51.924        0.312      334.455        4.439      874.708
01/16/2014  10:56:00       46.361       54.044       25.762       48.499       47.108       26.153     2352.129     2219.178      683.979        0.549        0.263       71.205       27.722        0.152      334.169        3.965      874.705
01/16/2014  10:57:00       15.479      -18.063        9.593       21.321       28.975       38.181      454.579      839.531     1457.796        0.170        0.138       23.788       29.196        1.506      334.561        4.616      874.688
01/16/2014  10:58:00        9.305       68.549       85.547       32.947       38.888       27.406     1085.478     1512.315      751.068        0.773        0.167       69.178       28.153        0.166      334.641        4.748      874.676
01/16/2014  10:59:00       81.500      101.338       78.080       43.558       26.615       38.616     1897.322      708.364     1491.172        1.355        0.205      130.044       20.734        0.025      334.158        3.944      874.659
01/16/2014  11:00:00       91.518       49.806       26.162       37.481       28.732       36.464     1404.813      825.542     1329.644        0.755        0.178      104.193       24.194        0.054      334.181        3.984      874.643
01/16/2014  11:01:00       34.759       73.424       50.589       36.945       34.342       39.709     1364.964     1179.393     1576.796        0.664        0.206       81.236       35.259        0.188      334.336        4.241      874.620
01/16/2014  11:02:00       23.636       13.202       56.396       36.299       60.551       33.922     1317.596     3666.466     1150.682        0.502        0.307       27.073       37.837        1.953      334.706        4.856      874.599
01/16/2014  11:03:00       52.373       78.752       76.589       48.774       40.991       39.959     2378.928     1680.243     1596.709        1.023        0.283       94.577       33.086        0.122      334.569        4.628      874.594
01/16/2014  11:04:00       58.028       45.210        1.065       28.215       28.363       23.352      796.102      804.454      545.316        0.378        0.107       73.561       17.442        0.056      334.005        3.694      874.572
01/16/2014  11:05:00       -9.843      -19.443      -18.778       24.965       15.760       14.306      623.259      248.369      204.670        0.095        0.054       21.793       13.964        0.411      334.179        3.980      874.550
01/16/2014  11:06:00       14.997       17.087       29.644       19.840       21.984       20.466      393.612      483.285      418.865        0.135        0.065       22.735        9.283        0.167      334.791        4.997      874.526
01/16/2014  11:07:00       23.706      -39.949       17.033       28.096       39.946       27.457      789.357     1595.704      753.911        0.279        0.157       46.453       15.553        0.112      334.605        4.688      874.520
01/16/2014  11:08:00       28.448      -73.897        9.567       26.549       28.343       22.094      704.825      803.343      488.166        0.418        0.100       79.184       18.045        0.052      334.274        4.137      874.498
01/16/2014  11:09:00       58.417       20.373       12.053       43.364       43.491       32.325     1880.396     1891.426     1044.914        0.439        0.241       61.867       15.096        0.060      334.846        5.088      874.484
01/16/2014  11:10:00      110.699       83.422       24.249       28.251       26.504       27.749      798.122      702.469      770.034        1.104        0.114      138.613       14.937        0.012      334.372        4.302      874.470
01/16/2014  11:11:00       73.854       83.487        2.455       51.768       27.571       24.713     2679.968      760.160      610.718        0.824        0.203      111.465       22.480        0.041      334.231        4.067      874.449
01/16/2014  11:12:00       32.180       60.983        6.548       46.110       34.634       32.680     2126.097     1199.487     1067.970        0.459        0.220       68.953       27.525        0.159      334.702        4.848      874.432
01/16/2014  11:13:00       55.947       27.436       19.999       56.911       37.679       27.685     3238.911     1419.700      766.454        0.485        0.271       62.312       23.806        0.146      334.898        5.176      874.431
01/16/2014  11:14:00       75.460       54.890       19.532       30.758       28.305       27.254      946.085      801.177      742.768        0.579        0.125       93.312       16.576        0.032      334.764        4.951      874.414
01/16/2014  11:15:00       71.457       70.902       23.213       58.481       31.064       51.063     3420.030      964.953     2607.398        0.883        0.350      100.664       43.155        0.184      334.860        5.111      874.400
01/16/2014  11:16:00       61.960       82.253        9.257       51.123       46.300       37.087     2613.576     2143.735     1375.446        0.841        0.307      102.979       21.832        0.045      334.943        5.248      874.378
01/16/2014  11:17:00      105.853       89.366       42.962       73.860       50.111       48.509     5455.295     2511.120     2353.148        1.568        0.516      138.532       38.250        0.076      334.874        5.133      874.363
01/16/2014  11:18:00      190.101      128.241        0.958       36.107       30.554       27.550     1303.721      933.556      759.012        2.779        0.150      229.312       17.450        0.006      334.287        4.156      874.358
01/16/2014  11:19:00      109.031       98.116        1.100       34.609       27.100       33.100     1197.753      734.404     1095.636        1.227        0.151      146.678       19.002        0.017      334.364        4.287      874.363
01/16/2014  11:20:00       91.522       77.015       -3.249       39.466       37.997       31.963     1557.579     1443.748     1021.627        0.917        0.201      119.615       22.655        0.036      334.560        4.613      874.346
01/16/2014  11:21:00       77.278       89.341        4.132       47.947       35.354       35.819     2298.906     1249.891     1282.967        0.940        0.242      118.125       17.713        0.022      334.681        4.814      874.329
01/16/2014  11:22:00       37.574      -36.468       13.100       41.540       41.023       34.173     1725.582     1682.871     1167.809        0.374        0.229       52.361       24.232        0.214      334.986        5.322      874.304
01/16/2014  11:23:00       50.509      -51.223       15.391       45.154       34.111       29.226     2038.925     1163.553      854.136        0.473        0.203       71.937       24.531        0.116      334.795        5.004      874.294
01/16/2014  11:24:00       33.120      -10.390       32.925       40.676       57.249       37.588     1654.530     3277.455     1412.845        0.432        0.317       34.711       41.209        1.409      335.037        5.406      874.283
01/16/2014  11:25:00        8.665       91.147      102.946       35.344       42.809       29.731     1249.215     1832.572      883.961        1.147        0.198       91.558       30.411        0.110      334.950        5.261      874.268
01/16/2014  11:26:00       84.746       79.860       70.836       42.419       40.840       36.354     1799.398     1667.884     1321.592        1.168        0.239      116.446       29.005        0.062      334.834        5.069      874.252
01/16/2014  11:27:00       83.998       68.496        9.761       47.913       29.178       28.755     2295.672      851.330      826.850        0.791        0.199      108.385       20.219        0.035      334.738        4.910      874.225
01/16/2014  11:28:00       12.175       52.367       41.846       34.120       33.640       28.583     1164.175     1131.645      816.967        0.388        0.156       53.763       11.717        0.047      335.296        5.834      874.188
01/16/2014  11:29:00      115.445       83.184        0.517       32.514       33.480       24.509     1057.189     1120.938      600.697        1.151        0.139      142.293        5.934        0.002      334.570        4.630      874.158
01/16/2014  11:30:00       86.611       67.007       25.538       25.590       24.126       29.121      654.827      582.044      848.035        0.736        0.104      109.506       15.498        0.020      334.736        4.904      874.129
01/16/2014  11:31:00       31.789       42.242        4.215       32.872       23.313       26.643     1080.568      543.489      709.871        0.257        0.117       52.867       16.712        0.100      335.077        5.473      874.116
01/16/2014  11:32:00       20.123       25.829       15.464       26.101       21.812       19.819      681.272      475.744      392.789        0.143        0.077       32.742       13.700        0.175      335.173        5.630      874.096
01/16/2014  11:33:00       21.044       73.493      -13.275       29.132       34.047       23.752      848.692     1159.201      564.139        0.430        0.129       76.446       18.219        0.057      334.987        5.320      874.077
01/16/2014  11:34:00        3.705       56.395       -0.456       29.808       24.301       23.063      888.534      590.563      531.901        0.260        0.101       56.516       15.124        0.072      335.172        5.630      874.043
01/16/2014  11:35:00       19.386       71.459        6.164       49.374       50.864       24.368     2437.796     2587.107      593.819        0.557        0.281       74.042       17.751        0.057      335.343        5.915      874.025
01/16/2014  11:36:00       24.811      -10.058       52.847       29.159       62.673       38.759      850.233     3927.890     1502.298        0.489        0.314       26.773       43.867        2.685      335.589        6.324      874.002
01/16/2014  11:37:00       39.919       34.571       31.237       46.089       43.152       37.138     2124.237     1862.063     1379.236        0.456        0.268       52.808       36.158        0.469      335.458        6.105      873.996
01/16/2014  11:38:00       79.226       80.583       -1.383       29.340       30.052       29.962      860.852      903.130      897.695        0.772        0.133      113.006       18.756        0.028      335.104        5.517      873.981
01/16/2014  11:39:00       63.866       78.189       -1.555       51.694       40.047       32.012     2672.256     1603.754     1024.793        0.775        0.265      100.958       22.426        0.049      335.061        5.445      873.963
01/16/2014  11:40:00       27.462       34.948       11.590       28.163       38.886       28.547      793.133     1512.160      814.921        0.261        0.156       44.447       20.828        0.220      335.415        6.033      873.943
01/16/2014  11:41:00       26.982       59.325        9.558       31.115       37.477       27.230      968.166     1404.506      741.466        0.373        0.156       65.172       23.440        0.129      335.398        6.007      873.915
01/16/2014  11:42:00       72.453       29.969        7.941       36.554       43.965       30.075     1336.213     1932.935      904.516        0.519        0.209       78.407       19.679        0.063      335.362        5.946      873.900
01/16/2014  11:43:00       39.126       29.761       10.938       35.435       34.604       28.315     1255.651     1197.470      801.766        0.289        0.163       49.158        7.700        0.025      335.635        6.400      873.874
01/16/2014  11:44:00      -15.878       37.930       34.705       46.060       46.990       49.020     2121.560     2208.062     2402.914        0.481        0.337       41.119       20.264        0.243      335.689        6.490      873.858
01/16/2014  11:45:00       41.150       82.821       88.654       46.301       35.498       25.755     2143.815     1260.127      663.300        1.024        0.203       92.481       24.358        0.069      335.449        6.090      873.841
01/16/2014  11:46:00       74.884      104.100       61.323       54.933       49.050       46.333     3017.598     2405.950     2146.749        1.389        0.379      128.236       30.073        0.055      335.477        6.135      873.828
01/16/2014  11:47:00       19.122       68.882       71.056       46.169       43.740       39.512     2131.548     1913.154     1561.182        0.788        0.280       71.487       35.302        0.244      335.744        6.582      873.801
01/16/2014  11:48:00       48.417       67.385       71.388       64.623       48.537       45.473     4176.194     2355.885     2067.803        1.029        0.430       82.975       43.330        0.273      335.494        6.164      873.784
01/16/2014  11:49:00       29.826       51.578       52.431       44.638       55.563       49.359     1992.562     3087.280     2436.299        0.691        0.376       59.581       48.633        0.666      335.615        6.366      873.759
01/16/2014  11:50:00       83.101      135.655      108.551       67.280       45.880       50.591     4526.601     2104.971     2559.412        2.314        0.460      159.084       42.352        0.071      335.435        6.064      873.740
01/16/2014  11:51:00       40.689       97.419       95.287       47.447       47.844       40.255     2251.254     2289.047     1620.430        1.319        0.308      105.575       36.159        0.117      335.564        6.283      873.720
01/16/2014  11:52:00       71.886       58.334       75.898       51.822       62.038       45.556     2685.468     3848.712     2075.363        1.147        0.430       92.577       44.801        0.234      335.577        6.304      873.708
01/16/2014  11:53:00      115.298       65.394       35.539       50.361       46.696       46.852     2536.220     2180.495     2195.091        1.287        0.346      132.552       35.326        0.071      335.367        5.953      873.692
01/16/2014  11:54:00       49.682       12.876       30.277       44.660       41.969       37.956     1994.504     1761.379     1440.627        0.437        0.260       51.323       32.125        0.392      335.597        6.336      873.669
01/16/2014  11:55:00       63.554       20.092       10.863       59.415       56.222       36.714     3530.152     3160.910     1347.911        0.630        0.402       66.654       27.963        0.176      335.553        6.264      873.640
01/16/2014  11:56:00       70.377       53.768       35.214       53.599       42.846       35.902     2872.891     1835.777     1288.980        0.754        0.300       88.566       19.739        0.050      335.938        6.906      873.602
01/16/2014  11:57:00       70.200       64.034       17.883       41.030       43.277       34.729     1683.470     1872.880     1206.109        0.705        0.238       95.018       17.906        0.036      335.969        6.958      873.576
01/16/2014  11:58:00      111.612       85.387       25.226       51.160       24.741       35.627     2617.339      612.126     1269.290        1.244        0.225      140.528       12.165        0.007      335.590        6.324      873.557
01/16/2014  11:59:00       46.895       57.920       41.714       53.296       35.093       36.624     2840.451     1231.495     1341.311        0.635        0.271       74.524       31.605        0.180      336.131        7.227      873.516
01/16/2014  12:00:00      113.925       79.913       18.592       55.219       39.149       32.265     3049.088     1532.636     1041.026        1.267        0.281      139.159       10.444        0.006      335.596        6.336      873.498
01/16/2014  12:01:00       99.541       78.079       18.243       73.411       57.455       39.066     5389.224     3301.098     1526.155        1.327        0.511      126.510       40.208        0.101      335.943        6.913      873.473
01/16/2014  12:02:00       90.567       80.064        9.619       38.841       36.110       31.883     1508.603     1303.920     1016.556        0.927        0.191      120.882       22.232        0.034      335.765        6.618      873.460
01/16/2014  12:03:00       70.409       68.512       -3.198       29.000       22.616       20.844      841.004      511.491      434.489        0.572        0.089       98.241        7.925        0.007      335.593        6.330      873.447
01/16/2014  12:04:00       57.916       58.494       27.919       25.476       30.834       27.832      649.044      950.708      774.605        0.496        0.119       82.315       22.276        0.073      335.908        6.855      873.423
01/16/2014  12:05:00       22.928       69.139       55.879       40.546       35.345       49.534     1644.003     1249.281     2453.569        0.689        0.267       72.842       40.477        0.309      336.184        7.316      873.403
01/16/2014  12:06:00       48.978      105.552       97.256       47.356       43.342       29.360     2242.561     1878.548      861.999        1.399        0.249      116.362       23.480        0.041      336.092        7.161      873.385
01/16/2014  12:07:00       53.320       69.618       62.388       38.160       42.245       37.603     1456.170     1784.610     1413.960        0.812        0.233       87.691       32.212        0.135      336.023        7.046      873.361
01/16/2014  12:08:00       45.182       56.178       33.377       27.245       23.561       26.787      742.266      555.136      717.524        0.416        0.101       72.092       12.739        0.031      336.058        7.104      873.340
01/16/2014  12:09:00       91.643       78.494       23.550       55.263       61.425       40.389     3053.966     3772.978     1631.248        1.178        0.423      120.664       31.935        0.070      336.048        7.087      873.306
01/16/2014  12:10:00      100.606       87.244       16.589       39.859       34.163       41.029     1588.721     1167.086     1683.351        1.122        0.222      133.166        7.140        0.003      335.822        6.712      873.288
01/16/2014  12:11:00      108.573       76.806       12.216       52.572       32.041       34.475     2763.857     1026.610     1188.506        1.141        0.249      132.993       18.717        0.020      335.758        6.604      873.275
01/16/2014  12:12:00      119.536       85.082        5.173       33.952       40.148       26.891     1152.763     1611.823      723.114        1.252        0.174      146.723       15.383        0.011      335.787        6.653      873.260
01/16/2014  12:13:00       69.717       64.647        4.779       34.961       23.463       29.195     1222.272      550.528      852.320        0.584        0.131       95.078       13.588        0.020      336.016        7.034      873.239
01/16/2014  12:14:00       11.431       18.546        5.905       30.619       50.797       20.275      937.508     2580.290      411.080        0.222        0.196       21.786       15.528        0.508      336.446        7.754      873.221
01/16/2014  12:15:00       26.122       -3.517       20.710       43.542       68.698       44.586     1895.928     4719.477     1987.926        0.486        0.430       26.358       44.884        2.900      336.331        7.560      873.200
01/16/2014  12:16:00       72.462       63.099       38.895       56.107       47.555       46.012     3148.026     2261.445     2117.105        0.913        0.376       96.084       36.893        0.147      336.412        7.697      873.189
01/16/2014  12:17:00       90.613       79.266        5.460       44.853       36.673       36.823     2011.794     1344.911     1355.922        0.962        0.236      120.391       23.221        0.037      336.064        7.116      873.169
01/16/2014  12:18:00       32.744       53.744       13.492       46.251       39.707       36.403     2139.177     1576.652     1325.175        0.459        0.252       62.934       22.061        0.123      336.242        7.412      873.160
01/16/2014  12:19:00      121.586       67.149       19.677       48.317       47.659       41.686     2334.494     2271.374     1737.740        1.301        0.317      138.897       23.814        0.029      335.974        6.966      873.161
01/16/2014  12:20:00       64.554       50.852       29.811       43.908       44.997       45.751     1927.885     2024.775     2093.127        0.684        0.302       82.177       24.681        0.090      336.274        7.466      873.137
01/16/2014  12:21:00       52.957       50.522       69.551       57.986       69.875       59.748     3362.328     4882.474     3569.799        1.100        0.591       73.190       55.660        0.578      336.201        7.344      873.126
01/16/2014  12:22:00       84.215      120.681      102.858       66.273       47.649       51.819     4392.129     2270.443     2685.168        2.079        0.467      147.160       44.782        0.093      336.136        7.234      873.107
01/16/2014  12:23:00       98.004       87.826       56.872       40.992       33.810       45.704     1680.331     1143.102     2088.848        1.273        0.246      131.598       27.593        0.044      335.978        6.971      873.092
01/16/2014  12:24:00       60.174       57.609       63.424       53.103       50.197       39.573     2819.876     2519.778     1565.995        0.893        0.345       83.305       31.367        0.142      336.353        7.599      873.069
01/16/2014  12:25:00       46.231       71.066       76.268       63.071       43.061       39.762     3977.921     1854.251     1580.988        1.021        0.371       84.780       35.453        0.175      336.433        7.731      873.045
01/16/2014  12:26:00        0.236       32.942       47.058       30.991       49.756       39.636      960.461     2475.688     1570.997        0.415        0.250       32.942       33.716        1.048      336.656        8.105      873.033
01/16/2014  12:27:00       21.275      -23.171       27.678       48.067       57.440       49.922     2310.406     3299.332     2492.237        0.493        0.405       31.457       26.866        0.729      336.807        8.356      873.017
01/16/2014  12:28:00       69.189       61.216       51.557       55.191       61.971       47.782     3046.004     3840.407     2283.091        1.018        0.458       92.383       30.417        0.108      336.330        7.558      872.996
01/16/2014  12:29:00       71.102       69.209       28.571       36.431       27.297       27.191     1327.186      745.145      739.333        0.674        0.141       99.224       18.426        0.034      336.270        7.460      872.989
01/16/2014  12:30:00       54.503       73.443       68.236       76.880       50.005       49.631     5910.588     2500.493     2463.221        1.195        0.544       91.457       37.522        0.168      336.479        7.807      872.966
01/16/2014  12:31:00      112.263       77.259       42.484       70.290       54.474       47.565     4940.750     2967.389     2262.394        1.527        0.509      136.279       38.799        0.081      336.290        7.492      872.949
01/16/2014  12:32:00      105.180       64.456       24.504       62.129       46.670       45.226     3859.984     2178.106     2045.367        1.195        0.404      123.359       40.608        0.108      336.453        7.765      872.925
01/16/2014  12:33:00      114.939       92.247        8.766       41.422       39.591       32.714     1715.796     1567.433     1070.216        1.307        0.218      147.379       17.067        0.013      336.188        7.322      872.897
01/16/2014  12:34:00      118.288       87.803        3.653       34.062       36.470       27.829     1160.207     1330.085      774.434        1.249        0.163      147.313       20.182        0.019      336.122        7.211      872.878
01/16/2014  12:35:00       78.996       38.432       10.446       49.269       36.867       30.994     2427.474     1359.190      960.647        0.629        0.237       87.849       28.111        0.102      336.346        7.586      872.864
01/16/2014  12:36:00       61.951       73.329       -1.059       43.727       41.643       35.355     1912.049     1734.102     1250.008        0.706        0.245       95.995       27.259        0.081      336.484        7.818      872.844
01/16/2014  12:37:00        4.149       51.713       -3.110       18.013       27.203       18.280      324.473      739.991      334.158        0.205        0.070       51.879       11.022        0.045      336.530        7.894      872.827
01/16/2014  12:38:00        4.944       32.858        6.194       19.182       25.852       21.562      367.939      668.349      464.919        0.132        0.075       33.228       14.629        0.194      336.736        8.239      872.809
01/16/2014  12:39:00        6.467       11.606       17.193       24.916       18.347       17.123      620.788      336.598      293.195        0.086        0.063       13.286        9.009        0.460      337.008        8.693      872.776
01/16/2014  12:40:00       53.896       66.532       42.308       40.673       28.642       34.578     1654.322      820.346     1195.611        0.640        0.184       85.623       22.375        0.068      336.562        7.947      872.760
01/16/2014  12:41:00       75.469       51.973       52.411       68.626       90.027       62.317     4709.500     8104.848     3883.440        1.392        0.835       91.634       63.154        0.475      336.493        7.830      872.742
01/16/2014  12:42:00       83.340       55.967        9.478       31.676       25.337       28.326     1003.381      641.979      802.376        0.631        0.122      100.389       15.814        0.025      336.365        7.618      872.722
01/16/2014  12:43:00       16.352       29.295        2.713       33.079       29.958       25.353     1094.241      897.484      642.757        0.188        0.132       33.550       13.156        0.154      336.863        8.452      872.713
01/16/2014  12:44:00       17.063       76.058        4.538       41.559       31.503       29.715     1727.112      992.462      882.999        0.485        0.180       77.948       24.769        0.101      336.579        7.976      872.695
01/16/2014  12:45:00       69.854       63.772       29.813       38.936       31.050       32.440     1516.021      964.099     1052.331        0.668        0.177       94.586       19.429        0.042      336.628        8.058      872.668
01/16/2014  12:46:00      -11.883       13.316       14.558       12.385       28.187       25.879      153.399      794.510      669.748        0.107        0.081       17.847       14.051        0.620      337.055        8.771      872.660
01/16/2014  12:47:00       16.257        8.422       26.961       13.959       20.650       14.594      194.858      426.403      212.984        0.095        0.042       18.309        7.855        0.184      337.019        8.712      872.638
01/16/2014  12:48:00       19.277       -0.025       11.090       33.355       47.188       25.129     1112.565     2226.707      631.462        0.223        0.199       19.277       11.202        0.338      336.912        8.532      872.621
01/16/2014  12:49:00       16.338      -53.401       20.243       34.168       64.663       31.073     1167.466     4181.293      965.511        0.492        0.316       55.844       36.696        0.432      337.170        8.965      872.607
01/16/2014  12:50:00       26.375      -50.754       33.466       28.240       71.735       37.127      797.516     5145.955     1378.396        0.586        0.366       57.198       43.308        0.573      337.107        8.858      872.575
01/16/2014  12:51:00       39.874       69.623       34.644       36.160       25.471       29.672     1307.580      648.769      880.456        0.524        0.142       80.233       16.804        0.044      336.965        8.620      872.567
01/16/2014  12:52:00        5.821       36.350       24.632       27.857       21.763       19.855      776.007      473.634      394.202        0.180        0.082       36.813       14.718        0.160      337.404        9.355      872.554
01/16/2014  12:53:00        8.848       14.684       32.653       24.366       19.047       28.351      593.719      362.773      803.770        0.156        0.088       17.144       21.448        1.565      337.220        9.047      872.539
01/16/2014  12:54:00       59.387       61.595       34.545       58.905       29.357       24.884     3469.767      861.846      619.215        0.673        0.248       85.561       19.283        0.051      336.972        8.631      872.527
01/16/2014  12:55:00       91.709       44.264       -4.746       43.861       33.453       28.093     1923.748     1119.131      789.239        0.711        0.192      101.833        7.160        0.005      336.690        8.162      872.512
01/16/2014  12:56:00       -2.613       32.400        0.793       28.609       28.056       20.951      818.456      787.132      438.949        0.155        0.102       32.506       13.992        0.185      337.039        8.746      872.490
01/16/2014  12:57:00       56.636       55.701       11.651       33.762       47.326       38.002     1139.878     2239.786     1444.153        0.563        0.241       79.438        7.565        0.009      336.853        8.434      872.480
01/16/2014  12:58:00        1.198       -3.442        4.811       22.126       35.532       17.818      489.542     1262.530      317.482        0.105        0.103        3.644       15.583       18.283      336.981        8.648      872.441
01/16/2014  12:59:00       30.159       70.919       61.589       71.592       67.650       60.066     5125.402     4576.524     3607.949        1.152        0.665       77.065       53.816        0.488      336.999        8.678      872.411
01/16/2014  13:00:00       76.697       15.952       25.792       28.177       45.830       35.452      793.951     2100.383     1256.826        0.548        0.208       78.338       27.259        0.121      336.751        8.264      872.387
01/16/2014  13:01:00       65.627       48.985       25.170       67.402       29.516       32.064     4542.966      871.165     1028.088        0.689        0.322       81.893       23.682        0.084      337.176        8.973      872.370
01/16/2014  13:02:00       60.377       51.284        5.445       35.328       39.570       23.788     1248.052     1565.796      565.875        0.484        0.169       79.218       17.819        0.051      337.052        8.766      872.365
01/16/2014  13:03:00       36.389      106.677       -9.956       33.611       33.472       25.408     1129.671     1120.358      645.580        0.785        0.145      112.713       17.674        0.025      336.919        8.544      872.350
01/16/2014  13:04:00      -24.727      133.677      -11.489       34.387       42.557       23.392     1182.450     1811.133      547.187        1.108        0.177      135.945       13.466        0.010      336.835        8.404      872.335
01/16/2014  13:05:00       -4.521       14.322       21.381       19.630       32.351       18.129      385.355     1046.588      328.656        0.122        0.088       15.019       17.383        1.340      337.565        9.626      872.316
01/16/2014  13:06:00       17.534       16.999       20.103       20.706       15.830       18.324      428.741      250.599      335.768        0.101        0.051       24.421        9.908        0.165      337.387        9.325      872.310
01/16/2014  13:07:00       -1.415       12.593       16.332       24.534       28.926       19.276      601.898      836.699      371.566        0.112        0.091       12.672       10.699        0.713      337.381        9.318      872.291
01/16/2014  13:08:00       26.172        6.956       46.712       43.476       52.707       45.345     1890.174     2778.026     2056.181        0.482        0.336       27.081       42.125        2.420      337.639        9.749      872.260
01/16/2014  13:09:00      107.861        4.408        0.982       47.518       69.970       38.022     2257.992     4895.766     1445.709        1.013        0.430      107.951       31.456        0.085      336.957        8.607      872.251
01/16/2014  13:10:00        5.760       83.813       -1.409       29.512       39.666       26.042      870.974     1573.370      678.173        0.509        0.156       84.010       16.495        0.039      337.101        8.848      872.213
01/16/2014  13:11:00        4.655       27.044        3.630       28.776       29.689       22.394      828.086      881.420      501.484        0.149        0.111       27.441       17.095        0.388      337.505        9.525      872.200
01/16/2014  13:12:00       43.244       25.527       19.275       35.957       49.167       33.170     1292.935     2417.349     1100.229        0.385        0.241       50.216       20.026        0.159      337.499        9.513      872.190
01/16/2014  13:13:00      120.837      106.973       55.317       48.770       36.264       33.199     2378.489     1315.085     1102.204        1.695        0.240      161.384       22.205        0.019      337.074        8.801      872.176
01/16/2014  13:14:00       36.959       52.218       67.468       33.261       31.112       19.904     1106.304      967.965      396.174        0.556        0.124       63.975       17.199        0.072      337.436        9.409      872.170
01/16/2014  13:15:00       26.505       -6.213       22.864       28.400       45.014       41.781      806.547     2026.293     1745.620        0.292        0.229       27.224       36.824        1.830      337.260        9.114      872.143
01/16/2014  13:16:00       31.890       52.229       55.402       51.035       41.561       34.570     2604.561     1727.341     1195.109        0.617        0.276       61.195       20.071        0.108      337.666        9.793      872.119
01/16/2014  13:17:00        9.470       27.941       43.131       31.957       32.860       30.688     1021.273     1079.780      941.782        0.289        0.152       29.502       22.135        0.563      337.709        9.867      872.118
01/16/2014  13:18:00       37.844        1.988       27.419       45.072       42.975       24.399     2031.480     1846.866      595.306        0.333        0.224       37.896       22.606        0.356      337.456        9.443      872.094
01/16/2014  13:19:00       44.879      -21.884       40.495       45.424       53.742       33.447     2063.295     2888.218     1118.713        0.510        0.304       49.931       32.651        0.428      337.609        9.698      872.070
01/16/2014  13:20:00       56.195       41.156       35.988       35.118       27.173       40.515     1233.294      738.396     1641.484        0.488        0.181       69.654       19.533        0.079      337.462        9.453      872.058
01/16/2014  13:21:00       -2.996       -1.173        9.385       39.657       36.526       24.265     1572.658     1334.130      588.766        0.180        0.175        3.218       17.999       31.288      337.497        9.510      872.027
01/16/2014  13:22:00       33.890      -27.524       15.584       58.968       67.093       44.112     3477.232     4501.429     1945.869        0.603        0.496       43.659       40.281        0.851      337.590        9.667      872.017
01/16/2014  13:23:00       75.454      -92.514      -11.989       41.512       48.889       28.958     1723.269     2390.145      838.573        0.967        0.248      119.382       28.695        0.058      337.207        9.024      872.009
01/16/2014  13:24:00       51.435      -69.338       -6.178       50.184       58.945       28.513     2518.400     3474.481      812.966        0.715        0.340       86.332       36.169        0.176      337.367        9.292      871.991
01/16/2014  13:25:00       21.384      -30.194       14.141       27.210       27.129       29.960      740.390      735.990      897.627        0.197        0.119       36.999       14.579        0.155      337.498        9.511      871.979
01/16/2014  13:26:00       28.688      -71.634      -20.701       24.208       46.261       27.075      586.023     2140.059      733.044        0.492        0.173       77.165       10.481        0.018      337.212        9.033      871.959
01/16/2014  13:27:00       30.251       43.333       39.866       27.468       24.313       27.708      754.464      591.144      767.746        0.325        0.106       52.847       11.355        0.046      337.571        9.635      871.932
01/16/2014  13:28:00        4.419       14.847       22.039       14.873       18.646       22.371      221.209      347.660      500.478        0.090        0.053       15.491       13.563        0.767      337.861       10.121      871.920
01/16/2014  13:29:00      -10.685       11.102       21.837       13.389       21.230       19.721      179.268      450.721      388.901        0.087        0.051       15.408       12.736        0.683      337.973       10.310      871.911
01/16/2014  13:30:00       20.959       22.115        7.771       47.027       41.107       25.517     2211.548     1689.811      651.096        0.277        0.228       30.469       15.848        0.271      337.766        9.961      871.893
01/16/2014  13:31:00       43.113       47.537        1.275       34.900       23.692       28.475     1217.985      561.331      810.798        0.335        0.130       64.176       18.280        0.081      337.445        9.423      871.881
01/16/2014  13:32:00       61.664       73.481       -0.988       51.585       30.248       26.853     2661.058      914.966      721.100        0.675        0.215       95.926       21.056        0.048      337.436        9.407      871.876
01/16/2014  13:33:00       20.717       77.368       -1.733       50.903       44.057       24.255     2591.093     1941.045      588.314        0.577        0.256       80.094       24.624        0.095      337.545        9.591      871.869
01/16/2014  13:34:00       63.948       34.601       22.721       46.702       28.019       31.554     2181.032      785.043      995.679        0.488        0.198       72.709       25.383        0.122      337.663        9.790      871.861
01/16/2014  13:35:00       49.971       16.461       20.788       45.866       50.852       24.894     2103.705     2585.881      619.694        0.425        0.265       52.613       23.699        0.203      337.622        9.720      871.861
01/16/2014  13:36:00       61.842       63.644       11.503       35.043       25.788       25.803     1228.022      665.032      665.769        0.528        0.128       88.741       15.844        0.032      337.462        9.452      871.860
01/16/2014  13:37:00       13.829       31.988       37.627       23.810       38.543       24.579      566.922     1485.558      604.124        0.264        0.133       34.849       14.405        0.171      337.957       10.281      871.857
01/16/2014  13:38:00        9.207       15.232       50.870       34.289       42.668       23.624     1175.708     1820.543      558.086        0.323        0.178       17.798       23.102        1.685      338.003       10.359      871.850
01/16/2014  13:39:00        4.668       -7.403       22.927       17.438       25.922       16.963      304.086      671.955      287.739        0.093        0.063        8.752       15.334        3.070      338.180       10.658      871.846
01/16/2014  13:40:00        3.591       38.000       11.835       18.764       29.107       18.517      352.093      847.220      342.882        0.157        0.077       38.169       16.163        0.179      338.007       10.366      871.831
01/16/2014  13:41:00      -12.566       94.874      -12.835       34.480       30.595       25.080     1188.903      936.062      629.008        0.604        0.138       95.703        6.696        0.005      337.761        9.952      871.817
01/16/2014  13:42:00        6.049       15.676        2.652       21.524       27.261       26.963      463.271      743.166      726.990        0.111        0.097       16.802       10.150        0.365      338.112       10.543      871.804
01/16/2014  13:43:00       27.188       41.817        6.715       35.580       32.070       24.797     1265.906     1028.498      614.885        0.272        0.145       49.879       18.155        0.132      337.784        9.992      871.786
01/16/2014  13:44:00        0.811        2.452       28.933       21.977       23.851       16.195      483.000      568.855      262.278        0.108        0.066        2.583       14.404       31.108      338.329       10.907      871.762
01/16/2014  13:45:00      -12.566       -5.691       23.376       15.699       33.269       24.136      246.452     1106.814      582.545        0.134        0.097       13.795       14.276        1.071      338.377       10.988      871.753
01/16/2014  13:46:00      -16.800       36.007       11.964       30.935       20.168       24.411      956.996      406.741      595.899        0.184        0.098       39.733       19.335        0.237      338.003       10.360      871.743
01/16/2014  13:47:00      -23.085       32.948       14.208       22.003       29.596       30.210      484.148      875.899      912.654        0.205        0.114       40.230       20.271        0.254      338.215       10.716      871.743
01/16/2014  13:48:00       -5.894       12.683        4.998       27.380       18.758       16.911      749.684      351.844      285.994        0.080        0.069       13.986        7.279        0.271      338.143       10.594      871.747
01/16/2014  13:49:00        8.317       12.498       25.671       27.534       39.133       31.385      758.106     1531.394      985.036        0.208        0.164       15.012       19.118        1.622      338.104       10.528      871.739
01/16/2014  13:50:00       31.972      -45.066       28.068       36.476       40.238       22.470     1330.530     1619.109      504.882        0.365        0.173       55.255       16.873        0.093      337.763        9.956      871.727
01/16/2014  13:51:00       32.085        1.178       20.569       35.737       34.423       29.051     1277.128     1184.964      843.953        0.238        0.165       32.107       22.118        0.475      337.810       10.037      871.733
01/16/2014  13:52:00       63.886       42.818       10.249       19.289       30.480       20.494      372.059      929.036      419.995        0.387        0.086       76.908       19.627        0.065      337.458        9.445      871.719
01/16/2014  13:53:00       34.634       59.381        8.213       33.510       35.340       26.513     1122.914     1248.888      702.960        0.393        0.154       68.743       23.796        0.120      337.685        9.827      871.711
01/16/2014  13:54:00       50.485       38.033        1.834       63.016       43.036       42.439     3970.990     1852.132     1801.075        0.581        0.381       63.208       42.319        0.448      338.021       10.390      871.699
01/16/2014  13:55:00       28.889        6.159        1.335       45.433       41.544       31.639     2064.127     1725.897     1001.042        0.283        0.240       29.539       23.073        0.610      338.098       10.519      871.685
01/16/2014  13:56:00       54.360      -17.199      -10.602       28.205       50.199       18.268      795.522     2519.987      333.703        0.351        0.182       57.016       11.882        0.043      337.734        9.907      871.683
01/16/2014  13:57:00       23.102      134.542      -12.135       34.353       54.665       33.154     1180.156     2988.274     1099.160        1.202        0.263      136.511       34.172        0.063      337.750        9.936      871.676
01/16/2014  13:58:00       14.404       50.805      -10.198       34.917       61.124       24.033     1219.206     3736.129      577.605        0.421        0.277       52.808       29.321        0.308      337.917       10.214      871.660
01/16/2014  13:59:00       17.461       79.888       89.883       39.033       53.327       58.812     1523.587     2843.802     3458.817        1.129        0.391       81.774       48.839        0.357      338.016       10.380      871.656
01/16/2014  14:00:00      135.182      113.513       74.022       92.237       60.590       70.999     8507.654     3671.207     5040.925        2.693        0.861      176.520       62.653        0.126      337.694        9.839      871.657
01/16/2014  14:01:00       62.367       14.742       28.119       58.692       24.768       29.088     3444.723      613.459      846.100        0.490        0.245       64.085       29.757        0.216      337.892       10.174      871.661
01/16/2014  14:02:00       65.533       53.720       32.542       67.016       34.315       48.638     4491.111     1177.508     2365.670        0.814        0.402       84.737       38.194        0.203      337.945       10.262      871.657
01/16/2014  14:03:00       12.717       19.424       16.628       26.783       31.313       21.789      717.324      980.500      474.752        0.149        0.109       23.217       11.963        0.266      338.162       10.626      871.642
01/16/2014  14:04:00        5.773       31.739       37.722       29.483       26.654       26.379      869.238      710.445      695.876        0.237        0.114       32.259       23.044        0.510      338.210       10.708      871.617
01/16/2014  14:05:00      103.558       83.196       37.014       39.362       24.387       28.104     1549.383      594.721      789.817        1.097        0.147      132.838       24.673        0.034      337.694        9.841      871.614
01/16/2014  14:06:00       27.485       17.820       -2.052       45.800       26.643       17.770     2097.643      709.838      315.766        0.210        0.156       32.756       12.763        0.152      337.782        9.989      871.607
01/16/2014  14:07:00       20.735       20.299        6.979       28.629       20.897       14.274      819.640      436.693      203.735        0.118        0.073       29.017        6.617        0.052      338.117       10.550      871.583
01/16/2014  14:08:00       41.116       29.894       18.085       21.364       26.521       22.719      456.418      703.385      516.132        0.229        0.084       50.835       18.052        0.126      338.000       10.354      871.577
01/16/2014  14:09:00       14.281       44.156        1.677       35.893       31.030       22.389     1288.285      962.872      501.279        0.245        0.138       46.408       16.763        0.130      338.104       10.529      871.568
01/16/2014  14:10:00       37.604       46.994       21.566       39.162       25.777       26.384     1533.697      664.438      696.107        0.349        0.145       60.187       20.346        0.114      338.218       10.720      871.546
01/16/2014  14:11:00       25.803       28.552       43.270       47.238       57.187       42.123     2231.446     3270.354     1774.327        0.531        0.364       38.484       43.825        1.297      338.359       10.957      871.538
01/16/2014  14:12:00       41.453       78.103       76.576       51.015       44.783       29.318     2602.516     2005.484      859.523        0.957        0.273       88.422       20.290        0.053      338.219       10.724      871.538
01/16/2014  14:13:00        6.090       33.557       -6.187       32.388       21.773       26.227     1048.981      474.046      687.861        0.171        0.111       34.105       16.600        0.237      338.074       10.479      871.529
01/16/2014  14:14:00       19.102       33.222       10.505       41.417       28.454       21.937     1715.401      809.648      481.236        0.229        0.150       38.322       14.144        0.136      338.220       10.725      871.499
01/16/2014  14:15:00       50.719       40.890       38.147       44.331       40.351       25.092     1965.239     1628.211      629.591        0.496        0.211       65.149       23.887        0.134      338.130       10.574      871.486
01/16/2014  14:16:00        3.396       19.624       28.188       28.479       29.465       16.537      811.045      868.206      273.467        0.157        0.098       19.915       12.147        0.372      338.453       11.113      871.477
01/16/2014  14:17:00       16.209       28.502       52.536       39.455       42.409       39.837     1556.719     1798.483     1586.967        0.439        0.247       32.789       36.235        1.221      338.317       10.887      871.471
01/16/2014  14:18:00       98.418       55.508       48.534       54.506       69.875       43.494     2970.866     4882.479     1891.728        1.243        0.487      112.992       46.853        0.172      338.019       10.385      871.462
01/16/2014  14:19:00       27.151       66.791       83.023       52.057       44.335       31.424     2709.929     1965.557      987.481        0.888        0.283       72.099       25.478        0.125      338.314       10.882      871.469
01/16/2014  14:20:00       23.697      -17.837       37.527       38.236       77.779       53.945     1461.974     6049.636     2910.106        0.635        0.521       29.660       61.694        4.326      338.266       10.801      871.465
01/16/2014  14:21:00       74.409     -102.537        3.097       58.565       57.906       41.038     3429.891     3353.079     1684.115        1.226        0.423      126.691       43.297        0.117      338.284       10.832      871.439
01/16/2014  14:22:00      100.238       59.103       38.584       61.595       80.058       48.505     3793.986     6409.352     2352.697        1.379        0.628      116.365       36.501        0.098      338.195       10.681      871.437
01/16/2014  14:23:00       36.967       28.558       10.219       52.802       51.349       26.991     2788.037     2636.763      728.527        0.422        0.308       46.713       27.473        0.346      338.459       11.125      871.433
01/16/2014  14:24:00       20.453      -79.549        1.687       43.340       57.025       40.870     1878.343     3251.856     1670.320        0.677        0.340       82.136       35.186        0.184      338.362       10.962      871.426
01/16/2014  14:25:00       67.189      -46.295       12.304       66.812       81.027       45.148     4463.783     6565.416     2038.313        0.994        0.653       81.594       43.690        0.287      338.343       10.930      871.410
01/16/2014  14:26:00       27.372       29.087       63.969       39.399       53.310       36.471     1552.287     2841.939     1330.163        0.570        0.286       39.941       31.204        0.610      338.396       11.019      871.421
01/16/2014  14:27:00       35.225      -70.406        2.020       33.682       50.718       31.217     1134.480     2572.310      974.528        0.544        0.234       78.727       22.066        0.079      338.341       10.927      871.419
01/16/2014  14:28:00       13.080       35.964        8.863       45.293       55.272       32.764     2051.478     3055.022     1073.486        0.386        0.309       38.269       25.209        0.434      338.458       11.124      871.414
01/16/2014  14:29:00       48.321       38.395        2.348       44.097       48.155       23.757     1944.538     2318.914      564.400        0.432        0.241       61.718        7.486        0.015      338.305       10.865      871.404
01/16/2014  14:30:00       -9.907       76.641       -7.545       25.612       53.931       20.564      655.972     2908.589      422.880        0.501        0.199       77.279       28.325        0.134      338.186       10.666      871.395
01/16/2014  14:31:00       60.929       -4.914       18.012       52.161       30.506       29.009     2720.761      930.614      841.547        0.428        0.225       61.127       18.846        0.095      338.221       10.724      871.384
01/16/2014  14:32:00       81.185       55.117       55.239       42.265       42.208       38.469     1786.301     1781.508     1479.889        0.886        0.252       98.126       27.939        0.081      338.237       10.751      871.371
01/16/2014  14:33:00       39.941       71.447       79.421       50.932       37.368       35.027     2594.096     1396.375     1226.874        0.911        0.261       81.853       27.977        0.117      338.391       11.010      871.360
01/16/2014  14:34:00       87.854       88.237       69.225       44.255       47.237       39.955     1958.514     2231.295     1596.394        1.304        0.289      124.515       27.204        0.048      338.271       10.808      871.346
01/16/2014  14:35:00       67.181       44.632       32.682       59.801       46.887       31.391     3576.107     2198.354      985.364        0.717        0.338       80.656       31.704        0.155      338.519       11.224      871.345
01/16/2014  14:36:00       80.836       57.501       38.623       55.098       36.045       25.146     3035.844     1299.252      632.338        0.815        0.248       99.201       17.410        0.031      338.423       11.064      871.354
01/16/2014  14:37:00       32.237       56.726       10.321       40.811       20.514       25.655     1665.501      420.826      658.194        0.355        0.137       65.246       27.042        0.172      338.266       10.801      871.357
01/16/2014  14:38:00       70.052       64.149       38.107       46.387       52.350       39.981     2151.710     2740.531     1598.460        0.848        0.325       94.986       36.447        0.147      338.248       10.769      871.353
01/16/2014  14:39:00       36.961       47.877       50.441       65.886       38.031       34.022     4340.947     1446.346     1157.477        0.657        0.347       60.484       20.694        0.117      338.365       10.968      871.337
01/16/2014  14:40:00        6.377      -54.117        8.370       22.476       55.938       21.793      505.173     3129.077      474.947        0.357        0.205       54.491       16.840        0.096      338.396       11.019      871.336
01/16/2014  14:41:00       40.828       42.804       69.381       47.865       51.047       28.091     2291.030     2605.789      789.130        0.700        0.284       59.154       26.579        0.202      338.450       11.110      871.336
01/16/2014  14:42:00      101.839      101.576       66.940       58.385       28.680       41.803     3408.802      822.522     1747.520        1.557        0.299      143.837       29.150        0.041      338.299       10.857      871.338
01/16/2014  14:43:00       86.055       57.598       25.969       38.260       27.215       25.003     1463.856      740.632      625.134        0.711        0.141      103.551       13.883        0.018      338.230       10.739      871.344
01/16/2014  14:44:00       96.070       71.019       20.278       35.723       26.902       28.739     1276.160      723.726      825.937        0.875        0.141      119.470       16.653        0.019      338.385       11.000      871.337
01/16/2014  14:45:00       37.444       53.246        0.124       30.640       25.157       18.930      938.797      632.874      358.352        0.308        0.097       65.094       16.316        0.063      338.415       11.052      871.323
01/16/2014  14:46:00       12.271       19.526        6.769       18.694       18.043       18.690      349.467      325.542      349.298        0.080        0.051       23.061        7.294        0.100      338.586       11.338      871.319
01/16/2014  14:47:00        7.677        6.335        6.654       29.527       20.818       14.348      871.867      433.407      205.857        0.083        0.076        9.954        7.801        0.614      338.647       11.441      871.319
01/16/2014  14:48:00        1.132       61.327       -7.301       23.134       56.533       18.397      535.192     3195.938      338.431        0.394        0.203       61.338       25.062        0.167      338.653       11.452      871.315
01/16/2014  14:49:00       52.211       56.894       19.293       31.772       30.532       29.321     1009.467      932.179      859.717        0.457        0.140       77.220        9.683        0.016      338.478       11.157      871.311
01/16/2014  14:50:00        1.189      -40.166       30.673       30.055       43.378       27.458      903.329     1881.620      753.923        0.305        0.177       40.184        7.165        0.032      338.839       11.763      871.297
01/16/2014  14:51:00       54.440     -115.042      -15.075       35.664       44.023       33.287     1271.927     1938.018     1108.026        1.037        0.216      127.272       26.313        0.043      338.671       11.480      871.287
01/16/2014  14:52:00       81.214      -43.745       10.423       57.453       66.880       39.240     3300.829     4472.928     1539.793        0.896        0.466       92.247       40.776        0.195      338.630       11.412      871.284
01/16/2014  14:53:00       34.170       -2.069        9.456       23.287       26.399       19.896      542.307      696.912      395.840        0.145        0.082       34.233        9.701        0.080      338.503       11.198      871.292
01/16/2014  14:54:00       61.906      -68.994      -12.158       42.421       36.823       32.527     1799.541     1355.935     1058.032        0.648        0.211       92.696       28.814        0.097      338.520       11.227      871.289
01/16/2014  14:55:00       22.286      -44.816        6.482       32.781       47.090       35.138     1074.602     2217.509     1234.683        0.354        0.226       50.051       24.334        0.236      338.573       11.316      871.285
01/16/2014  14:56:00       40.969      -77.741      -13.320       40.783       54.331       31.211     1663.292     2951.826      974.103        0.674        0.279       87.876       30.820        0.123      338.587       11.340      871.277
01/16/2014  14:57:00       93.442     -151.527      -27.962       32.011       34.359       19.149     1024.708     1180.562      366.667        1.752        0.129      178.022       13.193        0.005      338.432       11.080      871.263
01/16/2014  14:58:00       70.431     -122.514      -16.666       43.752       27.065       22.052     1914.216      732.535      486.300        1.169        0.157      141.316       23.837        0.028      338.473       11.150      871.264
01/16/2014  14:59:00       62.034      -76.269      -20.031       23.303       28.038       17.738      543.045      786.121      314.636        0.585        0.082       98.312        8.786        0.008      338.516       11.222      871.270
01/16/2014  15:00:00       42.043      -47.737        4.098       33.877       36.202       27.281     1147.634     1310.550      744.264        0.363        0.160       63.612       22.638        0.127      338.662       11.466      871.277
01/16/2014  15:01:00       55.932      -38.826       -7.416       22.098       18.734       18.378      488.316      350.972      337.763        0.293        0.059       68.087       12.016        0.031      338.531       11.246      871.276
01/16/2014  15:02:00       60.802      -65.398      -13.875       31.633       32.326       21.313     1000.650     1044.962      454.240        0.533        0.125       89.296       19.270        0.047      338.550       11.278      871.260
01/16/2014  15:03:00       63.162      -47.992        1.223       24.622       23.718       19.209      606.264      562.545      368.996        0.392        0.077       79.326       19.616        0.061      338.545       11.269      871.259
01/16/2014  15:04:00       28.635      -45.957        2.058       17.869       29.716       18.261      319.292      883.045      333.475        0.224        0.077       54.148       20.195        0.139      338.611       11.380      871.250
01/16/2014  15:05:00       27.253       -1.327       23.592       29.091       28.638       20.567      846.296      820.114      423.009        0.169        0.104       27.285       22.696        0.692      338.755       11.621      871.254
01/16/2014  15:06:00       59.749       31.340       -2.604       18.433       16.775       12.199      339.761      281.409      148.827        0.266        0.038       67.469       10.552        0.024      338.585       11.337      871.262
01/16/2014  15:07:00       65.166       44.024       17.331       39.438       32.349       19.659     1555.365     1046.445      386.480        0.474        0.149       78.643       10.021        0.016      338.633       11.417      871.264
01/16/2014  15:08:00      -10.361       21.071       28.901       27.398       23.025       27.210      750.636      530.144      740.390        0.170        0.101       23.480       16.210        0.477      338.990       12.018      871.266
01/16/2014  15:09:00       30.960       12.528       10.020       33.513       20.092       21.267     1123.099      403.680      452.282        0.160        0.099       33.399       17.761        0.283      338.844       11.771      871.275
01/16/2014  15:10:00       10.616       55.954       -1.408       22.364       19.957       17.141      500.142      398.288      293.810        0.222        0.060       56.953       12.032        0.045      338.719       11.561      871.268
01/16/2014  15:11:00      -17.026       33.972       -8.288       17.494       16.596       14.400      306.034      275.428      207.367        0.115        0.039       38.000        8.853        0.054      338.774       11.653      871.273
01/16/2014  15:12:00      -25.435      -12.746      -11.892       20.994       27.589       13.423      440.742      761.148      180.189        0.117        0.069       28.450       10.979        0.149      338.882       11.836      871.277
01/16/2014  15:13:00       -4.454      -20.280        6.525       19.357       22.257       22.449      374.694      495.367      503.956        0.092        0.069       20.764       16.703        0.647      339.143       12.275      871.287
01/16/2014  15:14:00       -7.218      -52.616        5.448       20.695       14.867       14.953      428.289      221.014      223.591        0.186        0.044       53.109       12.130        0.052      338.999       12.032      871.287
01/16/2014  15:15:00        3.669        1.979       13.196       11.112       11.935        8.043      123.472      142.446       64.682        0.026        0.017        4.169        7.813        3.512      339.163       12.309      871.291
01/16/2014  15:16:00        8.192       -5.726        8.200       25.627       47.501       19.387      656.764     2256.348      375.869        0.173        0.164        9.995       18.826        3.548      339.013       12.055      871.297
01/16/2014  15:17:00       67.297     -110.153      -14.985       24.294       21.938       22.941      590.180      481.288      526.306        0.924        0.080      129.083       11.094        0.007      338.773       11.651      871.296
01/16/2014  15:18:00       23.058      -27.963       20.816       37.945       32.291       24.472     1439.805     1042.691      598.857        0.241        0.154       36.244       25.547        0.497      339.049       12.116      871.291
01/16/2014  15:19:00       17.100      -21.599       10.461       18.740       21.189       13.823      351.200      448.956      191.070        0.093        0.050       27.548       13.327        0.234      339.094       12.192      871.302
01/16/2014  15:20:00       43.732      -30.498       10.172       39.010       43.319       19.323     1521.741     1876.570      373.396        0.336        0.189       53.316       25.738        0.233      339.069       12.151      871.300
01/16/2014  15:21:00       45.120      -40.009        9.358       29.921       63.833       26.127      895.252     4074.639      682.641        0.469        0.283       60.304       25.822        0.183      339.048       12.114      871.299
01/16/2014  15:22:00       62.105       27.469       29.545       43.762       24.843       26.005     1915.143      617.155      676.238        0.435        0.160       67.908       21.240        0.098      338.900       11.865      871.307
01/16/2014  15:23:00      106.775       56.902       11.138       27.224       20.393       28.395      741.122      415.856      806.279        0.836        0.098      120.991       17.309        0.020      338.757       11.624      871.307
01/16/2014  15:24:00       46.096       30.043       34.307       66.447       34.923       25.326     4415.180     1219.591      641.405        0.524        0.314       55.021       21.048        0.146      338.884       11.840      871.301
01/16/2014  15:25:00        6.933       70.650       82.895       36.101       42.140       34.221     1303.300     1775.772     1171.064        0.808        0.213       70.990       34.365        0.234      338.873       11.819      871.298
01/16/2014  15:26:00       40.170       69.126       65.387       39.833       44.739       33.966     1586.687     2001.556     1153.706        0.770        0.237       79.951       30.194        0.143      338.906       11.876      871.289
01/16/2014  15:27:00       71.231       75.308       10.451       41.931       30.064       41.914     1758.201      903.825     1756.773        0.764        0.221      103.659       16.197        0.024      338.900       11.866      871.284
01/16/2014  15:28:00       26.288       15.325       18.582       19.295       25.780       24.182      372.299      664.585      584.765        0.145        0.081       30.429       18.098        0.354      338.959       11.964      871.279
01/16/2014  15:29:00       -2.197       40.978       -4.501       27.185       26.103       15.905      739.023      681.356      252.980        0.169        0.084       41.037       14.302        0.121      338.913       11.887      871.268
01/16/2014  15:30:00       11.093       23.265       -0.628       17.899       16.284       13.350      320.377      265.169      178.213        0.071        0.038       25.774        7.444        0.083      338.954       11.955      871.264
01/16/2014  15:31:00       27.064       51.606       61.467       39.475       28.058       32.193     1558.256      787.255     1036.384        0.528        0.169       58.272       26.972        0.214      338.913       11.887      871.247
01/16/2014  15:32:00       64.942       78.358       55.445       52.095       33.330       35.436     2713.909     1110.862     1255.739        0.926        0.254      101.772       22.157        0.047      338.866       11.808      871.249
01/16/2014  15:33:00       33.378       28.813       54.516       29.399       27.314       23.477      864.302      746.066      551.184        0.354        0.108       44.094       17.592        0.159      338.994       12.025      871.250
01/16/2014  15:34:00       95.545       80.184       60.739       46.007       28.979       29.311     2116.655      839.761      859.147        1.153        0.191      124.733       24.550        0.039      338.900       11.867      871.243
01/16/2014  15:35:00       27.339       58.840       56.368       29.187       27.117       19.684      851.900      735.319      387.472        0.468        0.099       64.882       15.654        0.058      339.021       12.069      871.249
01/16/2014  15:36:00       33.607        3.719       17.355       31.294       34.717       22.134      979.290     1205.302      489.912        0.206        0.134       33.812       25.228        0.557      339.085       12.178      871.236
01/16/2014  15:37:00       30.411      -27.629        6.406       24.222       28.926       14.395      586.715      836.704      207.229        0.168        0.082       41.087       12.986        0.100      339.069       12.150      871.233
01/16/2014  15:38:00       36.707      -24.385        4.737       26.398       24.218       14.490      696.870      586.508      209.967        0.173        0.075       44.068       17.484        0.157      339.069       12.150      871.227
01/16/2014  15:39:00       62.913      -32.506        6.839       23.852       22.193       19.909      568.929      492.547      396.353        0.326        0.073       70.815       16.424        0.054      338.951       11.952      871.231
01/16/2014  15:40:00       30.788      -28.865        7.770       42.341       32.067       24.659     1792.744     1028.271      608.075        0.263        0.171       42.203       23.246        0.303      339.127       12.249      871.231
01/16/2014  15:41:00       79.766      -78.138      -12.240       33.288       31.926       25.059     1108.105     1019.268      627.938        0.769        0.138      111.661       16.538        0.022      339.041       12.102      871.229
01/16/2014  15:42:00       25.684      -67.181        7.203       39.818       34.914       35.531     1585.496     1219.018     1262.439        0.465        0.203       71.923       26.816        0.139      339.179       12.334      871.226
01/16/2014  15:43:00       22.164      -67.053      -11.150       36.413       34.309       21.055     1325.873     1177.119      443.313        0.403        0.147       70.621       11.858        0.028      339.159       12.300      871.219
01/16/2014  15:44:00       36.336      -82.225      -16.045       45.221       30.728       23.271     2044.967      944.207      541.545        0.593        0.177       89.896       22.185        0.061      339.146       12.279      871.210
01/16/2014  15:45:00       56.485      -45.588        2.636       40.874       40.572       29.726     1670.678     1646.071      883.626        0.474        0.210       72.587       31.045        0.183      339.075       12.160      871.206
01/16/2014  15:46:00       43.803      -69.916       -7.589       37.567       46.202       24.911     1411.311     2134.630      620.554        0.551        0.208       82.505       14.482        0.031      339.065       12.141      871.205
01/16/2014  15:47:00       48.852      -78.443       -2.121       36.049       41.917       21.494     1299.505     1757.022      461.996        0.603        0.176       92.411        9.870        0.011      339.075       12.160      871.210
01/16/2014  15:48:00       58.355      -86.074       -5.470       40.173       36.909       26.547     1613.856     1362.274      704.721        0.726        0.184      103.991       16.787        0.026      339.059       12.132      871.214
01/16/2014  15:49:00       36.263      -24.206       22.473       33.775       51.263       38.587     1140.752     2627.917     1488.933        0.383        0.263       43.600       33.993        0.608      339.094       12.191      871.226
01/16/2014  15:50:00       26.464        2.984       36.452       39.023       50.450       32.432     1522.765     2545.160     1051.809        0.358        0.256       26.632       38.642        2.105      339.095       12.193      871.242
01/16/2014  15:51:00       54.979      -38.506       -2.125       33.150       28.973       21.969     1098.905      839.443      482.659        0.346        0.121       67.122       19.630        0.086      339.022       12.071      871.250
01/16/2014  15:52:00       58.077      -41.281       -6.281       20.230       31.912       11.143      409.266     1018.399      124.164        0.333        0.078       71.253        5.461        0.006      338.956       11.959      871.254
01/16/2014  15:53:00       34.586        4.757        1.197       16.298       20.274       22.112      265.616      411.047      488.945        0.119        0.058       34.911        6.792        0.038      339.095       12.193      871.259
01/16/2014  15:54:00        7.691      -30.292       -3.318       27.691       30.560       17.860      766.813      933.892      318.965        0.150        0.101       31.254       15.695        0.252      339.191       12.355      871.270
01/16/2014  15:55:00       54.480      -55.840       -0.633       53.966       52.976       27.756     2912.340     2806.487      770.413        0.629        0.324       78.014       35.099        0.202      339.063       12.139      871.276
01/16/2014  15:56:00       83.074      -65.025      -10.091       39.956       35.955       23.353     1596.477     1292.758      545.373        0.733        0.172      105.497       19.276        0.033      338.965       11.974      871.277
01/16/2014  15:57:00       39.171      -41.129        7.917       31.016       54.201       26.284      961.966     2937.753      690.860        0.394        0.230       56.797       32.393        0.325      339.020       12.068      871.272
01/16/2014  15:58:00       58.172      -53.322        5.700       47.245       31.446       25.201     2232.065      988.856      635.099        0.506        0.193       78.913       27.759        0.124      339.042       12.104      871.264
01/16/2014  15:59:00       30.625      -57.202        5.091       33.710       30.064       19.832     1136.395      903.855      393.309        0.333        0.122       64.885       18.311        0.080      339.113       12.223      871.265
01/16/2014  16:00:00       48.391      -55.569        1.366       29.662       32.551       24.239      879.810     1059.559      587.535        0.398        0.126       73.686       18.523        0.063      339.099       12.199      871.256
01/16/2014  16:01:00       26.888       -9.029        8.340       26.334       25.937       15.688      693.488      672.711      246.103        0.124        0.081       28.363       14.304        0.254      339.078       12.165      871.254
01/16/2014  16:02:00       22.004       41.835       43.418       24.264       22.970       13.021      588.765      527.627      169.540        0.270        0.064       47.269       11.610        0.060      338.999       12.033      871.259
01/16/2014  16:03:00       13.222       11.423       31.832       25.366       32.633       20.019      643.418     1064.897      400.765        0.171        0.105       17.473       24.922        2.034      339.090       12.185      871.261
01/16/2014  16:04:00        5.131        3.434       26.215       16.853       20.963       12.552      284.010      439.454      157.550        0.080        0.044        6.174       10.953        3.148      339.185       12.345      871.264
01/16/2014  16:05:00        6.860      -21.893       11.500       18.134       42.868       26.202      328.842     1837.650      686.526        0.176        0.143       22.943       30.352        1.750      339.155       12.294      871.268
01/16/2014  16:06:00       35.646      -83.477      -19.203       33.291       23.312       12.108     1108.260      543.451      146.609        0.520        0.090       90.769        5.886        0.004      339.093       12.189      871.269
01/16/2014  16:07:00       31.993      -92.830      -15.749       33.426       22.023       17.798     1117.322      485.021      316.775        0.590        0.096       98.188       13.539        0.019      339.090       12.186      871.267
01/16/2014  16:08:00       43.468      -79.620      -14.060       22.553       21.386       16.278      508.653      457.379      264.977        0.483        0.062       90.713        9.010        0.010      339.121       12.236      871.272
01/16/2014  16:09:00        6.086      -28.612        4.334       15.787       29.586       16.111      249.219      875.352      259.561        0.113        0.069       29.252       15.255        0.272      339.208       12.383      871.271
01/16/2014  16:10:00      -39.332        0.151        3.360       26.784       13.189       12.414      717.394      173.941      154.117        0.130        0.052       39.333       11.959        0.092      339.201       12.372      871.276
01/16/2014  16:11:00      -32.907      -14.643       -9.211       15.164       18.758       14.919      229.958      351.845      222.565        0.109        0.040       36.018        5.785        0.026      339.304       12.546      871.278
01/16/2014  16:12:00       -9.956      -10.394        5.872       26.548       16.003       11.099      704.776      256.093      123.185        0.066        0.054       14.393       12.093        0.706      339.345       12.615      871.284
01/16/2014  16:13:00       -2.513      -22.770      -11.179       20.216       18.920       13.956      408.684      357.956      194.759        0.081        0.048       22.909       12.491        0.297      339.185       12.346      871.280
01/16/2014  16:14:00      -15.035      -11.499        0.291       42.648       14.580       12.002     1818.840      212.564      144.053        0.127        0.109       18.928        9.540        0.254      339.153       12.290      871.289
01/16/2014  16:15:00      -31.684      -33.947       11.145       41.396       29.381       15.798     1713.634      863.237      249.569        0.255        0.141       46.436       18.409        0.157      339.224       12.409      871.291
01/16/2014  16:16:00      -35.363      -28.669        6.813       39.800       33.288       20.282     1584.036     1108.082      411.357        0.261        0.155       45.524       19.553        0.184      339.137       12.265      871.291
01/16/2014  16:17:00      -42.900       -7.973        9.568       37.520       22.175       14.568     1407.750      491.712      212.238        0.205        0.106       43.634       18.096        0.172      339.127       12.247      871.303
01/16/2014  16:18:00      -44.316      -35.907        4.241       41.544       19.009       13.486     1725.899      361.350      181.876        0.277        0.113       57.037        7.008        0.015      339.194       12.361      871.311
01/16/2014  16:19:00       -8.523      -30.828        6.166       17.307       19.790       12.372      299.530      391.647      153.054        0.095        0.042       31.984        7.799        0.059      339.200       12.371      871.317
01/16/2014  16:20:00      -10.302       -9.410        7.274       16.682       15.479        9.611      278.280      239.602       92.374        0.043        0.031       13.952        5.074        0.132      339.213       12.392      871.315
01/16/2014  16:21:00      -15.369       -6.879        4.088       15.231       21.547       12.444      231.992      464.290      154.847        0.058        0.043       16.838        8.891        0.279      339.093       12.191      871.317
01/16/2014  16:22:00      -16.717      -10.146       11.101       18.193       35.223       19.504      330.995     1240.689      380.418        0.123        0.098       19.555       11.506        0.346      339.105       12.210      871.310
01/16/2014  16:23:00       21.448       -1.026       16.641       27.250       16.646       14.811      742.587      277.101      219.352        0.099        0.062       21.472       14.297        0.443      338.967       11.979      871.305
01/16/2014  16:24:00        5.634        3.476       25.902       14.818       24.321       17.975      219.581      591.531      323.109        0.092        0.057        6.620       15.093        5.197      339.018       12.065      871.299
01/16/2014  16:25:00        5.087       25.039       39.893       20.638       24.379       14.315      425.937      594.327      204.908        0.173        0.061       25.551       12.534        0.241      338.948       11.947      871.291
01/16/2014  16:26:00       12.620       23.488       27.858       25.783       15.616       16.138      664.783      243.861      260.440        0.133        0.058       26.664       13.274        0.248      338.896       11.858      871.286
01/16/2014  16:27:00       30.809        4.221       16.659       31.715       23.118       15.448     1005.811      534.460      238.633        0.151        0.089       31.097       16.852        0.294      338.901       11.868      871.284
01/16/2014  16:28:00       45.813       22.439       20.245       22.158       20.359       19.671      490.987      414.477      386.953        0.215        0.065       51.013       13.517        0.070      338.851       11.782      871.285
01/16/2014  16:29:00       63.555       21.787       28.699       29.796       24.330       24.710      887.794      591.953      610.567        0.371        0.105       67.186       13.778        0.042      338.855       11.791      871.289
01/16/2014  16:30:00       46.605       45.525       33.406       35.865       24.194       27.353     1286.276      585.373      748.173        0.399        0.131       65.150       19.068        0.086      338.821       11.732      871.300
01/16/2014  16:31:00        7.669       47.927       57.342       19.676       28.501       10.958      387.152      812.290      120.084        0.348        0.066       48.537       11.870        0.060      339.021       12.069      871.294
01/16/2014  16:32:00       19.026       50.117       61.817       33.014       28.813       20.523     1089.931      830.191      421.201        0.452        0.117       53.607       16.597        0.096      339.014       12.057      871.284
01/16/2014  16:33:00       50.845       36.702       51.366       35.910       24.624       23.634     1289.547      606.343      558.569        0.451        0.123       62.708       20.138        0.103      338.906       11.875      871.278
01/16/2014  16:34:00       54.450       26.082       39.282       27.836       25.057       24.955      774.855      627.852      622.755        0.361        0.101       60.374       21.408        0.126      338.922       11.903      871.280
01/16/2014  16:35:00       43.941        0.898       18.948       23.342       15.178       19.215      544.851      230.384      369.233        0.172        0.057       43.950       12.582        0.082      338.927       11.911      871.275
01/16/2014  16:36:00       24.762       40.639       29.496       21.800       24.390       27.651      475.239      594.879      764.551        0.248        0.092       47.589       24.003        0.254      338.910       11.882      871.276
01/16/2014  16:37:00       46.276       33.643        1.994       19.864       19.873       18.473      394.589      394.930      341.264        0.220        0.057       57.213       12.068        0.044      338.687       11.510      871.272
01/16/2014  16:38:00       56.509       30.036       10.056       24.478       17.711       18.265      599.150      313.685      333.612        0.272        0.062       63.996       12.279        0.037      338.563       11.299      871.283
01/16/2014  16:39:00       63.994        9.785       12.125       28.191       20.986       17.239      794.726      440.415      297.193        0.293        0.077       64.737       12.907        0.040      338.599       11.360      871.287
01/16/2014  16:40:00       48.111       21.304       15.049       29.678       21.703       17.044      880.775      471.034      290.510        0.232        0.082       52.617       13.209        0.063      338.566       11.304      871.274
01/16/2014  16:41:00       58.538       13.806       18.125       20.689       17.963       15.883      428.050      322.656      252.277        0.247        0.050       60.144       10.136        0.028      338.692       11.517      871.263
01/16/2014  16:42:00       61.204       28.541       14.745       23.806       17.825       13.347      566.714      317.727      178.155        0.292        0.053       67.532        9.577        0.020      338.723       11.567      871.252
01/16/2014  16:43:00       63.924        8.177        4.776       14.739       18.714       12.918      217.246      350.203      166.868        0.246        0.037       64.445       10.348        0.026      338.768       11.645      871.257
01/16/2014  16:44:00       53.380       -1.263        5.011       22.343       18.341       17.935      499.229      336.380      321.647        0.202        0.058       53.395        7.627        0.020      338.745       11.606      871.243
01/16/2014  16:45:00       23.944       18.142       32.795       42.792       23.927       23.778     1831.189      572.518      565.387        0.247        0.148       30.040       18.369        0.374      338.611       11.381      871.239
01/16/2014  16:46:00       55.068       20.483       10.049       36.764       23.442       22.094     1351.589      549.543      488.142        0.297        0.119       58.754       15.575        0.070      338.639       11.428      871.240
01/16/2014  16:47:00       34.001       31.540       44.043       37.394       35.476       30.943     1398.277     1258.571      957.470        0.385        0.181       46.377       31.183        0.452      338.655       11.455      871.238
01/16/2014  16:48:00       16.875       16.132       27.945       20.917       20.141       19.498      437.511      405.644      380.174        0.127        0.061       23.346       16.314        0.488      338.630       11.410      871.229
01/16/2014  16:49:00       24.881       41.876       43.059       23.743       15.407       11.388      563.745      237.380      129.693        0.258        0.047       48.710       10.448        0.046      338.457       11.123      871.234
01/16/2014  16:50:00       57.922       27.615       25.367       29.214       21.455       21.712      853.468      460.305      471.391        0.327        0.089       64.169       14.111        0.048      338.538       11.257      871.216
01/16/2014  16:51:00       57.110       25.710       39.777       38.940       28.607       24.640     1516.316      818.354      607.143        0.422        0.147       62.630       22.580        0.130      338.528       11.241      871.206
01/16/2014  16:52:00       68.827       26.695       41.052       29.758       23.044       26.412      885.525      531.025      697.581        0.462        0.106       73.823       16.013        0.047      338.544       11.267      871.205
01/16/2014  16:53:00       33.996       50.303       55.025       29.690       28.263       19.935      881.500      798.819      397.399        0.440        0.104       60.713       17.440        0.083      338.592       11.348      871.201
01/16/2014  16:54:00       33.294       40.985       44.155       23.979       19.971       21.840      575.014      398.830      476.988        0.309        0.073       52.804       19.406        0.135      338.605       11.369      871.198
01/16/2014  16:55:00       13.588       39.906       47.851       19.024       19.776       12.821      361.915      391.088      164.385        0.249        0.046       42.156        8.612        0.042      338.588       11.340      871.186
01/16/2014  16:56:00        0.405       18.159       38.778       10.723       25.183       17.537      114.973      634.183      307.549        0.144        0.053       18.164       18.934        1.087      338.479       11.159      871.188
01/16/2014  16:57:00       26.533      -33.235        4.996       20.095       35.821       18.624      403.802     1283.170      346.843        0.193        0.102       42.527       20.734        0.238      338.524       11.234      871.177
01/16/2014  16:58:00       21.391       -2.735       13.622       16.306       35.442       10.909      265.894     1256.130      119.002        0.115        0.082       21.565       12.895        0.358      338.492       11.180      871.185
01/16/2014  16:59:00       43.649       21.752       19.411       18.996       14.646       14.343      360.836      214.492      205.720        0.177        0.039       48.769        9.897        0.041      338.364       10.964      871.192
01/16/2014  17:00:00       33.229        9.739       11.011       15.168       13.254       11.653      230.060      175.663      135.791        0.093        0.027       34.627        9.128        0.069      338.277       10.818      871.203
01/16/2014  17:01:00       21.684        5.882       13.509       23.509       11.353       12.049      552.668      128.886      145.171        0.076        0.041       22.467        5.600        0.062      338.347       10.936      871.206
01/16/2014  17:02:00       -6.310       -6.696        3.555       16.830        9.110        6.755      283.239       82.989       45.637        0.025        0.021        9.201        7.450        0.656      338.446       11.101      871.209
01/16/2014  17:03:00      -33.010       -8.767       -6.400        9.143        8.080        7.147       83.589       65.293       51.082        0.070        0.010       34.154        5.176        0.023      337.956       10.280      871.222
01/16/2014  17:04:00      -36.198      -10.664       -4.942        9.673        8.668        7.379       93.569       75.134       54.450        0.084        0.011       37.736        5.109        0.018      337.851       10.106      871.226
01/16/2014  17:05:00     -104.919       -3.180      -10.439       50.560       39.266       16.459     2556.292     1541.796      270.886        0.775        0.218      104.967       11.891        0.013      337.757        9.948      871.233
01/16/2014  17:06:00     -106.920       23.120      -13.886       35.870       22.796       16.166     1286.667      519.660      261.326        0.711        0.103      109.391       15.199        0.019      337.778        9.983      871.244
01/16/2014  17:07:00      -95.534      -15.071       -8.077       37.627       32.848       18.706     1415.794     1078.973      349.904        0.613        0.142       96.716       15.028        0.024      337.622        9.721      871.253
01/16/2014  17:08:00      -88.778        5.049       -9.925       48.369       24.026       20.790     2339.569      577.228      432.218        0.568        0.167       88.922       20.160        0.051      337.475        9.473      871.259
01/16/2014  17:09:00     -113.671        5.958       -7.323       58.557       36.440       22.267     3428.885     1327.837      495.812        0.913        0.263      113.827       25.119        0.049      337.495        9.507      871.268
01/16/2014  17:10:00      -82.888       -9.732       -4.320       48.145       30.591       21.639     2317.917      935.823      468.249        0.535        0.186       83.458       20.533        0.061      337.342        9.251      871.280
01/16/2014  17:11:00      -51.660       -6.310       -9.172       26.864       18.732       18.536      721.696      350.898      343.574        0.210        0.071       52.044       15.245        0.086      337.222        9.052      871.282
01/16/2014  17:12:00      -66.241      -16.336      -12.737       23.287       27.939       14.228      542.280      780.575      202.425        0.317        0.076       68.226       14.066        0.043      337.220        9.047      871.275
01/16/2014  17:13:00      -53.592      -12.428      -13.046       31.988       25.859       16.208     1023.229      668.670      262.700        0.258        0.098       55.014       13.943        0.064      337.177        8.977      871.269
01/16/2014  17:14:00      -66.076      -14.442      -10.758       24.654       23.176       16.418      607.827      537.112      269.547        0.305        0.071       67.636       12.105        0.032      337.153        8.936      871.269
01/16/2014  17:15:00      -78.137        0.412      -15.937       31.841       24.226       13.970     1013.834      586.911      195.171        0.408        0.090       78.138       12.182        0.024      337.201        9.016      871.277
01/16/2014  17:16:00      -60.661       -8.205      -10.640       33.587       27.028       19.189     1128.076      730.488      368.218        0.304        0.111       61.213       14.206        0.054      337.093        8.834      871.280
01/16/2014  17:17:00      -59.511        0.075      -17.059       25.662       25.960       20.273      658.517      673.925      411.001        0.279        0.087       59.511       11.190        0.035      337.093        8.833      871.286
01/16/2014  17:18:00      -48.021       -7.066      -12.944       14.639       19.113       12.815      214.298      365.304      164.228        0.163        0.037       48.538        3.370        0.005      337.063        8.783      871.287
01/16/2014  17:19:00      -90.273       -5.965      -11.117       26.820       19.861       12.404      719.288      394.440      153.869        0.479        0.063       90.469        8.829        0.010      336.951        8.595      871.282
01/16/2014  17:20:00      -52.871       -9.063      -11.650       15.115        9.731        8.123      228.470       94.684       65.984        0.170        0.019       53.642        6.773        0.016      336.940        8.578      871.276
01/16/2014  17:21:00      -77.525      -14.355      -11.590       23.779       21.111       12.506      565.423      445.687      156.409        0.376        0.058       78.843       10.463        0.018      336.979        8.641      871.270
01/16/2014  17:22:00      -59.046      -11.334      -17.576       34.743       13.207       14.212     1207.050      174.418      201.974        0.275        0.079       60.124       16.125        0.072      336.896        8.506      871.267
01/16/2014  17:23:00      -81.040       -5.777      -11.355       21.237       11.698       12.385      451.025      136.850      153.386        0.374        0.037       81.245       10.418        0.016      336.883        8.484      871.274
01/16/2014  17:24:00      -79.591      -17.391      -13.936       22.119       18.345       12.032      489.250      336.524      144.766        0.390        0.049       81.469       10.982        0.018      336.773        8.300      871.270
01/16/2014  17:25:00      -75.286      -23.741      -12.163       17.961       19.487       18.175      322.597      379.745      330.318        0.371        0.052       78.941       11.129        0.020      336.724        8.220      871.270
01/16/2014  17:26:00      -74.883      -15.994      -17.989       13.725       15.215        9.498      188.374      231.486       90.203        0.335        0.026       76.572        4.191        0.003      336.859        8.443      871.270
01/16/2014  17:27:00      -60.498      -19.022      -15.754       12.590       13.547       10.619      158.499      183.522      112.769        0.236        0.023       63.418        5.772        0.008      336.831        8.396      871.274
01/16/2014  17:28:00      -65.489       -7.761      -11.383       11.269        9.382        8.727      126.987       88.027       76.157        0.238        0.015       65.947        3.989        0.004      336.893        8.500      871.276
01/16/2014  17:29:00      -54.051      -17.924      -12.091       12.838       11.734        7.609      164.806      137.692       57.893        0.187        0.018       56.946        6.804        0.014      336.785        8.322      871.274
01/16/2014  17:30:00       -7.642        3.788        4.349       21.871       14.513       10.586      478.354      210.621      112.071        0.045        0.040        8.529        7.685        0.812      337.042        8.750      871.278
01/16/2014  17:31:00       16.429       39.050       -4.663       15.246       28.534        9.106      232.433      814.211       82.919        0.147        0.056       42.365       12.942        0.093      337.137        8.908      871.290
01/16/2014  17:32:00      -23.547       92.365       -7.927       26.018       25.983       14.257      676.925      675.126      203.255        0.535        0.078       95.319        8.458        0.008      337.472        9.470      871.299
01/16/2014  17:33:00        1.864       67.888      -12.609       15.293       22.105        7.544      233.869      488.623       56.908        0.278        0.039       67.914        7.278        0.011      337.463        9.454      871.312
01/16/2014  17:34:00       11.676       51.207        2.078       13.358       30.212       15.944      178.430      912.753      254.218        0.205        0.067       52.521       16.579        0.100      337.359        9.278      871.329
01/16/2014  17:35:00       14.329       32.757        0.577       26.068       20.757       12.413      679.530      430.873      154.089        0.127        0.063       35.754        9.801        0.075      337.474        9.471      871.347
01/16/2014  17:36:00      -21.351       15.546       -4.394       28.886       29.900        9.541      834.416      893.982       91.037        0.127        0.091       26.411        8.807        0.111      337.177        8.976      871.360
01/16/2014  17:37:00      -61.773       12.421      -13.258       17.254       16.717        7.393      297.716      279.451       54.651        0.239        0.032       63.009        5.135        0.007      336.572        7.963      871.371
01/16/2014  17:38:00      -69.768        8.860      -12.890       11.743       14.344       10.818      137.902      205.757      117.025        0.279        0.023       70.329        7.271        0.011      336.575        7.969      871.368
01/16/2014  17:39:00      -64.513      -17.235      -16.284       11.238       11.424       10.265      126.293      130.508      105.370        0.254        0.018       66.775        7.132        0.011      336.517        7.872      871.373
01/16/2014  17:40:00      -86.061       -5.920      -21.374       13.986       13.438        9.800      195.611      180.589       96.048        0.419        0.024       86.264        6.296        0.005      336.554        7.934      871.367
01/16/2014  17:41:00      -55.232      -12.195      -18.018       20.136       11.336        9.571      405.475      128.507       91.606        0.207        0.031       56.562        8.323        0.022      336.689        8.159      871.360
01/16/2014  17:42:00     -100.440       -4.025      -18.606       16.528       16.576       11.944      273.186      274.756      142.654        0.557        0.035      100.521        9.300        0.009      336.409        7.693      871.350
01/16/2014  17:43:00      -79.264        9.351       -8.573       32.810       31.016       24.507     1076.514      961.996      600.602        0.454        0.132       79.813       19.267        0.058      336.208        7.356      871.358
01/16/2014  17:44:00      -70.661        0.666       -9.978       37.711       29.827       20.915     1422.138      889.650      437.443        0.392        0.137       70.664        9.754        0.019      336.110        7.192      871.361
01/16/2014  17:45:00      -82.015        2.090      -12.814       49.756       21.574       21.134     2475.657      465.455      446.661        0.514        0.169       82.041       23.982        0.085      336.047        7.087      871.355
01/16/2014  17:46:00      -93.091       -4.435      -12.111       29.071       21.268       17.013      845.113      452.331      289.434        0.521        0.079       93.196        6.775        0.005      335.951        6.927      871.361
01/16/2014  17:47:00     -102.565       -2.886      -22.753       20.651       19.772       14.796      426.470      390.935      218.922        0.604        0.052      102.605        8.439        0.007      335.957        6.936      871.354
01/16/2014  17:48:00     -108.363      -15.089      -21.259       24.029       23.304       14.318      577.385      543.095      204.997        0.687        0.066      109.408       14.892        0.019      336.036        7.069      871.348
01/16/2014  17:49:00      -87.278      -12.288      -17.376       16.316       18.872       13.059      266.205      356.148      170.526        0.443        0.040       88.138       10.677        0.015      335.964        6.949      871.345
01/16/2014  17:50:00     -108.682       11.655      -20.142       30.833       26.363       23.362      950.674      694.998      545.803        0.727        0.110      109.305       16.325        0.022      335.940        6.907      871.344
01/16/2014  17:51:00     -132.299       10.627      -24.814       32.518       25.986       19.413     1057.415      675.281      376.854        1.017        0.105      132.726       11.529        0.008      335.897        6.837      871.345
01/16/2014  17:52:00      -77.713        3.707       -8.204       41.592       28.309       28.474     1729.878      801.395      810.788        0.473        0.167       77.802       24.197        0.097      335.765        6.618      871.345
01/16/2014  17:53:00      -99.367      -14.399      -15.948       17.683       17.347       13.101      312.677      300.925      171.636        0.556        0.039      100.405        8.659        0.007      335.634        6.400      871.339
01/16/2014  17:54:00     -113.714        0.047      -17.831       17.820       16.149       15.317      317.536      260.783      234.613        0.703        0.041      113.714        9.498        0.007      335.605        6.350      871.342
01/16/2014  17:55:00      -92.743        1.654      -17.071       44.021       25.019       22.255     1937.806      625.937      495.283        0.598        0.153       92.758       20.810        0.050      335.617        6.372      871.345
01/16/2014  17:56:00      -73.295       -2.224       -8.993       51.296       28.154       20.831     2631.295      792.623      433.912        0.466        0.193       73.329       25.071        0.117      335.702        6.512      871.339
01/16/2014  17:57:00      -92.635        9.024       -8.548       43.507       32.474       19.017     1892.869     1054.567      361.628        0.602        0.165       93.074       15.831        0.029      335.651        6.426      871.341
01/16/2014  17:58:00      -80.171       -4.597      -14.925       43.996       40.447       22.217     1935.657     1635.923      493.587        0.537        0.203       80.303       17.477        0.047      335.705        6.518      871.340
01/16/2014  17:59:00     -110.535       -7.790      -16.798       29.388       34.575       20.853      863.684     1195.424      434.830        0.753        0.125      110.809       17.364        0.025      335.779        6.641      871.343
01/16/2014  18:00:00      -95.386      -22.551      -13.086       22.763       25.649       17.622      518.139      657.853      310.547        0.563        0.074       98.015       10.420        0.011      335.564        6.283      871.344
01/16/2014  18:01:00     -115.351      -19.510      -14.815       45.234       25.236       21.013     2046.108      636.876      441.535        0.851        0.156      116.990       22.620        0.037      335.531        6.228      871.331
01/16/2014  18:02:00      -55.038       -4.414        0.645       43.157       43.748       24.957     1862.525     1913.854      622.861        0.372        0.220       55.215       22.475        0.166      335.610        6.358      871.329
01/16/2014  18:03:00     -101.580       -7.312      -19.255       34.139       35.315       23.758     1165.471     1247.167      564.451        0.686        0.149      101.843       13.562        0.018      335.814        6.699      871.327
01/16/2014  18:04:00     -123.540       10.893      -18.274       57.472       41.747       30.294     3303.011     1742.847      917.734        1.084        0.298      124.019       26.837        0.047      335.820        6.709      871.315
01/16/2014  18:05:00      -91.266        8.156      -10.521       53.816       45.324       30.993     2896.123     2054.221      960.552        0.721        0.296       91.630       28.951        0.100      335.780        6.642      871.305
01/16/2014  18:06:00      -81.019       18.728      -14.953       47.482       43.153       25.240     2254.524     1862.153      637.059        0.595        0.238       83.155       16.459        0.039      335.694        6.499      871.305
01/16/2014  18:07:00      -76.630       17.743      -18.942       51.392       44.521       25.289     2641.138     1982.148      639.524        0.590        0.263       78.657       18.751        0.057      335.765        6.616      871.304
01/16/2014  18:08:00      -78.927       24.597      -17.252       52.528       40.567       28.078     2759.236     1645.683      788.398        0.616        0.260       82.671       28.187        0.116      335.756        6.602      871.296
01/16/2014  18:09:00      -78.966       34.793      -25.985       37.746       34.921       23.609     1424.755     1219.456      557.361        0.566        0.160       86.291       18.134        0.044      335.708        6.522      871.297
01/16/2014  18:10:00      -76.612       -0.334       -8.440       38.946       29.832       26.633     1516.812      889.918      709.293        0.453        0.156       76.613       25.096        0.107      335.569        6.292      871.308
01/16/2014  18:11:00     -117.380        6.369      -17.676       45.781       26.175       22.464     2095.892      685.148      504.633        0.871        0.164      117.553       16.720        0.020      335.506        6.184      871.324
01/16/2014  18:12:00     -167.153       14.550      -25.170       36.944       22.640       21.993     1364.875      512.587      483.674        1.557        0.118      167.786       15.421        0.008      335.530        6.224      871.334
01/16/2014  18:13:00     -152.582        3.481      -18.794       31.271       20.785       16.812      977.875      432.036      282.635        1.267        0.085      152.622       12.927        0.007      335.466        6.117      871.334
01/16/2014  18:14:00     -136.968       14.343      -15.834       45.618       22.369       24.341     2080.989      500.360      592.504        1.119        0.159      137.717       25.683        0.035      335.410        6.025      871.322
01/16/2014  18:15:00     -144.873        7.877      -18.886       34.498       19.663       21.566     1190.088      386.642      465.114        1.172        0.102      145.087       18.148        0.016      335.424        6.048      871.306
01/16/2014  18:16:00     -128.262        2.538      -17.676       31.283       16.386       19.711      978.633      268.493      388.508        0.920        0.082      128.287       14.339        0.012      335.445        6.085      871.296
01/16/2014  18:17:00     -106.607        0.126      -10.774       33.043       23.911       21.009     1091.848      571.734      441.363        0.679        0.105      106.607       18.640        0.031      335.460        6.108      871.283
01/16/2014  18:18:00     -109.477       11.000      -18.538       34.190       19.896       15.419     1168.939      395.835      237.755        0.713        0.090      110.028       10.714        0.009      335.359        5.939      871.269
01/16/2014  18:19:00     -105.510        6.663      -23.684       21.471       21.938       16.025      461.019      481.255      256.811        0.647        0.060      105.720        9.682        0.008      335.322        5.878      871.268
01/16/2014  18:20:00      -97.969       -1.497      -17.747       17.799       18.435       12.076      316.796      339.858      145.826        0.536        0.040       97.980        4.008        0.002      335.326        5.884      871.271
01/16/2014  18:21:00      -96.237      -23.839      -14.279       27.062       23.842       18.908      732.362      568.456      357.509        0.585        0.083       99.145       13.743        0.019      335.320        5.876      871.283
01/16/2014  18:22:00     -111.104       -6.664      -14.822       35.953       33.778       21.736     1292.603     1140.961      472.453        0.776        0.145      111.303       21.352        0.037      335.379        5.973      871.288
01/16/2014  18:23:00     -115.273      -11.731      -15.057       36.839       31.542       23.072     1357.144      994.928      532.315        0.827        0.144      115.868       18.101        0.024      335.403        6.014      871.289
01/16/2014  18:24:00     -135.812       12.923      -14.957       31.928       36.002       22.566     1019.374     1296.152      509.217        1.083        0.141      136.426       11.882        0.008      335.372        5.961      871.297
01/16/2014  18:25:00     -143.259        5.846      -22.820       36.290       25.183       19.196     1316.984      634.198      368.505        1.170        0.116      143.379       18.309        0.016      335.424        6.049      871.299
01/16/2014  18:26:00     -125.657       -3.329      -16.174       44.663       28.137       19.014     1994.781      791.678      361.546        0.960        0.157      125.701       13.559        0.012      335.287        5.820      871.296
01/16/2014  18:27:00     -115.018        5.462      -17.786       36.266       27.664       23.391     1315.249      765.309      547.136        0.810        0.131      115.148       19.286        0.028      335.260        5.774      871.304
01/16/2014  18:28:00     -150.854       20.577      -25.459       32.016       24.667       16.488     1025.020      608.481      271.839        1.287        0.095      152.251       11.527        0.006      335.280        5.808      871.307
01/16/2014  18:29:00     -152.074       22.857      -23.173       38.879       22.310       21.911     1511.598      497.756      480.107        1.334        0.124      153.782       20.661        0.018      335.325        5.884      871.301
01/16/2014  18:30:00     -110.344        5.239      -13.913       52.278       27.741       27.020     2732.983      769.551      730.058        0.831        0.212      110.469       24.986        0.051      335.250        5.759      871.307
01/16/2014  18:31:00     -108.188        1.267      -14.507       43.816       36.680       23.854     1919.865     1345.457      569.024        0.787        0.192      108.196       16.596        0.024      335.210        5.692      871.309
01/16/2014  18:32:00      -95.304        3.468      -16.151       33.441       27.908       21.199     1118.303      778.858      449.412        0.585        0.117       95.367       14.844        0.024      335.239        5.739      871.316
01/16/2014  18:33:00      -95.326       -0.278       -7.955       35.013       27.981       16.800     1225.901      782.931      282.232        0.572        0.115       95.327       13.532        0.020      335.228        5.722      871.319
01/16/2014  18:34:00     -107.866       -7.130      -15.527       27.186       25.067       18.905      739.093      628.330      357.381        0.683        0.086      108.102       13.301        0.015      335.294        5.833      871.330
01/16/2014  18:35:00      -87.214       -5.986      -16.024       36.361       29.958       19.742     1322.135      897.491      389.758        0.525        0.130       87.419       18.622        0.045      335.314        5.865      871.329
01/16/2014  18:36:00      -67.886       -1.544      -18.373       35.289       34.677       19.773     1245.333     1202.525      390.974        0.389        0.142       67.903       14.848        0.048      335.392        5.994      871.333
01/16/2014  18:37:00      -62.876        2.697      -24.299       29.092       23.706       20.757      846.328      561.974      430.850        0.319        0.092       62.934       19.349        0.095      335.578        6.305      871.342
01/16/2014  18:38:00      -80.163        3.407      -18.493       34.326       20.480       15.404     1178.264      419.428      237.295        0.431        0.092       80.236       17.232        0.046      335.483        6.148      871.344
01/16/2014  18:39:00     -107.084        9.366      -21.301       24.964       18.489       12.704      623.194      341.828      161.383        0.657        0.056      107.493        7.221        0.005      335.518        6.205      871.351
01/16/2014  18:40:00      -86.916       14.654      -21.447       20.213       19.721       16.908      408.561      388.932      285.869        0.466        0.054       88.143       13.533        0.024      335.503        6.180      871.350
01/16/2014  18:41:00      -82.444       -0.849      -19.132       15.550       18.655       11.112      241.791      348.002      123.485        0.394        0.036       82.448        9.810        0.014      335.513        6.197      871.357
01/16/2014  18:42:00      -76.301       -2.411      -17.320       13.290       14.734        9.088      176.636      217.101       82.595        0.330        0.024       76.339        6.110        0.006      335.461        6.109      871.366
01/16/2014  18:43:00      -65.566       -5.045      -17.569       14.620        9.848        9.059      213.743       96.979       82.060        0.251        0.020       65.760        5.711        0.008      335.472        6.128      871.371
01/16/2014  18:44:00      -77.903       -5.874      -22.715       13.928       15.711       13.157      193.978      246.837      173.100        0.362        0.031       78.124       11.137        0.020      335.432        6.061      871.378
01/16/2014  18:45:00      -76.299       -8.592      -12.899       21.321       16.661       14.914      454.601      277.596      222.419        0.351        0.048       76.781       10.519        0.019      335.288        5.821      871.382
01/16/2014  18:46:00      -98.428       -3.901      -16.799       18.929       14.955       12.258      358.325      223.651      150.260        0.536        0.037       98.505        7.211        0.005      335.277        5.804      871.386
01/16/2014  18:47:00      -99.819       -3.738      -17.346       20.116       14.159        8.390      404.656      200.487       70.399        0.548        0.034       99.889        4.891        0.002      335.349        5.924      871.390
01/16/2014  18:48:00     -103.085        0.923      -19.527       19.330       19.396       17.579      373.640      376.208      309.007        0.603        0.053      103.089       12.108        0.014      335.191        5.661      871.395
01/16/2014  18:49:00     -125.675        1.640      -18.925       28.427       24.437       20.117      808.071      597.160      404.679        0.898        0.090      125.686       13.216        0.011      335.188        5.655      871.385
01/16/2014  18:50:00      -93.267       12.872      -18.313       33.866       22.297       19.641     1146.915      497.177      385.753        0.561        0.101       94.151       12.925        0.019      335.188        5.656      871.392
01/16/2014  18:51:00      -63.229        2.780      -21.003       29.760       21.503       16.067      885.661      462.387      258.156        0.303        0.080       63.290       14.343        0.051      335.256        5.769      871.388
01/16/2014  18:52:00      -74.330       -8.571      -22.928       24.544       27.272       22.673      602.401      743.763      514.087        0.399        0.093       74.823       16.458        0.048      335.229        5.724      871.389
01/16/2014  18:53:00      -83.479      -19.413      -18.174       27.329       30.615       16.094      746.889      937.305      259.010        0.481        0.097       85.707       13.683        0.025      335.089        5.492      871.391
01/16/2014  18:54:00     -134.819       10.392      -23.857       27.658       22.489       18.383      764.978      505.746      337.944        1.023        0.080      135.219       14.883        0.012      335.091        5.496      871.406
01/16/2014  18:55:00     -133.349       -2.660      -21.058       28.121       21.132       15.435      790.797      446.575      238.242        0.985        0.074      133.376       13.318        0.010      335.033        5.398      871.413
01/16/2014  18:56:00     -129.316      -17.665      -14.205       26.168       22.841       22.329      684.764      521.714      498.585        0.947        0.085      130.517       19.152        0.022      334.881        5.147      871.427
01/16/2014  18:57:00     -117.919      -39.142      -17.534       27.028       29.241       14.041      730.515      855.017      197.136        0.876        0.089      124.246        9.449        0.006      334.904        5.183      871.442
01/16/2014  18:58:00     -122.666      -14.535      -13.500       33.064       30.039       21.608     1093.235      902.351      466.908        0.895        0.123      123.524       17.681        0.020      334.898        5.175      871.451
01/16/2014  18:59:00     -122.967      -28.315      -17.816       24.803       18.857       15.430      615.202      355.602      238.083        0.872        0.060      126.185       14.549        0.013      334.920        5.210      871.471
01/16/2014  19:00:00     -110.275      -48.979      -16.376       19.477       25.217       17.332      379.340      635.904      300.382        0.807        0.066      120.663       13.930        0.013      334.965        5.285      871.476
01/16/2014  19:01:00      -96.728      -62.966      -17.769       17.017       23.427       16.676      289.573      548.836      278.083        0.738        0.056      115.417       12.342        0.011      335.104        5.516      871.501
01/16/2014  19:02:00     -104.791      -69.602      -17.073       19.981       32.766       19.079      399.234     1073.619      364.018        0.898        0.092      125.800       16.616        0.017      335.011        5.362      871.508
01/16/2014  19:03:00      -68.369      -29.230       -4.324       33.217       27.360       22.541     1103.356      748.560      508.076        0.395        0.118       74.355       20.809        0.078      334.882        5.148      871.523
01/16/2014  19:04:00      -78.799      -16.325      -11.388       29.057       26.865       19.844      844.299      721.754      393.790        0.428        0.098       80.472       18.450        0.053      334.879        5.144      871.529
01/16/2014  19:05:00      -72.693       26.470      -14.064       39.691       43.017       26.576     1575.348     1850.498      706.288        0.516        0.207       77.362       15.613        0.041      335.149        5.591      871.529
01/16/2014  19:06:00     -112.675       51.319      -24.321       31.352       37.422       21.201      982.922     1400.372      449.482        0.938        0.142      123.812       14.628        0.014      335.247        5.754      871.525
01/16/2014  19:07:00      -69.889        6.032      -12.884       31.742       17.284       13.390     1007.576      298.750      179.294        0.329        0.074       70.149       12.336        0.031      335.035        5.402      871.521
01/16/2014  19:08:00      -68.071        2.319      -15.288       24.348       22.904       16.302      592.824      524.614      265.763        0.313        0.069       68.110       12.084        0.031      335.035        5.403      871.524
01/16/2014  19:09:00      -96.773       -0.630      -16.918       27.913       21.182       10.879      779.135      448.693      118.346        0.550        0.067       96.775        5.711        0.003      334.890        5.161      871.522
01/16/2014  19:10:00      -74.722      -16.259      -13.589       16.983       19.197       13.858      288.439      368.544      192.034        0.344        0.042       76.471       13.316        0.030      334.849        5.092      871.540
01/16/2014  19:11:00      -83.865      -28.422      -23.486       16.095       17.532       11.625      259.034      307.379      135.131        0.455        0.035       88.550        2.104        0.001      334.745        4.921      871.549
01/16/2014  19:12:00      -71.582      -22.013      -15.647       17.385       19.049       18.737      302.236      362.866      351.082        0.343        0.051       74.890       10.946        0.021      334.861        5.113      871.556
01/16/2014  19:13:00      -64.344      -25.077      -17.008       21.595       25.140       17.656      466.364      632.042      311.723        0.323        0.071       69.058        7.794        0.013      334.740        4.911      871.569
01/16/2014  19:14:00      -87.411      -19.939      -15.026       15.785       20.090       15.842      249.156      403.615      250.981        0.458        0.045       89.656        5.435        0.004      334.679        4.811      871.577
01/16/2014  19:15:00      -78.548      -28.951      -23.575       21.097       25.901       14.462      445.086      670.853      209.145        0.444        0.066       83.713        8.521        0.010      334.700        4.845      871.574
01/16/2014  19:16:00      -50.732      -45.960       -7.304       25.270       21.903       17.060      638.565      479.757      291.037        0.307        0.070       68.455       13.238        0.037      334.636        4.738      871.578
01/16/2014  19:17:00      -52.435      -39.318       -6.559       30.600       28.360       21.318      936.372      804.298      454.452        0.327        0.110       65.539       21.599        0.109      334.701        4.847      871.582
01/16/2014  19:18:00      -67.764      -26.165      -11.602       20.898       17.030       13.278      436.708      290.012      176.294        0.316        0.045       72.640        7.960        0.012      334.808        5.025      871.582
01/16/2014  19:19:00      -54.533      -28.481      -15.910       19.694       20.597       10.713      387.855      424.231      114.761        0.248        0.046       61.522        8.362        0.018      334.978        5.307      871.587
01/16/2014  19:20:00      -31.975      -24.831       -1.430       21.350       17.644       16.294      455.818      311.308      265.509        0.134        0.052       40.485       16.643        0.169      334.996        5.337      871.590
01/16/2014  19:21:00      -65.427      -23.537      -11.130       22.608       20.598       11.529      511.105      424.285      132.922        0.301        0.053       69.532       13.204        0.036      335.051        5.428      871.582
01/16/2014  19:22:00      -69.339      -28.923      -18.164       17.766       18.597       11.686      315.638      345.834      136.566        0.339        0.040       75.129       10.357        0.019      334.926        5.222      871.577
01/16/2014  19:23:00      -75.594      -15.992      -11.859       17.767       17.099       10.689      315.666      292.388      114.260        0.342        0.036       77.267       11.077        0.021      334.958        5.274      871.586
01/16/2014  19:24:00      -59.488      -35.807       -4.672       17.619       18.779       14.139      310.439      352.638      199.902        0.285        0.043       69.433       12.937        0.035      334.925        5.218      871.582
01/16/2014  19:25:00      -75.746      -31.344       -9.286       18.490       13.738        9.024      341.868      188.743       81.437        0.371        0.031       81.975        2.501        0.001      334.855        5.105      871.582
01/16/2014  19:26:00      -53.168      -45.547       -8.426       22.319       16.653       15.528      498.125      277.309      241.117        0.299        0.051       70.010       15.464        0.049      334.861        5.112      871.587
01/16/2014  19:27:00      -59.735      -33.203       -5.174       19.362       20.381       19.798      374.896      415.388      391.941        0.294        0.059       68.342       16.080        0.055      334.829        5.059      871.596
01/16/2014  19:28:00      -34.090      -48.499      -16.235       23.711       18.315       15.356      562.235      335.445      235.802        0.246        0.057       59.282        7.940        0.018      334.853        5.101      871.595
01/16/2014  19:29:00      -71.830      -20.533      -17.040       23.623       15.282       15.213      558.044      233.537      231.426        0.345        0.051       74.708       17.073        0.052      334.834        5.068      871.584
01/16/2014  19:30:00      -67.114      -15.668      -11.496       27.159       14.892       15.176      737.592      221.759      230.315        0.304        0.059       68.918       15.791        0.052      334.778        4.976      871.571
01/16/2014  19:31:00      -66.167      -17.289      -12.687       18.022       16.244       11.359      324.793      263.853      129.023        0.278        0.036       68.389       13.100        0.037      334.749        4.928      871.567
01/16/2014  19:32:00      -70.803      -31.649      -10.195       14.834       17.267       11.989      220.050      298.159      143.724        0.339        0.033       77.555       10.301        0.018      334.800        5.012      871.561
01/16/2014  19:33:00      -99.564      -39.591      -17.383       12.561       11.234       10.445      157.784      126.197      109.094        0.609        0.020      107.147        3.739        0.001      334.701        4.847      871.554
01/16/2014  19:34:00     -101.480      -38.529      -17.765       17.756       15.042        9.123      315.263      226.275       83.231        0.636        0.031      108.548        7.308        0.005      334.600        4.679      871.547
01/16/2014  19:35:00     -121.801      -26.228      -19.759       13.566        8.777        9.285      184.036       77.035       86.202        0.813        0.017      124.592        7.073        0.003      334.639        4.743      871.543
01/16/2014  19:36:00     -106.630      -40.840      -12.812       11.794       15.371        8.867      139.091      236.281       78.618        0.683        0.023      114.184        5.784        0.003      334.633        4.735      871.543
01/16/2014  19:37:00      -91.304      -42.982      -10.547        9.121       10.839        9.679       83.184      117.482       93.689        0.529        0.015      100.915        2.202        0.000      334.535        4.573      871.544
01/16/2014  19:38:00     -100.699      -44.465       -6.687        8.716       10.027        8.655       75.961      100.547       74.910        0.621        0.013      110.079        3.660        0.001      334.497        4.508      871.534
01/16/2014  19:39:00     -116.847      -54.475      -13.072       12.630       15.200       13.547      159.528      231.044      183.519        0.868        0.029      128.922        6.229        0.002      334.476        4.475      871.530
01/16/2014  19:40:00     -114.877      -69.486      -12.212       14.082       13.522       12.170      198.291      182.839      148.097        0.935        0.026      134.258        5.667        0.002      334.386        4.325      871.532
01/16/2014  19:41:00     -118.875      -67.826      -12.698       20.943       19.339       13.449      438.627      374.000      180.878        0.994        0.050      136.864       11.996        0.008      334.335        4.240      871.531
01/16/2014  19:42:00     -111.441      -65.277      -12.105       24.759       14.309       14.141      613.020      204.753      199.980        0.892        0.051      129.152       13.615        0.011      334.360        4.281      871.514
01/16/2014  19:43:00     -119.957      -49.440      -13.453       14.855       10.496       11.954      220.671      110.161      142.890        0.874        0.024      129.746        9.246        0.005      334.410        4.365      871.505
01/16/2014  19:44:00      -89.002      -24.426      -12.105       13.040       14.254        8.469      170.039      203.166       71.722        0.455        0.022       92.293        5.704        0.004      334.441        4.415      871.506
01/16/2014  19:45:00     -103.550      -21.742      -17.167       11.783       16.092       13.545      138.849      258.953      183.455        0.604        0.029      105.808        8.565        0.007      334.482        4.483      871.510
01/16/2014  19:46:00     -119.183      -44.517      -15.710       11.088        8.408        6.894      122.953       70.687       47.530        0.834        0.012      127.225        3.956        0.001      334.444        4.423      871.508
01/16/2014  19:47:00     -126.094      -48.115      -18.085       12.833       13.172       11.872      164.686      173.500      140.943        0.951        0.024      134.962        5.296        0.002      334.387        4.327      871.511
01/16/2014  19:48:00     -146.920      -54.551      -18.443       12.843       13.654       11.370      164.935      186.427      129.266        1.269        0.024      156.721        5.426        0.001      334.352        4.268      871.510
01/16/2014  19:49:00     -137.243      -66.708      -17.947       15.378       14.997       10.934      236.482      224.917      119.561        1.209        0.029      152.597        5.478        0.001      334.362        4.285      871.521
01/16/2014  19:50:00     -102.517      -46.969      -14.398       18.668       13.362       13.645      348.499      178.556      186.186        0.682        0.036      112.765        9.634        0.007      334.336        4.242      871.538
01/16/2014  19:51:00     -110.393      -53.042      -14.989       11.459       13.675       10.541      131.312      187.006      111.105        0.783        0.021      122.475        2.711        0.000      334.437        4.409      871.548
01/16/2014  19:52:00     -128.431      -33.046      -16.694       16.657       15.813       14.304      277.457      250.041      204.594        0.930        0.037      132.615        8.962        0.005      334.398        4.346      871.565
01/16/2014  19:53:00     -114.607      -33.398      -16.048       16.974       21.140       12.266      288.100      446.899      150.458        0.770        0.044      119.374        9.091        0.006      334.394        4.339      871.569
01/16/2014  19:54:00     -106.204      -36.622      -12.651        8.173       12.348       10.168       66.805      152.469      103.383        0.655        0.016      112.341        6.438        0.003      334.355        4.274      871.564
01/16/2014  19:55:00      -98.899      -34.486      -10.475       10.048       15.739       11.919      100.960      247.731      142.074        0.579        0.025      104.740        6.210        0.004      334.276        4.143      871.563
01/16/2014  19:56:00     -112.333      -24.695      -14.316       25.146       15.995       12.499      632.320      255.829      156.220        0.724        0.052      115.015       14.286        0.015      334.272        4.136      871.574
01/16/2014  19:57:00     -124.764      -32.614      -18.811       18.555       12.617       11.857      344.285      159.186      140.582        0.881        0.032      128.957       11.085        0.007      334.279        4.147      871.580
01/16/2014  19:58:00     -111.124      -17.890      -22.247        9.859       12.897        7.139       97.197      166.327       50.967        0.674        0.016      112.555        3.016        0.001      334.213        4.037      871.575
01/16/2014  19:59:00      -98.411      -20.063      -21.015       14.782       13.515        6.367      218.505      182.667       40.544        0.549        0.022      100.436        4.370        0.002      334.506        4.525      871.583
01/16/2014  20:00:00      -89.870      -24.454      -20.582       11.394       16.018       11.960      129.826      256.580      143.045        0.481        0.026       93.137        9.968        0.011      334.358        4.278      871.587
01/16/2014  20:01:00      -90.989      -32.617      -20.275       16.581       19.976       12.821      274.940      399.035      164.376        0.530        0.042       96.658       13.090        0.018      334.160        3.949      871.587
01/16/2014  20:02:00      -80.377      -27.531      -17.887       18.415       20.384       15.007      339.111      415.504      225.221        0.426        0.049       84.962       13.073        0.024      334.176        3.975      871.592
01/16/2014  20:03:00      -86.969      -32.216      -22.075       19.794       23.020       15.155      391.820      529.907      229.666        0.512        0.058       92.744       12.286        0.018      334.152        3.935      871.608
01/16/2014  20:04:00      -68.369      -35.040      -18.234       21.538       21.905       15.960      463.871      479.826      254.724        0.372        0.060       76.825       11.930        0.024      334.121        3.886      871.608
01/16/2014  20:05:00      -82.151      -23.470       -4.612       18.790       26.255       16.593      353.046      689.349      275.342        0.432        0.066       85.438        6.746        0.006      334.070        3.800      871.606
01/16/2014  20:06:00      -97.224       -9.584      -16.975       17.535       28.177       15.557      307.465      793.936      242.006        0.559        0.067       97.696       10.837        0.012      334.188        3.996      871.620
01/16/2014  20:07:00     -100.054        3.095      -17.038       24.846       17.940       15.168      617.337      321.835      230.055        0.574        0.058      100.102       15.332        0.023      334.178        3.978      871.636
01/16/2014  20:08:00      -93.876        6.747      -18.627       16.662       13.124       11.444      277.618      172.235      130.964        0.489        0.029       94.118        5.072        0.003      334.246        4.092      871.641
01/16/2014  20:09:00      -89.849        1.032      -14.466       27.952       20.375       14.040      781.318      415.146      197.112        0.484        0.070       89.855        9.653        0.012      334.000        3.683      871.639
01/16/2014  20:10:00     -115.942       -0.030      -22.136       28.567       23.055       14.027      816.094      531.541      196.770        0.774        0.077      115.942        9.323        0.006      334.051        3.768      871.641
01/16/2014  20:11:00     -100.602       14.114      -18.231       14.227       12.185        9.534      202.416      148.486       90.896        0.555        0.022      101.587        6.165        0.004      334.214        4.040      871.631
01/16/2014  20:12:00     -106.376        1.695      -21.682       21.490       14.679       12.069      461.810      215.485      145.664        0.631        0.041      106.389        6.215        0.003      334.169        3.965      871.618
01/16/2014  20:13:00      -87.808       -8.016      -15.323       21.151       19.510       15.515      447.372      380.642      240.701        0.454        0.053       88.173       15.142        0.029      334.064        3.790      871.615
01/16/2014  20:14:00     -104.608       -2.860      -21.904       14.355       19.397       13.634      206.056      376.258      185.875        0.610        0.038      104.647        7.233        0.005      334.125        3.891      871.622
01/16/2014  20:15:00     -100.346       -9.544      -16.326       18.603       19.884       13.038      346.078      395.366      169.988        0.567        0.046      100.799       11.996        0.014      334.150        3.933      871.620
01/16/2014  20:16:00      -84.987       -7.773      -19.438       16.356       18.381       14.264      267.509      337.871      203.461        0.423        0.040       85.341        9.711        0.013      334.072        3.804      871.621
01/16/2014  20:17:00      -84.349      -14.539      -14.154       17.478       18.396       12.921      305.483      338.423      166.953        0.417        0.041       85.593        5.509        0.004      334.108        3.863      871.631
01/16/2014  20:18:00      -99.381        0.990      -14.969       11.701       11.846        9.679      136.916      140.328       93.679        0.524        0.019       99.386        3.021        0.001      334.171        3.968      871.631
01/16/2014  20:19:00     -105.069       -3.875      -17.899       15.932       14.709        8.348      253.821      216.362       69.697        0.596        0.027      105.141        5.894        0.003      334.018        3.714      871.630
01/16/2014  20:20:00      -94.892      -14.291      -17.793       18.641       14.650       12.601      347.486      214.614      158.775        0.512        0.036       95.962       11.658        0.015      334.020        3.717      871.637
01/16/2014  20:21:00      -86.364      -25.436      -18.979       18.296       25.262       11.510      334.745      638.146      132.484        0.479        0.055       90.032        1.827        0.000      334.076        3.811      871.635
01/16/2014  20:22:00      -76.159      -37.164      -18.304       16.143       23.856       14.650      260.595      569.123      214.609        0.428        0.052       84.743        2.946        0.001      333.959        3.616      871.622
01/16/2014  20:23:00      -77.817      -36.467      -12.223       19.304       18.337       14.594      372.651      336.251      212.991        0.423        0.046       85.938        9.601        0.012      333.918        3.549      871.619
01/16/2014  20:24:00      -63.453      -47.147      -10.737       16.338       19.499       18.439      266.924      380.212      339.983        0.368        0.049       79.051       13.724        0.030      333.897        3.513      871.622
01/16/2014  20:25:00      -53.075      -46.588       -8.438       23.910       19.452       16.160      571.689      378.379      261.132        0.313        0.061       70.621       10.448        0.022      333.919        3.551      871.621
01/16/2014  20:26:00      -79.192      -25.578      -14.472       18.396       19.508       11.828      338.413      380.563      139.902        0.400        0.043       83.220        6.285        0.006      333.957        3.614      871.631
01/16/2014  20:27:00     -102.139       -4.732      -15.434       12.801       13.789       12.119      163.876      190.133      146.866        0.560        0.025      102.249        6.093        0.004      334.115        3.875      871.654
01/16/2014  20:28:00     -121.928        9.020      -21.986       21.702       23.020       17.333      470.968      529.911      300.416        0.837        0.065      122.261        9.419        0.006      334.066        3.794      871.668
01/16/2014  20:29:00     -125.839       -2.139      -19.547       19.252       19.414       12.562      370.640      376.904      157.814        0.856        0.045      125.857       10.016        0.006      333.935        3.577      871.688
01/16/2014  20:30:00      -82.708      -20.533      -20.712       22.737       22.543       15.793      516.954      508.198      249.433        0.448        0.064       85.218        7.047        0.007      333.950        3.602      871.702
01/16/2014  20:31:00      -52.899      -39.653      -14.749       29.094       17.976       19.144      846.483      323.135      366.510        0.306        0.077       66.111       13.733        0.043      333.984        3.658      871.725
01/16/2014  20:32:00      -58.955      -39.890      -12.127       22.657       18.305       16.947      513.318      335.087      287.191        0.317        0.057       71.182        3.635        0.003      333.951        3.603      871.736
01/16/2014  20:33:00      -28.803      -45.951       -0.134       22.227       19.993       18.070      494.032      399.736      326.518        0.208        0.061       54.232       14.728        0.074      333.978        3.648      871.743
01/16/2014  20:34:00      -69.873      -37.584      -22.004       14.272       14.216        8.391      203.676      202.100       70.408        0.363        0.024       79.340        7.603        0.009      333.943        3.591      871.746
01/16/2014  20:35:00     -103.176      -17.098      -16.074       17.940       22.609       11.414      321.857      511.181      130.281        0.608        0.048      104.583        9.979        0.009      333.978        3.648      871.746
01/16/2014  20:36:00      -60.165      -42.846      -11.278       25.235       20.827       13.337      636.823      433.770      177.888        0.342        0.062       73.863       11.118        0.023      333.983        3.656      871.750
01/16/2014  20:37:00      -58.741      -40.337      -14.405       20.018       17.639       14.216      400.707      311.124      202.099        0.310        0.046       71.257       12.137        0.029      333.934        3.576      871.753
01/16/2014  20:38:00      -78.443      -20.565      -17.660       14.459       18.249       11.582      209.054      333.015      134.133        0.378        0.034       81.094       11.253        0.019      333.865        3.460      871.756
01/16/2014  20:39:00      -69.672      -11.799      -15.155       22.496       24.112       16.183      506.049      581.405      261.897        0.329        0.067       70.664        8.912        0.016      333.875        3.477      871.757
01/16/2014  20:40:00     -105.841      -16.572      -19.708       20.761       21.455       12.312      431.034      460.334      151.579        0.645        0.052      107.130        6.368        0.004      333.837        3.414      871.751
01/16/2014  20:41:00      -93.563        1.818      -18.027       18.822       19.003       15.284      354.262      361.120      233.611        0.502        0.047       93.581       13.431        0.021      333.808        3.366      871.745
01/16/2014  20:42:00      -89.433       -0.703      -14.869       14.771       16.228        9.906      218.184      263.347       98.139        0.440        0.029       89.436        4.970        0.003      334.016        3.710      871.753
01/16/2014  20:43:00      -84.132       -5.803      -15.989       17.209       12.417       10.069      296.156      154.170      101.386        0.396        0.028       84.332        6.918        0.007      333.960        3.619      871.772
01/16/2014  20:44:00      -77.360       -6.194      -15.870       18.995       15.837       13.660      360.825      250.825      186.607        0.354        0.040       77.608       11.663        0.023      333.821        3.387      871.788
01/16/2014  20:45:00      -93.009       -0.428      -19.937       19.537       13.980       14.073      381.695      195.433      198.049        0.491        0.039       93.010       12.344        0.018      333.871        3.469      871.786
01/16/2014  20:46:00      -76.521        1.553      -13.469       14.866       13.269       18.252      220.989      176.061      333.146        0.338        0.037       76.537       10.091        0.017      333.896        3.511      871.776
01/16/2014  20:47:00      -90.666       16.249      -16.609       12.383       12.764        8.337      153.330      162.914       69.505        0.457        0.019       92.110        4.177        0.002      333.939        3.583      871.783
01/16/2014  20:48:00      -87.982        1.209      -18.560       12.748        9.621        8.606      162.512       92.573       74.059        0.421        0.016       87.991        5.772        0.004      333.988        3.664      871.788
01/16/2014  20:49:00     -111.583        2.245      -18.803       24.485       19.158       14.993      599.511      367.015      224.787        0.700        0.060      111.605       12.280        0.012      333.802        3.356      871.782
01/16/2014  20:50:00     -109.091        3.577      -21.143       26.469       19.740       16.335      700.634      389.668      266.829        0.686        0.068      109.150       10.641        0.010      333.789        3.334      871.780
01/16/2014  20:51:00      -79.538        3.006      -14.902       29.949       24.092       17.757      896.955      580.441      315.318        0.417        0.090       79.594       16.059        0.041      333.627        3.066      871.779
01/16/2014  20:52:00      -69.375      -14.575      -20.560       22.125       16.640       12.480      489.506      276.882      155.741        0.318        0.046       70.890       10.843        0.023      333.657        3.116      871.789
01/16/2014  20:53:00      -75.564      -17.768      -14.528       16.573       14.131       13.388      274.654      199.671      179.248        0.344        0.033       77.625        9.477        0.015      333.622        3.058      871.813
01/16/2014  20:54:00      -88.425      -35.545      -18.349       15.652       21.440       11.734      244.984      459.680      137.677        0.513        0.042       95.302        6.167        0.004      333.657        3.116      871.834
01/16/2014  20:55:00      -88.697      -39.438      -17.923       21.759       22.696       11.859      473.464      515.121      140.628        0.544        0.056       97.069        4.598        0.002      333.704        3.193      871.852
01/16/2014  20:56:00     -106.038      -39.396      -22.665       20.818       19.309       11.094      433.394      372.836      123.072        0.712        0.046      113.120        7.861        0.005      333.603        3.026      871.856
01/16/2014  20:57:00      -90.658      -32.762      -17.705       16.589        9.993       10.145      275.179       99.869      102.916        0.504        0.024       96.396        7.620        0.006      333.632        3.073      871.879
01/16/2014  20:58:00      -93.282      -19.835      -10.413       16.978       13.526        8.791      288.250      182.952       77.280        0.488        0.027       95.367        8.569        0.008      333.732        3.239      871.894
01/16/2014  20:59:00      -82.614      -16.075      -15.786       14.145        8.635        9.220      200.076       74.567       85.002        0.385        0.018       84.164        7.577        0.008      333.779        3.318      871.898
01/16/2014  21:00:00      -87.826      -35.536      -10.271       17.290       17.646       15.240      298.938      311.379      232.255        0.496        0.042       94.743        6.787        0.005      333.711        3.204      871.909
01/16/2014  21:01:00     -129.514      -59.170      -12.712       40.407       20.703       15.322     1632.761      428.607      234.773        1.137        0.115      142.391       15.610        0.012      333.608        3.034      871.914
01/16/2014  21:02:00      -81.866      -53.626        2.911       38.446       33.524       24.594     1478.064     1123.884      604.880        0.640        0.160       97.866       20.968        0.046      333.525        2.898      871.917
01/16/2014  21:03:00      -93.234      -49.259       -5.694       20.168       15.062       14.899      406.752      226.871      221.985        0.600        0.043      105.447       12.972        0.015      333.550        2.939      871.925
01/16/2014  21:04:00      -66.806      -43.649       -2.495       41.827       23.046       16.777     1749.501      531.123      281.460        0.447        0.128       79.801       19.446        0.059      333.564        2.962      871.924
01/16/2014  21:05:00        0.104      -25.604        9.439       35.346       27.970       20.018     1249.373      782.340      400.740        0.159        0.122       25.604       19.154        0.560      333.445        2.763      871.924
01/16/2014  21:06:00      -72.018      -43.340       -6.396       44.085       22.127       20.043     1943.471      489.602      401.724        0.497        0.142       84.053       21.581        0.066      333.400        2.690      871.935
01/16/2014  21:07:00     -104.713      -57.059       -7.522       21.408       20.423       17.606      458.317      417.081      309.956        0.773        0.059      119.250       10.828        0.008      333.395        2.682      871.944
01/16/2014  21:08:00     -104.724      -69.936       -4.755       32.289       23.657       19.473     1042.610      559.664      379.211        0.893        0.099      125.929       14.434        0.013      333.335        2.584      871.938
01/16/2014  21:09:00     -105.723      -64.862        0.491       52.610       31.837       22.361     2767.797     1013.620      500.005        0.983        0.214      124.034       23.112        0.035      333.332        2.577      871.934
01/16/2014  21:10:00     -102.992      -81.203       -0.731       36.067       39.103       26.542     1300.852     1529.058      704.494        1.037        0.177      131.154       22.848        0.030      333.349        2.606      871.926
01/16/2014  21:11:00     -102.580      -53.965        1.750       49.444       33.421       23.980     2444.733     1116.946      575.028        0.879        0.207      115.909       25.270        0.048      333.386        2.666      871.925
01/16/2014  21:12:00      -58.751      -27.077       -0.909       41.026       32.629       17.677     1683.130     1064.655      312.477        0.362        0.153       64.690       19.584        0.092      333.318        2.554      871.930
01/16/2014  21:13:00      -98.453      -60.415       -6.778       26.690       27.549       20.811      712.341      758.953      433.092        0.765        0.095      115.512       16.650        0.021      333.311        2.543      871.933
01/16/2014  21:14:00     -105.293      -66.272        1.933       39.162       24.599       20.848     1533.701      605.115      434.621        0.903        0.129      124.413       19.308        0.024      333.292        2.511      871.939
01/16/2014  21:15:00     -104.493      -68.326       -4.337       39.647       25.256       23.694     1571.869      637.843      561.402        0.919        0.139      124.849       19.799        0.025      333.403        2.695      871.940
01/16/2014  21:16:00     -108.774      -48.605        5.972       48.780       31.157       22.253     2379.525      970.746      495.179        0.904        0.192      119.140       25.071        0.044      333.326        2.568      871.948
01/16/2014  21:17:00     -117.290      -63.304        2.756       43.330       25.319       20.100     1877.501      641.031      404.029        1.035        0.146      133.282       21.726        0.027      333.342        2.594      871.950
01/16/2014  21:18:00     -127.224      -61.263        0.473       43.081       29.639       23.123     1855.952      878.480      534.688        1.160        0.163      141.206       22.568        0.026      333.288        2.505      871.958
01/16/2014  21:19:00     -136.075      -76.484       -0.392       28.221       18.790       20.696      796.416      353.046      428.331        1.297        0.079      156.097       18.457        0.014      333.324        2.564      871.974
01/16/2014  21:20:00     -114.965      -63.246       -4.052       36.045       25.735       17.994     1299.244      662.267      323.797        0.976        0.114      131.213       15.654        0.014      333.317        2.552      871.974
01/16/2014  21:21:00     -141.599      -57.743       -7.472       16.165       14.492       12.981      261.300      210.018      168.518        1.204        0.032      152.920        7.218        0.002      333.320        2.557      871.970
01/16/2014  21:22:00     -148.276      -43.715       -8.586       35.699       24.968       17.304     1274.387      623.413      299.418        1.308        0.110      154.586       18.802        0.015      333.348        2.604      871.965
01/16/2014  21:23:00     -125.234      -39.956       -8.164       46.370       23.676       18.859     2150.153      560.575      355.658        1.021        0.153      131.453       24.087        0.034      333.272        2.477      871.956
01/16/2014  21:24:00     -153.606      -50.931       -5.197       24.132       22.006       14.094      582.335      484.281      198.631        1.374        0.063      161.830       11.736        0.005      333.167        2.304      871.950
01/16/2014  21:25:00     -131.950      -56.657       -9.912       33.936       21.916       17.691     1151.620      480.322      312.971        1.133        0.097      143.599       16.561        0.013      333.160        2.294      871.941
01/16/2014  21:26:00     -117.034      -62.976      -10.666       15.617       17.595       12.912      243.885      309.568      166.716        0.925        0.036      132.902        5.381        0.002      333.149        2.275      871.954
01/16/2014  21:27:00     -119.278      -54.021      -15.485       11.631       18.801       10.357      135.271      353.469      107.277        0.899        0.030      130.941        6.186        0.002      333.159        2.293      871.968
01/16/2014  21:28:00     -127.652      -34.645      -18.930        9.302       10.197        8.643       86.527      103.981       74.705        0.906        0.013      132.270        4.169        0.001      333.154        2.282      871.979
01/16/2014  21:29:00     -126.500      -37.457      -20.281        8.788        7.422        9.964       77.232       55.081       99.274        0.902        0.012      131.929        5.119        0.002      333.171        2.308      871.988
01/16/2014  21:30:00     -137.809      -26.654      -18.918        7.928       11.558        8.437       62.859      133.585       71.183        1.016        0.013      140.363        3.872        0.001      333.185        2.334      872.000
01/16/2014  21:31:00     -133.697      -31.694      -20.367        8.589       13.850        8.369       73.777      191.821       70.046        0.981        0.017      137.402        4.794        0.001      333.274        2.482      871.995
01/16/2014  21:32:00     -116.896      -36.531      -13.915       16.310       10.861        9.625      266.024      117.969       92.639        0.783        0.024      122.472        8.985        0.005      333.262        2.462      871.986
01/16/2014  21:33:00     -108.415      -31.209      -12.621       20.503       13.115       12.238      420.371      172.001      149.772        0.681        0.037      112.818       10.106        0.008      333.207        2.369      871.990
01/16/2014  21:34:00     -126.289      -31.302      -19.592       17.362       14.032       10.293      301.441      196.883      105.949        0.896        0.030      130.110        7.674        0.003      333.252        2.446      871.990
01/16/2014  21:35:00     -142.772      -41.904      -21.682       17.128       11.489        9.016      293.377      132.003       81.289        1.156        0.025      148.794        4.131        0.001      333.182        2.330      871.966
01/16/2014  21:36:00     -160.679      -51.402      -21.192       15.691       12.737       11.329      246.199      162.219      128.355        1.472        0.027      168.701        8.477        0.003      333.217        2.386      871.933
01/16/2014  21:37:00     -143.588      -38.857      -26.754       12.246       12.029       12.367      149.967      144.709      152.954        1.165        0.022      148.753        6.111        0.002      333.174        2.316      871.908
01/16/2014  21:38:00     -121.695      -58.502      -14.287       19.175       16.731       15.061      367.697      279.912      226.826        0.966        0.044      135.026       11.894        0.008      333.113        2.215      871.900
01/16/2014  21:39:00     -136.539      -57.000      -18.050       13.586       15.720       12.463      184.579      247.114      155.324        1.140        0.029      147.960        7.702        0.003      333.110        2.211      871.888
01/16/2014  21:40:00     -154.415      -62.944      -18.205        9.826       17.489       10.420       96.545      305.879      108.577        1.432        0.026      166.751        5.213        0.001      333.159        2.290      871.878
01/16/2014  21:41:00     -145.555      -28.729      -16.915       14.756       12.215        9.878      217.730      149.207       97.584        1.138        0.023      148.363        8.106        0.003      333.103        2.199      871.871
01/16/2014  21:42:00     -135.560      -32.797      -19.231        9.919       12.224       10.279       98.381      149.425      105.653        1.009        0.018      139.471        7.752        0.003      333.142        2.264      871.871
01/16/2014  21:43:00     -121.028      -40.578      -15.869       13.283       11.715       10.179      176.433      137.236      103.603        0.848        0.021      127.649        7.117        0.003      333.071        2.145      871.860
01/16/2014  21:44:00     -115.539      -45.862      -11.927       26.042       24.786       18.688      678.174      614.329      349.250        0.862        0.082      124.309       18.775        0.023      333.024        2.068      871.853
01/16/2014  21:45:00     -123.178      -20.067       -7.265       43.201       37.050       20.980     1866.363     1372.710      440.162        0.965        0.184      124.802       19.754        0.025      333.035        2.086      871.839
01/16/2014  21:46:00      -88.331      -17.825       -7.525       41.504       34.961       22.108     1722.565     1222.287      488.785        0.580        0.172       90.111       23.235        0.066      333.005        2.038      871.838
01/16/2014  21:47:00     -106.103       -8.181        3.860       47.177       39.530       25.762     2225.656     1562.631      663.660        0.789        0.223      106.418       25.372        0.057      332.963        1.967      871.840
01/16/2014  21:48:00      -89.584      -28.400        3.006       43.617       24.356       21.876     1902.419      593.211      478.539        0.591        0.149       93.978       18.449        0.039      332.882        1.836      871.833
01/16/2014  21:49:00     -111.180      -32.631       -7.932       29.726       26.935       21.118      883.656      725.468      445.965        0.777        0.103      115.870       10.308        0.008      332.915        1.889      871.821
01/16/2014  21:50:00     -103.413      -20.945       -7.613       35.132       31.613       25.000     1234.285      999.374      625.020        0.702        0.143      105.513        7.867        0.006      332.906        1.874      871.808
01/16/2014  21:51:00     -110.728      -47.938       -7.182       43.661       38.991       21.502     1906.307     1520.297      462.350        0.925        0.194      120.660       18.028        0.022      332.924        1.904      871.798
01/16/2014  21:52:00      -65.361      -34.510        6.216       55.329       30.842       30.722     3061.260      951.240      943.834        0.523        0.248       73.912       24.697        0.112      332.933        1.919      871.798
01/16/2014  21:53:00     -139.869      -47.777      -17.929       35.054       36.424       21.828     1228.757     1326.732      476.441        1.260        0.152      147.804        7.749        0.003      332.918        1.895      871.782
01/16/2014  21:54:00     -130.168      -20.575       -6.423       47.470       30.688       21.989     2253.360      941.747      483.523        1.054        0.184      131.784       17.194        0.017      332.889        1.845      871.773
01/16/2014  21:55:00     -126.885      -23.848       -6.907       46.710       34.047       22.822     2181.834     1159.215      520.827        1.029        0.193      129.107       17.121        0.018      332.927        1.908      871.771
01/16/2014  21:56:00     -129.436       -5.354      -11.291       44.186       33.628       25.525     1952.380     1130.839      651.502        1.032        0.187      129.547       23.288        0.032      332.889        1.846      871.772
01/16/2014  21:57:00     -112.466      -20.844       -2.277       47.514       35.573       19.899     2257.536     1265.413      395.977        0.850        0.196      114.381       16.668        0.021      332.919        1.895      871.756
01/16/2014  21:58:00      -64.481       -1.663       -0.097       32.976       35.496       21.711     1087.432     1259.938      471.350        0.349        0.141       64.502       14.284        0.049      332.916        1.891      871.737
01/16/2014  21:59:00      -85.385      -21.629       -9.296       27.264       33.797       20.147      743.316     1142.270      405.900        0.507        0.115       88.082       15.586        0.031      332.854        1.790      871.723
01/16/2014  22:00:00      -55.552      -11.635       -6.850       29.015       20.339       13.580      841.870      413.680      184.425        0.235        0.072       56.757       12.576        0.049      332.851        1.783      871.721
01/16/2014  22:01:00      -85.502      -33.736      -10.639       21.711       29.148       18.539      471.379      849.618      343.676        0.511        0.083       91.917       11.523        0.016      332.853        1.787      871.708
01/16/2014  22:02:00      -95.190      -16.740       -6.414       41.512       29.730       21.097     1723.271      883.859      445.086        0.622        0.153       96.651       20.661        0.046      332.820        1.731      871.702
01/16/2014  22:03:00      -88.666      -40.043       -7.521       44.136       34.557       22.155     1947.963     1194.178      490.858        0.658        0.182       97.289       18.453        0.036      332.862        1.801      871.702
01/16/2014  22:04:00     -110.592      -38.360      -11.990       34.343       30.827       23.542     1179.416      950.331      554.243        0.826        0.134      117.056        9.402        0.006      332.832        1.751      871.712
01/16/2014  22:05:00      -79.561      -33.329      -22.064       46.698       33.311       19.830     2180.701     1109.593      393.228        0.580        0.184       86.260       10.971        0.016      332.862        1.801      871.730
01/16/2014  22:06:00     -111.609      -61.824      -12.033       34.872       41.876       26.173     1216.055     1753.586      685.047        1.004        0.183      127.588       15.872        0.015      332.788        1.680      871.745
01/16/2014  22:07:00     -104.858      -76.645       -6.749       39.819       41.417       26.969     1585.534     1715.396      727.341        1.047        0.201      129.883       21.788        0.028      332.767        1.645      871.750
01/16/2014  22:08:00     -161.588      -46.221      -14.388       33.594       33.929       21.880     1128.553     1151.195      478.713        1.561        0.138      168.069       16.915        0.010      332.745        1.609      871.752
01/16/2014  22:09:00     -104.668      -54.367      -13.818       39.977       22.382       19.534     1598.187      500.962      381.591        0.829        0.124      117.946        7.926        0.005      332.763        1.637      871.751
01/16/2014  22:10:00      -96.309      -41.946       -7.520       41.312       23.298       18.933     1706.666      542.794      358.476        0.685        0.130      105.047       16.750        0.025      332.771        1.653      871.750
01/16/2014  22:11:00     -106.503      -49.462       -7.012       31.604       20.662       17.350      998.825      426.937      301.012        0.778        0.086      117.428       14.091        0.014      332.778        1.663      871.743
01/16/2014  22:12:00     -155.366      -57.622       -9.096       26.248       25.648       19.454      688.971      657.820      378.453        1.463        0.086      165.707       15.421        0.009      332.776        1.658      871.734
01/16/2014  22:13:00     -156.046      -40.750      -11.139       30.696       23.185       19.423      942.236      537.529      377.237        1.400        0.093      161.279       20.888        0.017      332.782        1.670      871.729
01/16/2014  22:14:00     -125.886      -57.851       -9.399       17.297       19.092       14.842      299.196      364.501      220.275        1.008        0.044      138.542       10.874        0.006      332.723        1.573      871.748
01/16/2014  22:15:00      -90.834      -56.483       -3.522       41.418       26.046       19.091     1715.439      678.415      364.449        0.711        0.138      106.963       21.932        0.042      332.750        1.617      871.759
01/16/2014  22:16:00      -90.387      -47.820       -4.085       45.904       24.980       18.547     2107.205      623.993      343.980        0.677        0.154      102.258       14.074        0.019      332.738        1.596      871.754
01/16/2014  22:17:00     -132.911      -24.532       -7.428       40.813       40.821       23.545     1665.727     1666.357      554.359        1.110        0.194      135.156       22.220        0.027      332.747        1.612      871.748
01/16/2014  22:18:00      -44.403      -12.169        3.356       41.829       33.241       25.049     1749.686     1104.989      627.429        0.281        0.174       46.041       17.890        0.151      332.714        1.557      871.747
01/16/2014  22:19:00      -68.802      -14.749       -4.706       25.446       40.374       21.251      647.474     1630.080      451.609        0.385        0.136       70.365       14.126        0.040      332.798        1.696      871.755
01/16/2014  22:20:00      -79.224      -44.894        1.169       39.922       32.218       21.702     1593.733     1037.993      470.959        0.570        0.155       91.060       19.414        0.045      332.681        1.502      871.756
01/16/2014  22:21:00     -166.730      -69.708      -17.976       37.957       29.609       17.623     1440.725      876.665      310.572        1.780        0.131      180.715       15.472        0.007      332.736        1.592      871.746
01/16/2014  22:22:00     -152.305      -52.977      -17.570       35.764       19.388       17.431     1279.045      375.892      303.833        1.414        0.098      161.256       12.587        0.006      332.716        1.559      871.740
01/16/2014  22:23:00     -115.669      -48.191       -9.163       32.797       16.013       11.734     1075.641      256.403      137.692        0.863        0.073      125.306       10.925        0.008      332.636        1.428      871.738
01/16/2014  22:24:00      -78.574      -59.952      -14.956       36.018       28.220       16.811     1297.312      796.340      282.615        0.618        0.119       98.833        8.572        0.008      332.742        1.601      871.739
01/16/2014  22:25:00     -135.602      -74.281      -13.489       27.678       24.636       13.855      766.072      606.955      191.961        1.283        0.078      154.614        9.841        0.004      332.743        1.606      871.744
01/16/2014  22:26:00     -145.502      -40.882      -16.275       20.753       27.740       12.806      430.697      769.510      164.003        1.224        0.068      151.137        3.158        0.000      332.717        1.561      871.746
01/16/2014  22:27:00     -105.438      -32.750       -5.640       26.279       25.360       20.345      690.563      643.116      413.920        0.698        0.087      110.407       18.282        0.027      332.635        1.426      871.754
01/16/2014  22:28:00      -97.792      -33.500      -16.639       20.316       14.968       11.848      412.725      224.043      140.365        0.587        0.039      103.371        8.587        0.007      332.666        1.477      871.761
01/16/2014  22:29:00      -90.110      -28.058       -5.942       40.391       26.263       22.836     1631.398      689.739      521.487        0.589        0.142       94.377       23.955        0.064      332.678        1.496      871.755
01/16/2014  22:30:00     -104.957      -16.032      -15.370       28.728       31.011       15.379      825.326      961.693      236.518        0.677        0.101      106.174       12.438        0.014      332.668        1.480      871.731
01/16/2014  22:31:00      -77.717      -20.951      -15.613       27.293       27.602       17.421      744.908      761.876      303.474        0.427        0.091       80.492       14.030        0.030      332.657        1.462      871.707
01/16/2014  22:32:00     -121.694       -5.077      -15.774       44.262       27.268       17.447     1959.154      743.534      304.397        0.904        0.150      121.799       16.585        0.019      332.661        1.467      871.686
01/16/2014  22:33:00      -99.221       -7.809      -16.258       26.310       22.555       16.431      692.205      508.745      269.978        0.582        0.074       99.528       10.027        0.010      332.608        1.381      871.682
01/16/2014  22:34:00      -70.724      -42.130       -8.317       26.881       27.302       20.642      722.565      745.420      426.110        0.437        0.095       82.321       18.714        0.052      332.638        1.430      871.661
01/16/2014  22:35:00      -75.510      -39.836       -4.552       23.987       33.345       16.574      575.376     1111.888      274.697        0.464        0.098       85.374       12.050        0.020      332.554        1.292      871.642
01/16/2014  22:36:00      -86.187      -43.363      -20.026       30.675       32.539       18.654      940.957     1058.802      347.960        0.603        0.117       96.481       19.137        0.039      332.547        1.279      871.626
01/16/2014  22:37:00      -79.165      -44.881      -22.989       29.156       35.894       19.185      850.072     1288.395      368.066        0.566        0.125       91.003        9.729        0.011      332.624        1.408      871.628
01/16/2014  22:38:00     -110.848      -20.541      -20.971       23.776       24.998       19.751      565.318      624.888      390.095        0.736        0.079      112.735       11.645        0.011      332.633        1.423      871.638
01/16/2014  22:39:00     -126.154      -22.157      -20.421       16.252       22.837       14.436      264.135      521.542      208.397        0.891        0.050      128.085       11.187        0.008      332.595        1.359      871.646
01/16/2014  22:40:00      -98.353      -42.193      -11.331       25.366       29.400       13.400      643.453      864.363      179.547        0.663        0.084      107.022       11.532        0.012      332.552        1.288      871.654
01/16/2014  22:41:00     -125.564      -38.169      -11.201       18.265       15.011       11.658      333.593      225.321      135.909        0.902        0.035      131.237        7.517        0.003      332.510        1.219      871.665
01/16/2014  22:42:00     -131.964      -42.857      -15.746       19.200       25.927       12.608      368.639      672.201      158.962        1.035        0.060      138.749        7.025        0.003      332.524        1.244      871.668
01/16/2014  22:43:00     -130.126      -44.223      -15.132       16.947       18.487       12.393      287.193      341.766      153.584        0.995        0.039      137.436        6.268        0.002      332.492        1.189      871.678
01/16/2014  22:44:00      -93.896      -36.651       -4.926       19.520       23.057       13.254      381.020      531.645      175.673        0.564        0.054      100.795        5.309        0.003      332.483        1.172      871.679
01/16/2014  22:45:00      -98.704      -13.279       -5.682       30.631       27.337       17.839      938.278      747.311      318.221        0.598        0.100       99.594       17.855        0.032      332.526        1.246      871.665
01/16/2014  22:46:00      -82.760       -2.366      -15.572       21.587       18.800       11.727      466.016      353.439      137.533        0.403        0.048       82.794        7.880        0.009      332.546        1.279      871.644
01/16/2014  22:47:00      -68.992        2.583      -15.897       13.781       14.859       12.618      189.903      220.785      159.221        0.279        0.028       69.040       11.492        0.028      332.659        1.465      871.629
01/16/2014  22:48:00      -75.167      -10.979      -15.453       12.801       12.655       10.718      163.873      160.148      114.873        0.322        0.022       75.964        7.713        0.010      332.753        1.622      871.619
01/16/2014  22:49:00      -72.631      -18.913      -14.059       17.858       17.291       15.748      318.899      298.976      247.989        0.335        0.043       75.053       13.561        0.033      332.728        1.578      871.609
01/16/2014  22:50:00      -90.226      -37.915      -17.820       25.504       18.471       11.610      650.454      341.166      134.801        0.551        0.056       97.869       10.033        0.011      332.614        1.390      871.603
01/16/2014  22:51:00     -117.490      -55.626      -20.380       23.764       17.813       13.196      564.746      317.305      174.144        0.918        0.053      129.993        9.953        0.006      332.538        1.264      871.608
01/16/2014  22:52:00     -123.492      -58.316      -13.092       32.841       23.919       14.239     1078.514      572.103      202.751        1.034        0.093      136.568       15.859        0.013      332.500        1.201      871.618
01/16/2014  22:53:00     -128.953      -42.804      -18.710       14.789       16.456       12.556      218.716      270.805      157.650        0.973        0.032      135.871        6.111        0.002      332.447        1.115      871.617
01/16/2014  22:54:00      -96.273      -13.941      -19.124       24.343       16.828       14.132      592.579      283.178      199.715        0.545        0.054       97.277       15.242        0.025      332.414        1.061      871.606
01/16/2014  22:55:00     -100.431       -7.591      -15.124       19.800       14.649       13.880      392.026      214.596      192.648        0.559        0.040      100.718       11.390        0.013      332.457        1.132      871.582
01/16/2014  22:56:00     -114.018      -12.031      -17.921       16.195       15.282       11.256      262.275      233.539      126.707        0.704        0.031      114.651        9.052        0.006      332.483        1.174      871.566
01/16/2014  22:57:00      -86.584      -44.138       -6.267       27.484       24.470       16.131      755.355      598.795      260.196        0.555        0.081       97.185       11.053        0.013      332.424        1.077      871.552
01/16/2014  22:58:00      -98.920      -51.618      -10.475       34.049       29.070       22.322     1159.306      845.077      498.284        0.753        0.125      111.578       18.088        0.026      332.387        1.017      871.545
01/16/2014  22:59:00      -72.381      -52.475      -13.890       35.279       32.035       19.428     1244.638     1026.273      377.444        0.542        0.132       89.401       18.521        0.043      332.443        1.109      871.545
01/16/2014  23:00:00     -108.986      -50.481      -18.085       22.155       17.407       14.845      490.847      303.008      220.374        0.788        0.051      120.110       10.391        0.007      332.374        0.994      871.546
01/16/2014  23:01:00     -128.449      -27.773      -17.251       20.996       14.823       12.599      440.830      219.721      158.741        0.919        0.041      131.417        7.297        0.003      332.342        0.942      871.535
01/16/2014  23:02:00     -118.283       -6.347      -14.001       25.620       14.275       14.637      656.360      203.779      214.238        0.765        0.054      118.454       14.407        0.015      332.333        0.925      871.520
01/16/2014  23:03:00      -76.310      -15.000      -13.202       25.310       15.225       11.765      640.614      231.786      138.416        0.362        0.051       77.771        8.764        0.013      332.336        0.932      871.507
01/16/2014  23:04:00     -108.150        1.778      -12.682       24.049       24.282       16.714      578.378      589.621      279.370        0.665        0.072      108.165       16.388        0.023      332.340        0.939      871.509
01/16/2014  23:05:00      -96.655        2.710      -21.045       15.572        9.619        8.697      242.489       92.521       75.633        0.510        0.021       96.693        4.334        0.002      332.453        1.125      871.509
01/16/2014  23:06:00      -76.929       -3.247      -10.479       15.342       13.312       14.156      235.368      177.203      200.387        0.333        0.031       76.998       11.383        0.022      332.404        1.045      871.506
01/16/2014  23:07:00      -76.792       -4.809      -12.210        9.278        9.122        7.999       86.085       83.208       63.983        0.315        0.012       76.942        3.265        0.002      332.505        1.212      871.501
01/16/2014  23:08:00      -60.854      -20.053      -12.385       12.907       11.894        6.632      166.588      141.470       43.981        0.231        0.018       64.073        2.149        0.001      332.500        1.203      871.498
01/16/2014  23:09:00      -56.925      -33.676      -16.916       13.561       10.300        7.839      183.891      106.080       61.443        0.251        0.018       66.140        2.511        0.001      332.466        1.147      871.503
01/16/2014  23:10:00      -78.390      -21.276      -15.046       15.422       14.210        9.384      237.841      201.938       88.051        0.368        0.026       81.226        9.217        0.013      332.364        0.978      871.501
01/16/2014  23:11:00      -89.777       -8.237      -14.617       25.846       12.389       13.570      668.037      153.488      184.156        0.467        0.050       90.154       12.845        0.020      332.314        0.895      871.491
01/16/2014  23:12:00      -86.161        3.323      -12.287       17.706       11.917       10.545      313.494      142.015      111.188        0.408        0.028       86.225        7.618        0.008      332.264        0.813      871.473
01/16/2014  23:13:00      -81.973        7.465      -11.503       13.526       10.305        8.908      182.947      106.197       79.355        0.364        0.018       82.312        4.345        0.003      332.462        1.142      871.461
01/16/2014  23:14:00      -67.640      -17.634      -13.838        8.165       12.150        7.334       66.661      147.632       53.791        0.267        0.013       69.901        5.007        0.005      332.326        0.917      871.449
01/16/2014  23:15:00      -77.503      -28.259      -15.090       12.618       13.062        9.018      159.225      170.616       81.319        0.372        0.021       82.494        6.147        0.006      332.217        0.736      871.447
01/16/2014  23:16:00     -103.810      -27.531      -20.255       20.130       13.978       11.214      405.231      195.377      125.762        0.634        0.036      107.399        6.943        0.004      332.151        0.628      871.444
01/16/2014  23:17:00      -95.293      -33.462      -16.451       22.283       24.747       16.238      496.534      612.402      263.678        0.592        0.069      100.998       13.263        0.017      332.100        0.543      871.454
01/16/2014  23:18:00     -109.143      -29.780      -21.855       30.461       25.718       18.056      927.887      661.405      326.030        0.760        0.096      113.133        9.293        0.007      332.081        0.513      871.454
01/16/2014  23:19:00     -131.220      -12.329      -18.111       37.796       24.582       20.863     1428.550      604.261      435.259        1.008        0.123      131.798       14.711        0.012      332.059        0.474      871.447
01/16/2014  23:20:00     -113.672       -9.035      -18.056       21.208       16.210       13.644      449.774      262.752      186.155        0.711        0.045      114.031        9.321        0.007      332.076        0.504      871.437
01/16/2014  23:21:00      -90.658      -22.890      -11.829       15.002       17.700       13.427      225.060      313.293      180.295        0.480        0.036       93.503        8.772        0.009      332.150        0.625      871.438
01/16/2014  23:22:00      -85.097      -28.638      -18.076       27.199       29.699       25.323      739.811      882.036      641.264        0.533        0.113       89.786       21.818        0.059      332.222        0.745      871.428
01/16/2014  23:23:00     -109.526      -35.494      -19.935       29.282       20.223       14.480      857.459      408.957      209.661        0.756        0.074      115.134        9.649        0.007      332.175        0.667      871.419
01/16/2014  23:24:00     -115.270      -54.747      -21.919       17.212       22.700       14.498      296.247      515.295      210.195        0.889        0.051      127.610        9.186        0.005      332.131        0.595      871.404
01/16/2014  23:25:00     -127.732      -39.558      -17.932       20.745       21.619       16.447      430.360      467.392      270.504        0.968        0.058      133.717       11.352        0.007      332.106        0.554      871.395
01/16/2014  23:26:00     -112.456      -29.437      -23.299       21.702       15.508       13.188      470.983      240.507      173.917        0.747        0.044      116.245        9.755        0.007      332.094        0.533      871.390
01/16/2014  23:27:00      -90.583      -17.467      -14.106       24.330       18.601       14.512      591.931      345.981      210.594        0.493        0.057       92.252       15.749        0.029      332.130        0.592      871.380
01/16/2014  23:28:00      -82.903      -30.258       -7.900       23.368       19.866       16.896      546.071      394.664      285.466        0.454        0.061       88.252       16.286        0.034      332.157        0.638      871.353
01/16/2014  23:29:00      -82.183      -29.887       -6.183       20.587       19.416       13.614      423.824      376.985      185.343        0.434        0.049       87.448        9.706        0.012      332.165        0.651      871.338
01/16/2014  23:30:00      -94.942       -7.076      -14.847       15.511       19.198       10.701      240.599      368.560      114.517        0.500        0.036       95.205        8.432        0.008      332.181        0.675      871.321
01/16/2014  23:31:00      -66.153        8.269      -18.024       15.438       12.856        9.721      238.320      165.265       94.503        0.263        0.025       66.668        8.086        0.015      332.404        1.045      871.315
01/16/2014  23:32:00      -53.031       -6.027      -11.420       12.725       17.136        8.269      161.915      293.638       68.383        0.175        0.026       53.372        6.522        0.015      332.571        1.320      871.299
01/16/2014  23:33:00      -35.624      -40.673      -15.702       11.820       20.723       10.389      139.705      429.442      107.927        0.192        0.034       54.069        3.029        0.003      332.546        1.281      871.287
01/16/2014  23:34:00      -41.355      -43.261      -13.165       11.646       15.604        9.799      135.629      243.489       96.015        0.212        0.024       59.848        1.886        0.001      332.325        0.914      871.283
01/16/2014  23:35:00      -56.161      -28.490       -7.164       10.297       11.052        7.784      106.032      122.151       60.587        0.215        0.014       62.974        5.745        0.008      332.249        0.790      871.273
01/16/2014  23:36:00      -70.927       -6.113      -11.432        9.437       11.323       11.550       89.066      128.222      133.391        0.277        0.018       71.190        5.445        0.006      332.206        0.717      871.251
01/16/2014  23:37:00      -50.410       -4.873       -6.497       12.594        9.519        7.881      158.620       90.612       62.109        0.146        0.016       50.645        2.712        0.003      332.448        1.116      871.232
01/16/2014  23:38:00      -46.699      -15.504       -6.906       13.525       15.598       11.426      182.938      243.285      130.564        0.151        0.028       49.205        6.361        0.017      332.563        1.307      871.201
01/16/2014  23:39:00      -25.909      -31.897       -8.687       18.271       15.247       11.795      333.811      232.475      139.117        0.123        0.035       41.094        4.997        0.015      332.680        1.501      871.180
01/16/2014  23:40:00      -32.118      -27.467      -13.913       14.867        9.357       10.489      221.022       87.563      110.024        0.120        0.021       42.261        6.117        0.021      332.390        1.021      871.165
01/16/2014  23:41:00      -65.406      -23.716       -8.442       22.431       12.667        8.784      503.141      160.464       77.153        0.283        0.037       69.573        8.721        0.016      332.262        0.811      871.163
01/16/2014  23:42:00      -85.285      -23.131      -12.405       13.120       15.967        9.811      172.147      254.938       96.261        0.424        0.026       88.366        4.586        0.003      332.113        0.565      871.157
01/16/2014  23:43:00      -78.029      -42.819      -19.271       16.901       14.472        9.863      285.632      209.439       97.280        0.444        0.030       89.006        4.425        0.002      332.101        0.545      871.158
01/16/2014  23:44:00      -97.720      -38.164      -14.536       11.441       10.798        8.968      130.904      116.586       80.430        0.577        0.016      104.908        5.765        0.003      332.119        0.575      871.165
01/16/2014  23:45:00      -77.133      -43.810       -8.403       19.332       13.092        7.801      373.742      171.411       60.863        0.427        0.030       88.706        4.061        0.002      332.157        0.639      871.171
01/16/2014  23:46:00      -82.182      -56.734       -1.714       37.782       31.272       19.323     1427.442      977.928      373.397        0.638        0.139       99.863       17.808        0.032      332.112        0.563      871.167
01/16/2014  23:47:00     -131.465      -81.286       -0.857       31.080       29.619       20.508      965.962      877.303      420.568        1.308        0.113      154.566       14.873        0.009      332.085        0.518      871.161
01/16/2014  23:48:00     -119.132      -79.805       -9.241       31.115       37.113       22.732      968.149     1377.390      516.756        1.175        0.143      143.392        7.778        0.003      332.139        0.607      871.149
01/16/2014  23:49:00     -137.439      -67.992       -4.637       46.942       29.385       20.024     2203.576      863.466      400.980        1.350        0.173      153.338       16.469        0.012      331.986        0.356      871.150
01/16/2014  23:50:00     -127.865      -83.709        3.110       58.963       51.065       31.864     3476.667     2607.644     1015.304        1.523        0.355      152.829       30.384        0.040      331.932        0.265      871.155
01/16/2014  23:51:00     -154.328     -117.590       -7.308       56.085       45.629       30.363     3145.497     2082.037      921.935        2.192        0.307      194.022       23.707        0.015      332.105        0.549      871.167
01/16/2014  23:52:00     -125.597     -112.061       -2.304       80.808       81.721       45.578     6529.940     6678.343     2077.337        2.181        0.764      168.322       48.707        0.084      332.000        0.377      871.192
01/16/2014  23:53:00     -154.699     -129.584       -4.324       93.324       82.641       54.194     8709.402     6829.485     2937.039        2.961        0.924      201.801       51.769        0.066      331.864        0.152      871.198
01/16/2014  23:54:00     -174.583     -142.559       -9.810       60.567       56.330       34.679     3668.407     3173.062     1202.654        2.947        0.402      225.394       32.750        0.021      331.888        0.191      871.208
01/16/2014  23:55:00     -190.169     -105.991       -8.303       59.570       49.706       29.096     3548.577     2470.648      846.562        2.717        0.343      217.712       25.321        0.014      331.898        0.208      871.213
01/16/2014  23:56:00     -164.421      -90.445       -3.913       60.859       48.011       30.509     3703.810     2305.013      930.809        2.108        0.347      187.655       23.724        0.016      331.957        0.306      871.207
01/16/2014  23:57:00     -176.191      -62.854      -14.212       41.319       36.482       28.514     1707.286     1330.940      813.061        1.952        0.193      187.066       24.505        0.017      331.927        0.256      871.195
01/16/2014  23:58:00     -149.533      -77.681       -4.778       77.774       40.657       25.064     6048.767     1652.983      628.198        1.837        0.416      168.507       25.968        0.024      331.963        0.315      871.199
01/16/2014  23:59:00     -155.001      -63.120       -4.748       37.492       46.776       21.999     1405.623     2187.963      483.977        1.605        0.204      167.361       15.874        0.009      332.005        0.387      871.208
